[[{"header":{"parameterUnit":"m.s-1","parameterCategory":1,"la1":31.0,"la2":29.5877,"lo1":-88.7671,"lo2":-86.6584,"dy":0.0162,"dx":0.0185,"nx":115,"ny":88,"refTime":"2023-07-26T06:00:00:Z","depth":0,"parameterNumber":2,"parameterNumberName":"U-component_of_WINDS"},"data":[0.0,0.0,0.0,0.0,0.0,0.0,0.0,0.0,0.0,0.0,0.0,0.0,0.0,0.0,0.0,0.0,0.0,0.0,0.0,0.0,0.0,0.0,0.0,0.0,0.0,0.0,0.0,0.0,0.0,0.0,0.0,0.0,0.0,0.0,0.0,0.0,0.0,0.0,0.0,0.0,0.0,0.0,0.0,0.0,0.0,0.0,0.0,0.0,0.0,0.0,0.0,0.0,0.0,0.0,0.0,0.0,0.0,0.0,0.0,0.0,0.0,0.0,0.0,0.0,0.0,0.0,0.0,0.0,0.0,0.0,0.0,0.0,0.0,0.0,0.0,0.0,0.0,0.0,0.0,0.0,0.0,0.0,0.0,0.0,0.0,0.0,0.0,0.0,0.0,0.0,0.0,0.0,0.0,0.0,0.0,0.0,0.0,0.0,0.0,0.0,0.0,0.0,0.0,0.0,0.0,0.0,0.0,0.0,0.0,0.0,0.0,0.0,0.0,0.0,0.0,0.0,0.0,0.0,0.0,0.0,0.0,0.0,0.0,0.0,0.0,0.0,0.0,0.0,0.0,0.0,0.0,0.0,0.0,0.0,0.0,0.0,0.0,0.0,0.0,0.0,0.0,0.0,0.0,0.0,0.0,0.0,0.0,0.0,0.0,0.0,0.0,0.0,0.0,0.0,0.0,0.0,0.0,0.0,0.0,0.0,0.0,0.0,0.0,0.0,0.0,0.0,0.0,0.0,0.0,0.0,0.0,0.0,0.0,0.0,0.0,0.0,0.0,0.0,0.0,0.0,0.0,0.0,0.0,0.0,0.0,0.0,0.0,0.0,0.0,0.0,0.0,0.0,0.0,0.0,0.0,0.0,0.0,0.0,0.0,0.0,0.0,0.0,0.0,0.0,0.0,0.0,0.0,0.0,0.0,0.0,0.0,0.0,0.0,0.0,0.0,0.0,0.0,0.0,0.0,0.0,0.0,0.0,0.0,0.0,0.0,0.0,0.0,0.0,0.0,0.0,0.0,0.0,0.0,0.0,0.0,0.0,0.0,0.0,0.0,0.0,0.0,0.0,0.0,0.0,0.0,0.0,0.0,0.0,0.0,0.0,0.0,0.0,0.0,0.0,0.0,0.0,0.0,0.0,0.0,0.0,0.0,0.0,0.0,0.0,0.0,0.0,0.0,0.0,0.0,0.0,0.0,0.0,0.0,0.0,0.0,0.0,0.0,0.0,0.0,0.0,0.0,0.0,0.0,0.0,0.0,0.0,0.0,0.0,0.0,0.0,0.0,0.0,0.0,0.0,0.0,0.0,0.0,0.0,0.0,0.0,0.0,0.0,0.0,0.0,0.0,0.0,0.0,0.0,0.0,0.0,0.0,0.0,0.0,0.0,0.0,0.0,0.0,0.0,0.0,0.0,0.0,0.0,0.0,0.0,0.0,0.0,0.0,0.0,0.0,0.0,0.0,0.0,0.0,0.0,0.0,0.0,0.0,0.0,0.0,0.0,0.0,0.0,0.0,0.0,0.0,0.0,0.0,0.0,0.0,0.0,0.0,0.0,0.0,0.0,0.0,0.0,0.0,0.0,0.0,0.0,0.0,0.0,0.0,0.0,0.0,0.0,0.0,0.0,0.0,0.0,0.0,0.0,0.0,0.0,0.0,0.0,0.0,0.0,0.0,0.0,0.0,0.0,0.0,0.0,0.0,0.0,0.0,0.0,0.0,0.0,0.0,0.0,0.0,0.0,0.0,0.0,0.0,0.0,0.0,0.0,0.0,0.0,0.0,0.0,0.0,0.0,0.0,0.0,0.0,0.0,0.0,0.0,0.0,0.0,0.0,0.0,0.0,0.0,0.0,0.0,0.0,0.0,0.0,0.0,0.0,0.0,0.0,0.0,0.0,0.0,0.0,0.0,0.0,0.0,0.0,0.0,0.0,0.0,0.0,0.0,0.0,0.0,0.0,0.0,0.0,0.0,0.0,0.0,0.0,0.0,0.0,0.0,0.0,0.0,0.0,0.0,0.0,0.0,0.0,0.0,0.0,0.0,0.0,0.0,0.0,0.0,0.0,0.0,0.0,0.0,0.0,0.0,0.0,0.0,0.0,0.0,0.0,0.0,0.0,0.0,0.0,0.0,0.0,0.0,0.0,0.0,0.0,0.0,0.0,0.0,0.0,0.0,0.0,0.0,0.0,0.0,0.0,0.0,0.0,0.0,0.0,0.0,0.0,0.0,0.0,0.0,0.0,0.0,0.0,0.0,0.0,0.0,0.0,0.0,0.0,0.0,0.0,0.0,0.0,0.0,0.0,0.0,0.0,0.0,0.0,0.0,0.0,0.0,0.0,0.0,0.0,0.0,0.0,0.0,0.0,0.0,0.0,0.0,0.0,0.0,0.0,0.0,0.0,0.0,0.0,0.0,0.0,0.0,0.0,0.0,0.0,0.0,0.0,0.0,0.0,0.0,0.0,0.0,0.0,0.0,0.0,0.0,0.0,0.0,0.0,0.0,0.0,0.0,0.0,0.0,0.0,0.0,0.0,0.0,0.0,0.0,0.0,0.0,0.0,0.0,0.0,0.0,0.0,0.0,0.0,0.0,0.0,0.0,0.0,0.0,0.0,0.0,0.0,0.0,0.0,0.0,0.0,0.0,0.0,0.0,0.0,0.0,0.0,0.0,0.0,0.0,0.0,0.0,0.0,0.0,0.0,0.0,0.0,0.0,0.0,0.0,0.0,0.0,0.0,0.0,0.0,0.0,0.0,0.0,0.0,0.0,0.0,0.0,0.0,0.0,0.0,0.0,0.0,0.0,0.0,0.0,0.0,0.0,0.0,0.0,0.0,0.0,0.0,0.0,0.0,0.0,0.0,0.0,0.0,0.0,0.0,0.0,0.0,0.0,0.0,0.0,0.0,0.0,0.0,0.0,0.0,0.0,0.0,0.0,0.0,0.0,0.0,0.0,0.0,0.0,0.0,0.0,0.0,0.0,0.0,0.0,0.0,0.0,0.0,0.0,0.0,0.0,0.0,0.0,0.0,0.0,0.0,0.0,0.0,0.0,0.0,0.0,0.0,0.0,0.0,0.0,0.0,0.0,0.0,0.0,0.0,0.0,0.0,0.0,0.0,0.0,0.0,0.0,0.0,0.0,0.0,0.0,0.0,0.0,0.0,0.0,0.0,0.0,0.0,0.0,0.0,0.0,0.0,0.0,0.0,0.0,0.0,0.0,0.0,0.0,0.0,0.0,0.0,0.0,0.0,0.0,0.0,0.0,0.0,0.0,0.0,0.0,0.0,0.0,0.0,0.0,0.0,0.0,0.0,0.0,0.0,0.0,0.0,0.0,0.0,0.0,0.0,0.0,0.0,0.0,0.0,0.0,0.0,0.0,0.0,0.0,0.0,0.0,0.0,0.0,0.0,0.0,0.0,0.0,0.0,0.0,0.0,0.0,0.0,0.0,0.0,0.0,0.0,0.0,0.0,0.0,0.0,0.0,0.0,0.0,0.0,0.0,0.0,0.0,0.0,0.0,0.0,0.0,0.0,0.0,0.0,0.0,0.0,0.0,0.0,0.0,0.0,0.0,0.0,0.0,0.0,0.0,0.0,0.0,0.0,0.0,0.0,0.0,0.0,0.0,0.0,0.0,0.0,0.0,0.0,0.0,0.0,0.0,0.0,0.0,0.0,0.0,0.0,0.0,0.0,0.0,0.0,0.0,0.0,0.0,0.0,0.0,0.0,0.0,0.0,0.0,0.0,0.0,0.0,0.0,0.0,0.0,0.0,0.0,0.0,0.0,0.0,0.0,0.0,0.0,0.0,0.0,0.0,0.0,0.0,0.0,0.0,0.0,0.0,0.0,0.0,0.0,0.0,0.0,0.0,0.0,0.0,0.0,0.0,0.0,0.0,0.0,0.0,0.0,0.0,0.0,0.0,0.0,0.0,0.0,0.0,0.0,0.0,0.0,0.0,0.0,0.0,0.0,0.0,0.0,0.0,0.0,0.0,0.0,0.0,0.0,0.0,0.0,0.0,0.0,0.0,0.0,0.0,0.0,0.0,0.0,0.0,0.0,0.0,0.0,0.0,0.0,0.0,0.0,0.0,0.0,0.0,0.0,0.0,0.0,0.0,0.0,0.0,0.0,0.0,0.0,0.0,0.0,0.0,0.0,0.0,0.0,0.0,0.0,0.0,0.0,0.0,0.0,0.0,0.0,0.0,0.0,0.0,0.0,0.0,0.0,0.0,0.0,0.0,0.0,0.0,0.0,0.0,0.0,0.0,0.0,-3.8296,0.0,0.0,0.0,0.0,0.0,0.0,0.0,0.0,0.0,0.0,0.0,0.0,0.0,0.0,0.0,0.0,0.0,0.0,0.0,0.0,0.0,0.0,0.0,0.0,0.0,0.0,0.0,0.0,0.0,0.0,0.0,0.0,0.0,0.0,0.0,0.0,0.0,0.0,0.0,0.0,0.0,0.0,0.0,0.0,0.0,0.0,0.0,0.0,0.0,0.0,0.0,0.0,0.0,0.0,0.0,0.0,0.0,0.0,0.0,0.0,0.0,0.0,0.0,0.0,0.0,0.0,0.0,0.0,0.0,0.0,0.0,0.0,0.0,0.0,0.0,0.0,0.0,0.0,0.0,0.0,0.0,0.0,0.0,0.0,0.0,0.0,0.0,0.0,0.0,0.0,0.0,0.0,0.0,0.0,0.0,0.0,0.0,0.0,0.0,0.0,0.0,0.0,0.0,0.0,0.0,0.0,0.0,0.0,0.0,0.0,-3.845,-3.6757,-3.9142,-3.9284,-3.6788,0.0,0.0,0.0,0.0,0.0,0.0,0.0,0.0,0.0,0.0,0.0,0.0,0.0,0.0,0.0,0.0,0.0,0.0,0.0,0.0,0.0,0.0,0.0,0.0,0.0,0.0,0.0,0.0,0.0,0.0,0.0,0.0,0.0,0.0,0.0,0.0,0.0,0.0,0.0,0.0,0.0,0.0,0.0,0.0,0.0,0.0,0.0,0.0,0.0,0.0,0.0,0.0,0.0,0.0,0.0,0.0,0.0,0.0,0.0,0.0,0.0,0.0,0.0,0.0,0.0,0.0,0.0,0.0,0.0,0.0,0.0,0.0,0.0,0.0,0.0,0.0,0.0,0.0,0.0,0.0,0.0,0.0,0.0,0.0,0.0,0.0,0.0,0.0,0.0,0.0,0.0,0.0,0.0,0.0,0.0,0.0,0.0,0.0,0.0,0.0,0.0,0.0,0.0,0.0,0.0,0.0,0.0,0.0,0.0,0.0,0.0,0.0,-3.8277,-3.843,-3.5923,0.0,0.0,0.0,0.0,0.0,0.0,0.0,0.0,0.0,0.0,0.0,0.0,0.0,0.0,0.0,0.0,0.0,0.0,0.0,0.0,0.0,0.0,0.0,0.0,0.0,0.0,0.0,0.0,0.0,0.0,0.0,0.0,0.0,0.0,0.0,0.0,0.0,0.0,0.0,0.0,0.0,0.0,0.0,0.0,0.0,0.0,0.0,0.0,0.0,0.0,0.0,0.0,0.0,0.0,0.0,0.0,0.0,0.0,0.0,0.0,0.0,0.0,0.0,0.0,0.0,0.0,0.0,0.0,0.0,0.0,0.0,0.0,0.0,0.0,0.0,0.0,0.0,0.0,0.0,0.0,0.0,0.0,0.0,0.0,0.0,0.0,0.0,0.0,0.0,0.0,0.0,0.0,0.0,0.0,0.0,0.0,0.0,0.0,0.0,0.0,0.0,0.0,0.0,0.0,0.0,0.0,0.0,0.0,0.0,0.0,-3.6077,-3.6577,-3.6885,0.0,-3.6558,0.0,0.0,0.0,0.0,0.0,0.0,0.0,0.0,0.0,0.0,0.0,0.0,0.0,0.0,0.0,0.0,0.0,0.0,0.0,0.0,0.0,0.0,0.0,0.0,0.0,0.0,0.0,0.0,0.0,0.0,0.0,0.0,0.0,0.0,0.0,0.0,0.0,0.0,0.0,0.0,0.0,0.0,0.0,0.0,0.0,0.0,0.0,0.0,0.0,0.0,0.0,0.0,0.0,0.0,0.0,0.0,0.0,0.0,0.0,0.0,0.0,0.0,0.0,0.0,0.0,0.0,0.0,0.0,0.0,0.0,0.0,0.0,0.0,0.0,0.0,0.0,0.0,0.0,0.0,0.0,0.0,0.0,0.0,0.0,0.0,0.0,0.0,0.0,0.0,0.0,0.0,0.0,0.0,0.0,0.0,0.0,0.0,0.0,0.0,0.0,0.0,0.0,0.0,0.0,0.0,0.0,0.0,0.0,0.0,0.0,-3.5885,-3.6673,-3.6712,-3.6462,0.0,0.0,0.0,0.0,0.0,0.0,0.0,0.0,0.0,0.0,0.0,0.0,0.0,0.0,0.0,0.0,0.0,0.0,0.0,0.0,0.0,0.0,0.0,0.0,0.0,0.0,0.0,0.0,0.0,0.0,0.0,0.0,0.0,0.0,0.0,0.0,0.0,0.0,0.0,0.0,0.0,0.0,0.0,0.0,0.0,0.0,0.0,0.0,0.0,0.0,0.0,0.0,0.0,0.0,0.0,0.0,0.0,0.0,0.0,0.0,0.0,0.0,0.0,0.0,0.0,0.0,0.0,0.0,0.0,0.0,0.0,0.0,0.0,0.0,0.0,0.0,0.0,0.0,0.0,0.0,0.0,0.0,0.0,0.0,0.0,0.0,0.0,0.0,0.0,0.0,0.0,0.0,0.0,0.0,0.0,0.0,0.0,0.0,0.0,0.0,0.0,0.0,0.0,0.0,0.0,0.0,0.0,0.0,0.0,0.0,-3.5962,-3.6231,-3.6988,-3.6615,-3.6192,-3.5827,0.0,0.0,0.0,0.0,0.0,0.0,0.0,0.0,0.0,0.0,0.0,0.0,0.0,0.0,0.0,0.0,0.0,0.0,0.0,0.0,0.0,0.0,0.0,0.0,0.0,0.0,0.0,0.0,0.0,0.0,0.0,0.0,0.0,0.0,0.0,0.0,0.0,0.0,0.0,0.0,0.0,0.0,0.0,0.0,0.0,0.0,0.0,0.0,0.0,0.0,0.0,0.0,0.0,0.0,0.0,0.0,0.0,0.0,0.0,0.0,0.0,0.0,0.0,0.0,0.0,0.0,0.0,0.0,0.0,0.0,0.0,0.0,0.0,0.0,0.0,0.0,0.0,0.0,0.0,0.0,0.0,0.0,0.0,0.0,0.0,0.0,0.0,0.0,0.0,0.0,0.0,0.0,0.0,0.0,0.0,0.0,0.0,0.0,0.0,0.0,0.0,0.0,0.0,0.0,0.0,0.0,0.0,0.0,-3.7738,-3.7065,-3.7065,-3.7853,-3.6404,-3.5904,0.0,0.0,0.0,0.0,0.0,0.0,0.0,0.0,0.0,0.0,0.0,0.0,0.0,0.0,0.0,0.0,0.0,0.0,0.0,0.0,0.0,0.0,0.0,0.0,0.0,0.0,0.0,0.0,0.0,0.0,0.0,0.0,0.0,0.0,0.0,0.0,0.0,0.0,0.0,0.0,0.0,0.0,0.0,0.0,0.0,0.0,0.0,0.0,0.0,0.0,0.0,0.0,0.0,0.0,0.0,0.0,0.0,0.0,0.0,0.0,0.0,0.0,0.0,0.0,0.0,0.0,0.0,0.0,0.0,0.0,0.0,0.0,0.0,0.0,0.0,0.0,0.0,0.0,0.0,0.0,0.0,0.0,0.0,0.0,0.0,0.0,0.0,0.0,0.0,0.0,0.0,0.0,0.0,0.0,0.0,0.0,0.0,0.0,0.0,0.0,0.0,0.0,0.0,0.0,0.0,0.0,0.0,0.0,0.0,-3.6404,-3.7142,-3.7404,-3.7173,-3.7103,-3.6969,0.0,0.0,0.0,0.0,0.0,0.0,0.0,0.0,0.0,0.0,0.0,0.0,0.0,0.0,0.0,0.0,0.0,0.0,0.0,0.0,0.0,0.0,0.0,0.0,0.0,0.0,0.0,0.0,0.0,0.0,0.0,0.0,0.0,0.0,0.0,0.0,0.0,0.0,0.0,0.0,0.0,0.0,0.0,0.0,0.0,0.0,0.0,0.0,0.0,0.0,0.0,0.0,0.0,0.0,0.0,0.0,0.0,0.0,0.0,0.0,0.0,0.0,0.0,0.0,0.0,0.0,0.0,0.0,0.0,0.0,0.0,0.0,0.0,0.0,0.0,0.0,0.0,0.0,0.0,0.0,0.0,0.0,0.0,0.0,0.0,0.0,0.0,0.0,0.0,0.0,0.0,0.0,0.0,0.0,0.0,0.0,0.0,0.0,0.0,0.0,0.0,0.0,0.0,0.0,0.0,0.0,0.0,0.0,0.0,-3.6327,0.0,-3.8142,-3.7584,-3.7546,-3.7315,0.0,0.0,0.0,0.0,0.0,0.0,0.0,0.0,0.0,0.0,0.0,0.0,0.0,0.0,0.0,0.0,0.0,0.0,0.0,0.0,0.0,0.0,0.0,0.0,0.0,0.0,0.0,0.0,0.0,0.0,0.0,0.0,0.0,0.0,0.0,0.0,0.0,0.0,0.0,0.0,0.0,0.0,0.0,0.0,0.0,0.0,0.0,0.0,0.0,0.0,0.0,0.0,0.0,0.0,0.0,0.0,0.0,0.0,0.0,0.0,0.0,0.0,0.0,0.0,0.0,0.0,0.0,0.0,0.0,0.0,0.0,0.0,0.0,0.0,0.0,0.0,0.0,0.0,0.0,0.0,0.0,0.0,0.0,0.0,0.0,0.0,0.0,0.0,0.0,0.0,0.0,0.0,0.0,0.0,0.0,0.0,0.0,0.0,0.0,0.0,0.0,0.0,0.0,0.0,0.0,0.0,0.0,0.0,-3.6308,-3.7892,-3.8777,-3.9227,-3.9238,-3.7661,-3.6757,0.0,0.0,0.0,0.0,0.0,0.0,0.0,0.0,0.0,0.0,0.0,0.0,0.0,0.0,0.0,0.0,0.0,0.0,0.0,0.0,0.0,0.0,0.0,0.0,0.0,0.0,0.0,0.0,0.0,0.0,0.0,0.0,0.0,0.0,0.0,0.0,0.0,0.0,0.0,0.0,0.0,0.0,0.0,0.0,0.0,0.0,0.0,0.0,0.0,0.0,0.0,0.0,0.0,0.0,0.0,0.0,0.0,0.0,0.0,0.0,0.0,0.0,0.0,0.0,0.0,0.0,0.0,0.0,0.0,0.0,0.0,0.0,0.0,0.0,0.0,0.0,0.0,0.0,0.0,0.0,0.0,0.0,0.0,0.0,0.0,0.0,0.0,0.0,0.0,0.0,0.0,0.0,0.0,0.0,0.0,0.0,0.0,0.0,0.0,0.0,0.0,0.0,0.0,0.0,0.0,0.0,0.0,0.0,0.0,-3.7142,-3.8546,-3.9304,-3.9265,-3.82,-3.7603,0.0,0.0,0.0,0.0,0.0,0.0,0.0,0.0,0.0,0.0,0.0,0.0,0.0,0.0,0.0,0.0,0.0,0.0,0.0,0.0,0.0,0.0,0.0,0.0,0.0,0.0,0.0,0.0,0.0,0.0,0.0,0.0,0.0,0.0,0.0,0.0,0.0,0.0,0.0,0.0,0.0,0.0,0.0,0.0,0.0,0.0,0.0,0.0,0.0,0.0,0.0,0.0,0.0,0.0,0.0,0.0,0.0,0.0,0.0,0.0,0.0,0.0,0.0,0.0,0.0,0.0,0.0,0.0,0.0,0.0,0.0,0.0,0.0,0.0,0.0,0.0,0.0,0.0,0.0,0.0,0.0,0.0,0.0,0.0,0.0,0.0,0.0,0.0,0.0,0.0,0.0,0.0,0.0,0.0,0.0,0.0,0.0,0.0,0.0,0.0,0.0,0.0,0.0,0.0,0.0,0.0,0.0,0.0,0.0,-3.7719,-3.9027,-3.9746,-3.9765,-3.8623,-3.8007,-3.7969,0.0,0.0,0.0,0.0,0.0,0.0,0.0,0.0,0.0,0.0,0.0,0.0,0.0,0.0,0.0,0.0,0.0,0.0,0.0,0.0,0.0,0.0,0.0,0.0,0.0,0.0,0.0,0.0,0.0,0.0,0.0,0.0,0.0,0.0,0.0,0.0,0.0,0.0,0.0,0.0,0.0,0.0,0.0,0.0,0.0,0.0,0.0,0.0,0.0,0.0,0.0,0.0,0.0,0.0,0.0,0.0,0.0,0.0,0.0,0.0,0.0,0.0,0.0,0.0,0.0,0.0,0.0,0.0,0.0,0.0,0.0,0.0,0.0,0.0,0.0,0.0,0.0,0.0,0.0,0.0,0.0,0.0,0.0,0.0,0.0,0.0,0.0,0.0,0.0,0.0,0.0,0.0,0.0,0.0,0.0,0.0,0.0,0.0,0.0,0.0,0.0,0.0,0.0,0.0,0.0,0.0,0.0,0.0,-3.9284,-4.0092,-4.0496,-4.0458,-3.8873,-3.8007,0.0,0.0,0.0,0.0,0.0,0.0,0.0,0.0,0.0,0.0,0.0,0.0,0.0,0.0,0.0,0.0,0.0,0.0,0.0,0.0,0.0,0.0,0.0,0.0,0.0,0.0,0.0,0.0,0.0,0.0,0.0,0.0,0.0,0.0,0.0,0.0,0.0,0.0,0.0,0.0,0.0,0.0,0.0,0.0,0.0,0.0,0.0,0.0,0.0,0.0,0.0,0.0,0.0,0.0,0.0,0.0,0.0,0.0,0.0,0.0,0.0,0.0,0.0,0.0,0.0,0.0,0.0,0.0,0.0,0.0,0.0,0.0,0.0,0.0,0.0,0.0,0.0,0.0,0.0,0.0,0.0,0.0,0.0,0.0,0.0,0.0,0.0,0.0,0.0,0.0,0.0,0.0,0.0,0.0,0.0,0.0,0.0,0.0,0.0,0.0,0.0,0.0,0.0,0.0,0.0,0.0,0.0,0.0,0.0,-3.9284,-4.0092,-4.0496,-4.0458,-3.8892,-3.8007,0.0,0.0,0.0,0.0,0.0,0.0,0.0,0.0,0.0,0.0,0.0,0.0,0.0,0.0,0.0,0.0,0.0,0.0,0.0,0.0,0.0,0.0,0.0,0.0,0.0,0.0,0.0,0.0,0.0,0.0,0.0,0.0,0.0,0.0,0.0,0.0,0.0,0.0,0.0,0.0,0.0,0.0,0.0,0.0,0.0,0.0,0.0,0.0,0.0,0.0,0.0,0.0,0.0,0.0,0.0,0.0,0.0,0.0,0.0,0.0,0.0,0.0,0.0,0.0,0.0,0.0,0.0,0.0,0.0,0.0,0.0,0.0,0.0,0.0,0.0,0.0,0.0,0.0,0.0,0.0,0.0,0.0,0.0,0.0,0.0,0.0,0.0,0.0,0.0,0.0,0.0,0.0,0.0,0.0,0.0,0.0,0.0,0.0,0.0,0.0,0.0,0.0,0.0,0.0,0.0,0.0,0.0,0.0,-3.8584,-3.9785,-4.0246,-4.0496,-4.0496,-3.9238,-3.838,0.0,0.0,0.0,0.0,0.0,0.0,0.0,0.0,0.0,0.0,0.0,0.0,0.0,0.0,0.0,0.0,0.0,0.0,0.0,0.0,0.0,0.0,0.0,0.0,0.0,0.0,0.0,0.0,0.0,0.0,0.0,0.0,0.0,0.0,0.0,0.0,0.0,0.0,0.0,0.0,0.0,0.0,0.0,0.0,0.0,0.0,0.0,0.0,0.0,0.0,0.0,0.0,0.0,0.0,0.0,0.0,0.0,0.0,0.0,0.0,0.0,0.0,0.0,0.0,0.0,0.0,0.0,0.0,0.0,0.0,0.0,0.0,0.0,0.0,0.0,0.0,0.0,0.0,0.0,0.0,0.0,0.0,0.0,0.0,0.0,0.0,0.0,0.0,0.0,0.0,0.0,0.0,0.0,0.0,0.0,0.0,0.0,0.0,0.0,0.0,0.0,0.0,0.0,0.0,0.0,0.0,0.0,0.0,-3.8796,-4.0458,-4.0496,-4.0496,-4.0477,-3.9727,-3.8873,0.0,0.0,0.0,0.0,0.0,0.0,0.0,0.0,0.0,0.0,0.0,0.0,0.0,0.0,0.0,0.0,0.0,0.0,0.0,0.0,0.0,0.0,0.0,0.0,0.0,0.0,0.0,0.0,0.0,0.0,0.0,0.0,0.0,0.0,0.0,0.0,0.0,0.0,0.0,0.0,0.0,0.0,0.0,0.0,0.0,0.0,0.0,0.0,0.0,0.0,0.0,0.0,0.0,0.0,0.0,0.0,0.0,0.0,0.0,0.0,0.0,0.0,0.0,0.0,0.0,0.0,0.0,0.0,0.0,0.0,0.0,0.0,0.0,0.0,0.0,0.0,0.0,0.0,0.0,0.0,0.0,0.0,0.0,0.0,0.0,0.0,0.0,0.0,0.0,0.0,0.0,0.0,0.0,0.0,0.0,0.0,0.0,0.0,0.0,0.0,0.0,0.0,0.0,0.0,0.0,0.0,0.0,0.0,-3.8796,-4.0439,-4.0496,-4.0496,-4.0496,-3.9727,-3.89,0.0,0.0,0.0,0.0,0.0,0.0,0.0,0.0,0.0,0.0,0.0,0.0,0.0,0.0,0.0,0.0,0.0,0.0,0.0,0.0,0.0,0.0,0.0,0.0,0.0,0.0,0.0,0.0,0.0,0.0,0.0,0.0,0.0,0.0,0.0,0.0,0.0,0.0,0.0,0.0,0.0,0.0,0.0,0.0,0.0,0.0,0.0,0.0,-3.027,0.0,0.0,0.0,0.0,0.0,0.0,0.0,0.0,0.0,0.0,0.0,0.0,0.0,0.0,0.0,0.0,0.0,0.0,0.0,0.0,0.0,0.0,0.0,0.0,0.0,0.0,0.0,0.0,0.0,0.0,0.0,0.0,0.0,0.0,0.0,0.0,0.0,0.0,0.0,0.0,0.0,0.0,0.0,0.0,0.0,0.0,0.0,0.0,0.0,0.0,0.0,0.0,0.0,0.0,0.0,0.0,0.0,0.0,0.0,-3.9219,-4.0458,-4.0496,-4.0496,-4.0477,-4.0092,-3.9284,0.0,0.0,0.0,0.0,0.0,0.0,0.0,0.0,0.0,0.0,0.0,0.0,0.0,0.0,0.0,0.0,0.0,0.0,0.0,0.0,0.0,0.0,0.0,0.0,0.0,0.0,0.0,0.0,0.0,0.0,0.0,0.0,0.0,0.0,0.0,0.0,0.0,0.0,0.0,0.0,0.0,0.0,0.0,0.0,0.0,0.0,0.0,0.0,0.0,0.0,0.0,0.0,0.0,0.0,0.0,0.0,0.0,0.0,0.0,0.0,0.0,0.0,0.0,0.0,0.0,0.0,0.0,0.0,0.0,0.0,0.0,0.0,0.0,0.0,0.0,0.0,0.0,0.0,0.0,0.0,0.0,0.0,0.0,0.0,0.0,0.0,0.0,0.0,0.0,0.0,0.0,0.0,0.0,0.0,0.0,0.0,0.0,0.0,0.0,0.0,0.0,0.0,0.0,0.0,0.0,0.0,0.0,-3.8726,-3.9554,-4.0458,-4.0496,-4.0439,-4.0331,-4.0323,-3.9534,-3.7899,0.0,0.0,0.0,0.0,0.0,0.0,0.0,0.0,0.0,0.0,0.0,0.0,0.0,0.0,0.0,0.0,0.0,0.0,0.0,0.0,0.0,0.0,0.0,0.0,0.0,0.0,0.0,0.0,0.0,0.0,0.0,0.0,0.0,0.0,0.0,0.0,0.0,0.0,-2.9731,-3.0344,0.0,0.0,0.0,0.0,0.0,0.0,0.0,0.0,-3.0679,0.0,0.0,0.0,0.0,0.0,0.0,0.0,0.0,0.0,0.0,0.0,0.0,0.0,0.0,0.0,0.0,0.0,0.0,0.0,0.0,0.0,0.0,0.0,0.0,0.0,0.0,0.0,0.0,0.0,0.0,0.0,0.0,0.0,0.0,0.0,0.0,0.0,0.0,0.0,0.0,0.0,0.0,0.0,0.0,0.0,0.0,0.0,0.0,0.0,0.0,0.0,0.0,0.0,0.0,0.0,0.0,-3.7966,-3.8137,-3.8969,-4.0458,-4.0496,-4.0165,-3.9533,-3.9484,-3.8715,-3.71,0.0,0.0,0.0,0.0,0.0,0.0,0.0,0.0,0.0,0.0,0.0,0.0,0.0,0.0,0.0,0.0,0.0,0.0,0.0,0.0,0.0,0.0,0.0,0.0,0.0,0.0,0.0,0.0,0.0,0.0,0.0,0.0,0.0,0.0,0.0,0.0,0.0,0.0,0.0,-3.1515,-3.1608,0.0,0.0,0.0,0.0,0.0,0.0,0.0,0.0,-3.0827,0.0,0.0,0.0,0.0,0.0,0.0,0.0,0.0,0.0,0.0,0.0,0.0,0.0,0.0,0.0,0.0,0.0,0.0,0.0,0.0,0.0,0.0,0.0,0.0,0.0,0.0,0.0,0.0,0.0,0.0,0.0,0.0,0.0,0.0,0.0,0.0,0.0,0.0,0.0,0.0,0.0,0.0,0.0,0.0,0.0,0.0,0.0,0.0,0.0,0.0,0.0,0.0,0.0,0.0,0.0,-3.7364,-3.7826,-3.8443,-3.922,-3.9259,-3.9073,-3.8683,-3.8688,-3.7891,0.0,0.0,0.0,0.0,0.0,0.0,0.0,0.0,0.0,0.0,0.0,0.0,0.0,0.0,0.0,0.0,0.0,0.0,0.0,0.0,0.0,0.0,0.0,0.0,0.0,0.0,0.0,0.0,0.0,0.0,0.0,0.0,0.0,0.0,0.0,0.0,0.0,0.0,0.0,0.0,-3.1942,-3.2091,-3.2521,0.0,0.0,0.0,0.0,0.0,0.0,-3.0846,-3.0734,0.0,0.0,0.0,0.0,0.0,0.0,0.0,0.0,0.0,0.0,0.0,0.0,0.0,0.0,0.0,0.0,0.0,0.0,0.0,0.0,0.0,0.0,0.0,0.0,0.0,0.0,0.0,0.0,0.0,0.0,0.0,0.0,0.0,0.0,0.0,0.0,0.0,0.0,0.0,0.0,0.0,0.0,0.0,0.0,0.0,0.0,0.0,0.0,0.0,0.0,0.0,0.0,0.0,0.0,0.0,-3.6806,-3.7494,-3.7932,-3.8086,-3.8086,-3.8015,-3.7868,-3.7868,-3.7051,0.0,0.0,0.0,0.0,0.0,0.0,0.0,0.0,0.0,0.0,0.0,0.0,0.0,0.0,0.0,0.0,0.0,0.0,0.0,0.0,0.0,0.0,0.0,0.0,0.0,0.0,0.0,0.0,0.0,0.0,0.0,0.0,0.0,0.0,0.0,0.0,0.0,0.0,0.0,0.0,0.0,-3.2458,-3.2916,-3.2448,0.0,0.0,0.0,0.0,-3.105,-3.1087,0.0,0.0,0.0,0.0,0.0,0.0,0.0,0.0,0.0,0.0,0.0,0.0,0.0,0.0,0.0,0.0,0.0,0.0,0.0,0.0,0.0,0.0,0.0,0.0,0.0,0.0,0.0,0.0,0.0,0.0,0.0,0.0,0.0,0.0,0.0,0.0,0.0,0.0,0.0,0.0,0.0,0.0,0.0,0.0,0.0,0.0,0.0,0.0,0.0,0.0,0.0,0.0,0.0,0.0,0.0,0.0,-3.6728,-3.6916,-3.734,-3.8047,-3.8086,-3.7758,-3.7082,-3.7061,-3.6218,0.0,0.0,0.0,0.0,0.0,0.0,0.0,0.0,0.0,0.0,0.0,0.0,0.0,0.0,0.0,0.0,0.0,0.0,0.0,0.0,0.0,0.0,0.0,0.0,0.0,0.0,0.0,0.0,0.0,0.0,0.0,0.0,0.0,0.0,0.0,0.0,0.0,0.0,0.0,0.0,0.0,-3.2676,-3.2061,-3.1883,-3.179,0.0,0.0,0.0,-3.2611,-3.2723,0.0,0.0,0.0,0.0,0.0,0.0,0.0,0.0,0.0,0.0,0.0,0.0,0.0,0.0,0.0,0.0,0.0,0.0,0.0,0.0,0.0,0.0,0.0,0.0,0.0,0.0,0.0,0.0,0.0,0.0,0.0,0.0,0.0,0.0,0.0,0.0,0.0,0.0,0.0,0.0,0.0,0.0,0.0,0.0,0.0,0.0,0.0,0.0,0.0,0.0,0.0,0.0,0.0,0.0,0.0,-3.4679,-3.543,-3.5975,-3.6423,-3.6787,-3.6787,-3.6641,-3.6284,-3.6274,-3.5469,0.0,0.0,0.0,0.0,0.0,0.0,0.0,0.0,0.0,0.0,0.0,0.0,0.0,0.0,0.0,0.0,0.0,0.0,0.0,0.0,0.0,0.0,0.0,0.0,0.0,0.0,0.0,0.0,0.0,0.0,0.0,0.0,0.0,0.0,0.0,0.0,0.0,0.0,0.0,0.0,0.0,0.0,-3.3384,-3.2962,0.0,0.0,0.0,-3.2432,-3.2332,0.0,0.0,0.0,0.0,0.0,0.0,0.0,0.0,0.0,0.0,0.0,0.0,0.0,0.0,0.0,0.0,0.0,0.0,0.0,0.0,0.0,0.0,0.0,0.0,0.0,0.0,0.0,0.0,0.0,0.0,0.0,0.0,0.0,0.0,0.0,0.0,0.0,0.0,0.0,0.0,0.0,0.0,0.0,0.0,0.0,0.0,0.0,0.0,0.0,0.0,0.0,0.0,0.0,0.0,0.0,0.0,0.0,-3.441,-3.5324,-3.5791,-3.5791,-3.5791,-3.5791,-3.5791,-3.5824,0.0,0.0,0.0,0.0,0.0,0.0,0.0,0.0,0.0,0.0,0.0,0.0,0.0,0.0,0.0,0.0,0.0,0.0,0.0,0.0,0.0,0.0,0.0,0.0,0.0,0.0,0.0,-2.9715,0.0,0.0,0.0,0.0,0.0,0.0,0.0,0.0,0.0,0.0,0.0,0.0,0.0,0.0,-3.3457,-3.4113,-3.3644,-3.3223,0.0,0.0,-3.2871,-3.2462,-3.2908,-3.3094,0.0,0.0,0.0,0.0,0.0,0.0,0.0,0.0,0.0,0.0,0.0,0.0,0.0,0.0,0.0,0.0,0.0,0.0,0.0,0.0,0.0,0.0,0.0,0.0,0.0,0.0,0.0,0.0,0.0,0.0,0.0,0.0,0.0,0.0,0.0,0.0,0.0,0.0,0.0,0.0,0.0,0.0,0.0,0.0,0.0,0.0,0.0,0.0,0.0,0.0,0.0,0.0,0.0,0.0,0.0,-3.4391,-3.5324,-3.5794,-3.5791,-3.5791,-3.5791,-3.5791,-3.5853,-3.5054,0.0,0.0,0.0,0.0,0.0,0.0,0.0,0.0,0.0,0.0,0.0,0.0,0.0,0.0,0.0,0.0,0.0,0.0,0.0,0.0,0.0,0.0,0.0,0.0,0.0,0.0,0.0,0.0,0.0,0.0,0.0,0.0,0.0,0.0,0.0,0.0,0.0,0.0,0.0,0.0,0.0,-3.3043,-3.3087,-3.3062,-3.3273,0.0,0.0,-3.3243,-3.393,-3.4067,-3.4104,-3.403,0.0,0.0,0.0,0.0,0.0,0.0,0.0,0.0,0.0,0.0,0.0,0.0,0.0,0.0,0.0,0.0,0.0,0.0,0.0,0.0,0.0,0.0,0.0,0.0,0.0,0.0,0.0,0.0,0.0,0.0,0.0,0.0,0.0,0.0,0.0,0.0,0.0,0.0,0.0,0.0,0.0,0.0,0.0,0.0,0.0,0.0,0.0,0.0,0.0,0.0,0.0,0.0,0.0,-3.3375,-3.3734,-3.518,-3.5924,-3.5925,-3.5924,-3.5925,-3.5906,-3.5951,-3.5376,0.0,0.0,0.0,0.0,0.0,0.0,0.0,0.0,0.0,0.0,0.0,0.0,0.0,0.0,0.0,0.0,0.0,0.0,0.0,0.0,0.0,0.0,0.0,0.0,0.0,0.0,0.0,0.0,-3.176,-3.1768,-3.1443,0.0,0.0,0.0,0.0,0.0,0.0,0.0,0.0,0.0,0.0,-3.3811,-3.3971,-3.3994,0.0,0.0,-3.4269,-3.4106,-3.4394,-3.4305,-3.4216,-3.4216,-3.4216,0.0,0.0,0.0,0.0,0.0,0.0,0.0,0.0,0.0,0.0,0.0,0.0,0.0,0.0,0.0,0.0,0.0,0.0,0.0,0.0,0.0,0.0,0.0,0.0,0.0,0.0,0.0,0.0,0.0,0.0,0.0,0.0,0.0,0.0,0.0,0.0,0.0,0.0,0.0,0.0,0.0,0.0,0.0,0.0,0.0,0.0,0.0,0.0,0.0,0.0,0.0,0.0,-3.3264,-3.3293,-3.509,-3.6016,-3.6016,-3.6016,-3.6016,-3.6016,-3.6016,-3.5565,0.0,0.0,0.0,0.0,0.0,0.0,0.0,0.0,0.0,0.0,0.0,0.0,0.0,0.0,0.0,0.0,0.0,0.0,0.0,0.0,0.0,0.0,0.0,0.0,0.0,0.0,0.0,0.0,-3.2325,-3.2208,-3.1801,0.0,0.0,0.0,0.0,0.0,0.0,0.0,0.0,0.0,0.0,-3.4401,-3.4658,-3.4636,-3.4628,-3.4782,-3.4618,-3.4465,-3.4465,-3.4316,-3.4216,-3.4216,0.0,0.0,0.0,0.0,0.0,0.0,0.0,0.0,0.0,0.0,0.0,0.0,0.0,0.0,0.0,0.0,0.0,0.0,0.0,0.0,0.0,0.0,0.0,0.0,0.0,0.0,0.0,0.0,0.0,0.0,0.0,0.0,0.0,0.0,0.0,0.0,0.0,0.0,0.0,0.0,0.0,0.0,0.0,0.0,0.0,0.0,0.0,0.0,0.0,0.0,0.0,0.0,0.0,0.0,-3.3314,-3.5071,-3.6016,-3.6016,-3.6016,-3.6016,-3.6016,-3.6016,-3.5565,-3.4611,0.0,0.0,0.0,0.0,0.0,0.0,0.0,0.0,0.0,0.0,0.0,0.0,0.0,0.0,0.0,0.0,0.0,0.0,0.0,0.0,0.0,0.0,0.0,0.0,0.0,0.0,-3.1673,-3.1763,-3.2064,0.0,0.0,0.0,0.0,0.0,0.0,0.0,0.0,0.0,0.0,-3.4696,-3.4663,-3.4879,-3.473,-3.4653,-3.4653,-3.4416,-3.424,-3.4252,-3.4228,-3.4216,0.0,0.0,0.0,0.0,0.0,0.0,0.0,0.0,0.0,0.0,0.0,0.0,0.0,0.0,0.0,0.0,0.0,0.0,0.0,0.0,0.0,0.0,0.0,0.0,0.0,0.0,0.0,0.0,-3.5955,0.0,0.0,0.0,0.0,0.0,0.0,0.0,0.0,0.0,0.0,0.0,-3.5905,-3.5594,0.0,0.0,0.0,0.0,0.0,0.0,0.0,0.0,0.0,0.0,0.0,0.0,-3.3293,-3.3375,-3.509,-3.6016,-3.6016,-3.6016,-3.6016,-3.6016,-3.6016,-3.5565,-3.4632,0.0,0.0,0.0,0.0,0.0,0.0,0.0,0.0,0.0,0.0,0.0,0.0,0.0,0.0,0.0,0.0,0.0,0.0,0.0,0.0,0.0,0.0,0.0,0.0,0.0,-3.3174,0.0,0.0,0.0,0.0,0.0,0.0,0.0,0.0,0.0,0.0,0.0,-3.4491,-3.4736,-3.4803,-3.487,-3.5058,-3.551,-3.5835,0.0,0.0,0.0,0.0,0.0,0.0,0.0,0.0,0.0,0.0,0.0,0.0,0.0,0.0,-3.3253,-3.3272,-3.304,-3.2936,-3.3223,0.0,0.0,0.0,0.0,0.0,0.0,0.0,0.0,0.0,0.0,0.0,0.0,0.0,0.0,0.0,0.0,-3.6269,0.0,0.0,0.0,0.0,0.0,0.0,0.0,0.0,-3.4746,-3.5469,-3.5996,-3.5952,-3.5947,0.0,-3.5871,-3.5249,0.0,0.0,0.0,0.0,0.0,0.0,0.0,0.0,-3.3748,-3.3823,-3.5229,-3.6016,-3.6016,-3.6016,-3.6016,-3.6016,-3.6016,-3.5722,-3.511,-3.4792,-3.435,0.0,0.0,0.0,0.0,0.0,0.0,0.0,0.0,0.0,0.0,0.0,0.0,0.0,0.0,0.0,0.0,0.0,0.0,0.0,0.0,0.0,0.0,0.0,-3.4176,0.0,0.0,0.0,0.0,0.0,0.0,0.0,0.0,0.0,-3.3893,-3.4528,-3.5041,-3.5022,-3.5058,-3.5259,-3.5699,0.0,0.0,0.0,0.0,0.0,0.0,0.0,-3.538,-3.4785,-3.5132,-3.5306,-3.4748,-3.4661,-3.455,-3.4253,0.0,0.0,-3.4216,-3.4061,-3.3985,-3.4161,-3.3889,-3.3689,-3.3895,-3.3952,-3.3881,0.0,0.0,0.0,0.0,0.0,0.0,0.0,0.0,-3.8555,-3.8555,0.0,-3.6855,0.0,0.0,0.0,0.0,0.0,0.0,0.0,0.0,-3.5527,-3.5976,-3.5996,-3.6016,-3.6016,-3.6016,-3.5996,-3.5954,-3.5817,-3.5045,0.0,0.0,0.0,0.0,0.0,0.0,-3.4616,-3.461,-3.5525,-3.6016,-3.6016,-3.6016,-3.6016,-3.6016,-3.6016,-3.5996,-3.5976,-3.5188,-3.471,-3.4571,-3.2922,0.0,0.0,0.0,0.0,0.0,0.0,0.0,0.0,0.0,0.0,0.0,0.0,0.0,0.0,0.0,0.0,0.0,0.0,0.0,0.0,-3.4432,0.0,0.0,0.0,0.0,0.0,0.0,0.0,0.0,0.0,0.0,-3.5108,-3.5103,-3.5243,-3.554,0.0,0.0,0.0,0.0,-3.6813,-3.7452,-3.737,-3.7181,-3.6998,-3.6272,-3.5726,-3.567,0.0,0.0,-3.5547,-3.5547,-3.5287,-3.4451,-3.4364,-3.429,-3.4309,-3.4271,-3.4185,-3.4197,-3.4185,-3.4204,-3.4216,-3.4173,-3.4173,-3.955,0.0,0.0,0.0,0.0,-3.8242,-3.8359,-3.8613,-3.8613,-3.8613,-3.8574,-3.8066,0.0,0.0,0.0,0.0,0.0,0.0,-3.3867,-3.4707,-3.4961,-3.5391,-3.6016,-3.6016,-3.6016,-3.6016,-3.6016,-3.5976,-3.5975,-3.5737,-3.5111,-3.4219,0.0,0.0,0.0,0.0,-3.4604,-3.4652,-3.5525,-3.6016,-3.6016,-3.6016,-3.6016,-3.6016,-3.6016,-3.6016,-3.5996,-3.5762,-3.5311,-3.4618,-3.4104,0.0,0.0,0.0,0.0,0.0,0.0,0.0,0.0,0.0,0.0,0.0,0.0,0.0,0.0,0.0,0.0,0.0,0.0,0.0,-3.5245,-3.5317,-3.509,0.0,0.0,0.0,0.0,0.0,0.0,0.0,0.0,0.0,-3.5324,-3.5438,-3.5496,0.0,0.0,-3.6556,-3.6774,-3.7814,-3.8569,-3.857,0.0,0.0,0.0,-3.7937,-3.745,-3.6832,-3.6575,-3.6416,-3.6365,-3.6365,-3.6272,-3.5999,-3.5974,-3.5993,-3.5919,-3.4977,-3.429,-3.4216,-3.4216,-3.4216,-3.4216,-3.4216,-3.4414,-4.0506,-3.955,-3.9258,-3.9121,-3.9121,-3.9101,-3.9316,-3.9629,-3.9609,-3.957,-3.955,-3.9257,-3.8828,-3.8281,-3.7617,0.0,0.0,0.0,-3.4707,-3.5215,-3.5215,-3.5488,-3.5996,-3.6016,-3.6016,-3.6016,-3.6016,-3.6016,-3.6016,-3.6016,-3.572,-3.5168,0.0,0.0,-3.4349,-3.4856,-3.5123,-3.517,-3.5722,-3.6016,-3.6016,-3.6015,-3.6015,-3.6015,-3.6015,-3.6015,-3.6015,-3.6014,-3.5741,-3.5175,-3.4803,-3.435,0.0,0.0,0.0,0.0,0.0,0.0,0.0,0.0,0.0,0.0,0.0,-3.3234,0.0,0.0,0.0,0.0,-3.4621,-3.5123,-3.5665,-3.5704,0.0,0.0,0.0,0.0,0.0,0.0,0.0,-3.554,-3.5534,-3.5515,-3.5521,-3.5639,-3.5767,-3.5978,-3.6536,-3.7127,-3.7745,0.0,-3.9467,-3.955,-3.9538,-3.9505,-3.9366,-3.8946,-3.8397,-3.7786,-3.7528,-3.7368,-3.7234,-3.7195,-3.7071,-3.6798,-3.6718,-3.6718,-3.6718,-3.585,-3.5182,-3.5182,-3.5182,-3.52,-3.5194,-3.52,-3.5361,-4.1323,-4.1228,-4.0507,-4.0117,-4.0,-4.0,-4.0469,-4.1191,-4.1132,-4.1112,-4.1053,-4.033,-3.9998,-3.9901,-3.8262,0.0,0.0,-3.6504,-3.6035,-3.6016,-3.6016,-3.6016,-3.6016,-3.6016,-3.6016,-3.6016,-3.6016,-3.6016,-3.6016,-3.6016,-3.6016,-3.5996,-3.5949,-3.5918,-3.5917,-3.5899,-3.5929,-3.6016,-3.6016,-3.6016,-3.6016,-3.6015,-3.6014,-3.6014,-3.6012,-3.6011,-3.601,-3.601,-3.601,-3.5971,-3.5176,-3.4706,-3.4686,0.0,0.0,0.0,0.0,0.0,0.0,0.0,0.0,0.0,0.0,0.0,0.0,0.0,0.0,0.0,-3.5706,0.0,-3.5704,-3.5704,0.0,0.0,0.0,-3.5704,-3.5704,-3.5704,-3.5704,-3.5704,0.0,0.0,0.0,0.0,-3.5994,-3.6787,-3.6975,-3.7588,-3.9194,-3.9489,-3.9786,-4.0276,-4.0446,-4.0422,-4.0154,-3.9517,-3.8928,-3.8618,-3.8456,-3.835,-3.8145,-3.8059,-3.7703,-3.7113,-3.6909,-3.6941,-3.6891,-3.6928,-3.6885,-3.6891,-3.6736,-3.6662,-3.6588,-3.6569,-3.6588,-4.3076,-4.3061,-4.2866,-4.2069,-4.0898,-4.0898,-4.0996,-4.1191,-4.1172,-4.1172,-4.1152,-4.0976,-4.0898,-4.084,-3.9766,-3.8906,-3.8262,-3.7402,-3.6621,-3.6035,-3.6016,-3.6016,-3.6016,-3.6016,-3.6016,-3.6016,-3.6016,-3.6016,-3.6016,-3.6015,-3.6015,-3.6015,-3.5976,-3.5976,-3.5975,-3.5976,-3.5976,-3.6015,-3.6013,-3.6012,-3.6013,-3.6012,-3.6012,-3.6011,-3.6011,-3.601,-3.601,-3.6008,-3.6006,-3.6006,-3.579,-3.5672,-3.5653,-3.4797,0.0,0.0,0.0,0.0,0.0,0.0,0.0,0.0,0.0,-3.4783,-3.5644,0.0,-3.5722,0.0,-3.5745,-3.5713,-3.5715,-3.5704,0.0,0.0,-3.5704,-3.5704,-3.5704,-3.5704,-3.5704,-3.5704,-3.5704,-3.5704,-3.5704,-3.5704,-3.6013,-3.6787,-3.7477,-3.8252,-3.9264,-4.0063,-4.0462,-4.0423,-4.0473,-4.0481,-4.0422,-4.0279,-3.9985,-3.9757,-3.9532,-3.9322,-3.8984,-3.8885,-3.8803,-3.8576,-3.8525,-3.8525,-3.8502,-3.8525,-3.852,-3.8432,-3.7559,-3.6718,-3.6718,-3.6736,-3.6885,-4.3695,-4.37,-4.3699,-4.2943,-4.1737,-4.1737,-4.1503,-4.1152,-4.115,-4.117,-4.1171,-4.1171,-4.1172,-4.1172,-4.0684,-4.0,-3.916,-3.8672,-3.7988,-3.7148,-3.6758,-3.6582,-3.6562,-3.6191,-3.6016,-3.6015,-3.6015,-3.6015,-3.6014,-3.6014,-3.6013,-3.6013,-3.6011,-3.6012,-3.6014,-3.6013,-3.6013,-3.6014,-3.6012,-3.601,-3.601,-3.6009,-3.6008,-3.6008,-3.6005,-3.6004,-3.6004,-3.6021,-3.6019,-3.6019,-3.6014,-3.6012,-3.5992,-3.5507,-3.5427,0.0,0.0,0.0,0.0,0.0,0.0,0.0,0.0,0.0,0.0,0.0,-3.5788,0.0,-3.5772,0.0,-3.5708,-3.5698,-3.5701,-3.5709,-3.5704,-3.5704,-3.5704,-3.5704,-3.5704,-3.5704,-3.5704,-3.5704,-3.5704,-3.5704,-3.5994,-3.6806,-3.7328,-3.8071,-3.9245,-4.0217,-4.0739,-4.0624,-4.0624,-4.0639,-4.0619,-4.0619,-4.0512,-4.0223,-4.004,-3.984,-3.9526,-3.9414,-3.9401,-3.9439,-3.9439,-3.9377,-3.9311,-3.9272,-3.9245,-3.9017,-3.8395,-3.7838,-3.7764,-3.7745,-3.7931,-4.404,-4.4025,-4.4045,-4.3541,-4.2724,-4.2701,-4.21,-4.1091,-4.0986,-4.0928,-4.0933,-4.1032,-4.1111,-4.1171,-4.1172,-4.0722,-3.9902,-3.9883,-3.9433,-3.8555,-3.7812,-3.7461,-3.7422,-3.668,-3.6269,-3.617,-3.617,-3.6111,-3.6011,-3.601,-3.601,-3.601,-3.6009,-3.6009,-3.601,-3.6009,-3.601,-3.6013,-3.6011,-3.6009,-3.6009,-3.6005,-3.6003,-3.6002,-3.6016,-3.6012,-3.6012,-3.6012,-3.6012,-3.6012,-3.6012,-3.6012,-3.6012,-3.5996,-3.597,0.0,-3.5896,0.0,0.0,0.0,0.0,0.0,0.0,0.0,0.0,-3.585,-3.5886,-3.5797,-3.58,-3.5785,-3.571,-3.5708,-3.5702,-3.5715,-3.5715,-3.5709,-3.5704,-3.5704,-3.5704,-3.5704,-3.5704,-3.5704,-3.5704,-3.5704,-3.5994,-3.6593,-3.7038,-3.7735,-3.903,-4.0023,-4.0597,-4.0758,-4.0797,-4.0759,-4.0784,-4.079,-4.066,-4.0321,-4.0205,-4.0071,-3.9862,-3.9739,-3.9709,-3.9838,-3.9808,-3.975,-3.958,-3.9544,-3.9464,-3.92,-3.9072,-3.9021,-3.8985,-3.8952,-3.9101,-4.5814,-4.5814,-4.5815,-4.5308,-4.4506,-4.439,-4.3101,-4.1049,-4.0423,-4.0062,-4.0022,-4.075,-4.1081,-4.1042,-4.1103,-4.0679,-3.9898,-3.9879,-3.943,-3.8609,-3.8433,-3.8355,-3.8335,-3.8179,-3.7749,-3.7084,-3.7046,-3.6694,-3.601,-3.6007,-3.6006,-3.6005,-3.6019,-3.6019,-3.6005,0.0,0.0,0.0,-3.6017,-3.6016,-3.6016,-3.6016,-3.6014,-3.6014,-3.6013,0.0,-3.6012,-3.6012,-3.6012,-3.6012,-3.6012,0.0,0.0,0.0,0.0,0.0,0.0,0.0,0.0,0.0,0.0,0.0,-3.5841,-3.5889,-3.5863,-3.5917,-3.5908,-3.5741,-3.5807,-3.5836,-3.5706,-3.5713,-3.5708,-3.5702,-3.5702,-3.5711,-3.5709,-3.5704,-3.5704,-3.5704,-3.5704,-3.5704,-3.5704,-3.5704,-3.5762,-3.6019,-3.7096,-3.8019,-3.8411,-3.9262,-4.0023,-4.0623,-4.0797,-4.0797,-4.0797,-4.0797,-4.072,-4.0496,-4.0422,-4.0321,-4.0101,-4.004,-3.997,-3.9932,-3.9891,-3.987,-3.9772,-3.975,-3.9683,-3.9471,-3.9439,-3.9344,-3.9156,-3.9101,-3.9101,-4.7315,0.0,-4.6944,-4.6183,0.0,-4.4857,-4.3863,-4.2241,-4.1802,-4.1601,-4.1558,-4.2031,-4.1992,-4.152,-4.1185,-4.0599,-3.9782,-3.9424,-3.9271,-3.9213,-3.8802,-3.8821,-3.9232,-3.8802,-3.8371,-3.796,-3.7939,-3.749,-3.6667,-3.6626,-3.6428,-3.6018,-3.6014,-3.6014,-3.6018,-3.6014,-3.6012,-3.6012,-3.6012,-3.6012,-3.6012,-3.6012,-3.6012,-3.6012,0.0,0.0,0.0,0.0,0.0,0.0,0.0,0.0,0.0,0.0,0.0,-3.5954,-3.5918,-3.5897,-3.5897,-3.5897,-3.5897,-3.5897,-3.5917,-3.5954,-3.5955,-3.5956,-3.5917,-3.5869,-3.5886,-3.5875,-3.5795,-3.5779,-3.5737,-3.5713,-3.5708,-3.5718,-3.5711,-3.5706,-3.5701,-3.5709,-3.5704,-3.5704,-3.5704,-3.5704,-3.5704,-3.5767,-3.6748,-3.7729,-3.8232,-3.9321,-4.0332,-4.0719,-4.0797,-4.0797,-4.0797,-4.0797,-4.0726,-4.0561,-4.0496,-4.0449,-4.033,-4.0286,-4.0258,-4.0274,-4.0274,-4.0202,-4.0015,-4.0004,-3.9934,-3.9717,-3.9637,-3.9573,-3.9344,-3.9192,-3.9101,-4.8408,-4.782,-4.782,-4.7001,-4.5652,-4.5364,-4.4732,-4.3884,0.0,0.0,0.0,-4.3321,-4.2985,-4.2276,-4.1675,-4.0956,-4.0114,-3.9525,-3.9559,-4.0069,-3.9366,-3.9425,-4.005,-3.9366,-3.8955,-3.8814,-3.8814,-3.8362,-3.7536,-3.7379,-3.6949,-3.6265,-3.609,-3.6012,-3.6012,-3.6012,-3.6012,-3.6012,-3.6012,-3.6012,-3.6012,-3.6012,-3.6012,-3.6012,-3.6012,-3.6012,-3.6012,-3.6012,-3.6012,-3.6012,-3.6012,-3.6012,-3.6012,-3.6012,-3.6012,-3.6012,-3.6012,-3.6012,-3.6012,-3.6012,-3.6012,-3.6012,-3.6012,-3.5975,-3.5979,-3.5953,-3.5935,-3.5987,-3.5925,-3.5884,-3.5892,-3.5853,-3.5778,-3.5718,-3.5713,-3.5723,-3.5698,-3.5713,-3.5707,-3.5706,-3.5701,-3.5715,-3.5715,-3.5709,-3.5704,-3.582,-3.6632,-3.7541,-3.8566,-3.9881,-4.0739,-4.0797,-4.0797,-4.0797,-4.0797,-4.0797,-4.0726,-4.0617,-4.0569,-4.0561,-4.0554,-4.0504,-4.0534,-4.0646,-4.0654,-4.0523,-4.0334,-4.0264,-4.0156,-3.9924,-3.988,-3.9797,-3.9597,-3.9395,-3.9232,-4.874,-4.8642,-4.8642,-4.8486,-4.8189,-4.7395,-4.644,-4.537,-4.4007,-4.2917,-4.2163,-4.3036,-4.3278,-4.3047,-4.3052,-4.2598,-4.1848,-4.1721,-4.1425,0.0,-4.0819,-4.0819,-4.0917,-4.08,-4.0349,-3.9665,-3.9645,-3.9216,-3.8415,-3.7672,-3.7243,-3.7028,-3.6363,-3.6012,-3.6012,-3.6012,-3.6012,-3.6012,-3.6012,-3.6012,-3.6012,-3.6012,-3.6012,-3.6012,-3.6012,-3.6012,-3.6012,-3.6012,-3.6012,-3.6012,-3.6012,-3.6012,-3.6012,-3.6012,-3.6012,-3.6012,-3.6012,-3.6012,-3.6012,-3.6012,-3.6012,-3.6012,-3.6012,-3.5983,-3.5917,-3.5949,-3.5972,-3.5911,-3.5912,-3.5886,-3.5892,-3.5883,-3.5862,-3.5801,-3.578,-3.5766,-3.5708,-3.5704,-3.5699,-3.5713,-3.5713,-3.5702,-3.5697,-3.5701,-3.5704,-3.5916,-3.6961,-3.8528,-3.9881,-4.0616,-4.0797,-4.0797,-4.0797,-4.0797,-4.0797,-4.0797,-4.0778,-4.0771,-4.0759,-4.0733,-4.0733,-4.072,-4.07,-4.07,-4.0694,-4.0647,-4.0545,-4.0542,-4.0422,-4.0221,-4.0138,-4.0062,-3.9827,-3.9698,-3.9566,-4.9896,-4.9421,-4.9399,-4.9126,-4.871,-4.8206,-4.7648,-4.6954,-4.5812,-4.4773,-4.3987,-4.4402,-4.4298,-4.3782,-4.3453,-4.2842,-4.2024,-4.161,-4.1268,-4.0958,-4.0919,-4.0942,-4.0932,-4.102,-4.0857,-4.045,-4.0494,-4.0054,-3.9273,-3.8843,-3.8199,-3.7301,-3.6422,-3.6012,-3.6012,-3.6012,-3.6012,-3.6012,-3.6012,-3.6012,-3.6012,-3.6012,-3.6012,-3.6012,-3.6012,-3.6012,-3.6012,-3.6012,-3.6012,-3.6012,-3.6012,-3.6012,-3.6012,-3.6012,-3.6012,-3.6012,-3.6012,-3.6012,-3.6012,-3.6012,-3.6012,-3.6012,-3.6012,-3.5978,-3.5949,-3.5951,-3.5954,-3.5957,-3.5936,-3.589,-3.588,-3.5884,-3.588,-3.585,-3.5856,-3.5845,-3.5761,-3.5754,-3.5742,-3.5708,-3.5703,-3.5707,-3.5707,-3.5706,-3.5704,-3.5839,-3.7135,-3.8837,-4.0526,-4.0797,-4.0797,-4.0797,-4.0797,-4.0797,-4.0797,-4.0797,-4.0797,-4.0797,-4.0797,-4.0797,-4.0797,-4.0797,-4.079,-4.0771,-4.0746,-4.0713,-4.0661,-4.064,-4.0571,-4.0492,-4.0422,-4.0321,-4.0101,-3.9924,-3.972,-5.0881,-5.0138,-5.0138,-4.9671,-4.8942,-4.8851,-4.856,-4.8101,-4.7475,-4.6814,-4.6172,-4.5787,-4.5229,-4.4564,-4.3995,-4.3282,-4.2499,-4.1902,-4.1556,-4.1369,-4.1179,-4.1087,-4.1092,-4.1054,-4.0984,-4.0961,-4.1044,-4.0753,-4.012,-3.9893,-3.8961,-3.7399,-3.6636,-3.6187,-3.6012,-3.6012,-3.6012,-3.6012,-3.6012,-3.6012,-3.6012,-3.6012,-3.6012,-3.6012,-3.6012,-3.6012,-3.6012,-3.6012,-3.6012,-3.6012,-3.6012,-3.6012,-3.6012,-3.6012,-3.6012,-3.6012,-3.6012,-3.6012,-3.6012,-3.6012,-3.6012,-3.6012,-3.6012,-3.6012,-3.5994,-3.595,-3.5933,-3.5982,-3.5957,-3.5915,-3.5898,-3.5894,-3.5883,-3.5895,-3.589,-3.5877,-3.5833,-3.5822,-3.5806,-3.5732,-3.5704,-3.5728,-3.5723,-3.5697,-3.5889,-3.6458,-3.7406,-3.8837,-4.039,-4.0797,-4.0797,-4.0797,-4.0797,-4.0797,-4.0797,-4.0797,-4.0797,-4.0797,-4.0797,-4.0797,-4.0797,-4.0797,-4.0797,-4.081,-4.081,-4.0765,-4.0739,-4.07,-4.0668,-4.0607,-4.0571,-4.0531,-4.0334,-4.0166,-3.9924,-5.0978,-5.0903,-5.0884,-5.0456,-4.9726,-4.9681,-4.9162,-4.8354,-4.8199,-4.8062,-4.7644,-4.6287,-4.5594,-4.5479,-4.5381,-4.4877,-4.4218,-4.4188,-4.375,-4.3072,-4.2354,-4.1985,-4.1869,-4.1319,-4.0937,-4.0855,-4.1008,-4.1009,-4.0797,-4.0136,-3.8961,-3.7477,-3.7204,-3.6773,-3.6109,-3.6012,-3.6012,-3.6012,-3.6012,-3.6012,-3.6012,-3.6012,-3.6012,-3.6012,-3.6012,-3.6012,-3.6012,-3.6012,-3.6012,-3.6012,-3.6012,-3.6012,-3.6012,-3.6012,-3.6012,-3.6012,-3.6012,-3.6012,-3.6012,-3.6012,-3.6012,-3.6012,-3.6012,-3.6012,-3.6012,-3.5995,-3.5996,-3.5995,-3.5978,-3.5951,-3.5918,-3.5898,-3.5916,-3.5905,-3.5895,-3.5898,-3.5883,-3.5883,-3.5876,-3.5795,-3.5778,-3.5794,-3.579,-3.5733,-3.6292,-3.7566,-3.7928,-3.8818,-4.0429,-4.0797,-4.0797,-4.0797,-4.0797,-4.0797,-4.0797,-4.0797,-4.0797,-4.0797,-4.0797,-4.0797,-4.0797,-4.0797,-4.0797,-4.0797,-4.0797,-4.079,-4.0784,-4.0765,-4.07,-4.0674,-4.0654,-4.0581,-4.0559,-4.0492,-4.0319,-5.0979,-5.0925,-5.0944,-5.0712,-5.0372,-5.0398,-4.9888,-4.8973,-4.8945,-4.8631,-4.8048,-4.7355,-4.6817,-4.6355,-4.5845,-4.5436,-4.5167,-4.5147,-4.4697,-4.3953,-4.3566,-4.2871,-4.1957,-4.1673,-4.1274,-4.0779,-4.0951,-4.102,-4.0869,-4.019,-3.9419,-3.8675,-3.7798,-3.7106,-3.6753,-3.6246,-3.6012,-3.6012,-3.6012,-3.6012,-3.6012,-3.6012,-3.6012,-3.6012,-3.6012,-3.6012,-3.6012,-3.6012,-3.6012,-3.6012,-3.6012,-3.6012,-3.6012,-3.6012,-3.6012,-3.6012,-3.6012,-3.6012,-3.6012,-3.6012,-3.6012,-3.6012,-3.6012,-3.6012,-3.6012,-3.6012,-3.6012,-3.6012,-3.6012,-3.5998,-3.5967,-3.5949,-3.5951,-3.5956,-3.5917,-3.5891,-3.5886,-3.5887,-3.5875,-3.5859,-3.5813,-3.5799,-3.5793,-3.5732,-3.6415,-3.7802,-3.8222,-3.8893,-4.0448,-4.0797,-4.0797,-4.0797,-4.0797,-4.0797,-4.0797,-4.0797,-4.0797,-4.0797,-4.0797,-4.0797,-4.0797,-4.0797,-4.0797,-4.0797,-4.0797,-4.0797,-4.079,-4.079,-4.0771,-4.0746,-4.07,-4.0635,-4.0595,-4.06,-4.0458,-5.0874,-5.085,-5.0841,-5.0784,-5.0702,-5.0801,-5.0437,-4.9798,-4.974,-4.9394,-4.8817,-4.8567,-4.8144,-4.749,-4.6451,-4.5845,-4.5614,-4.5594,-4.5278,-4.4643,-4.4432,-4.3643,-4.2524,-4.2039,-4.1603,-4.1068,-4.0956,-4.094,-4.087,-4.0385,-3.9947,-3.9519,-3.8271,-3.7496,-3.722,-3.6414,-3.5983,-3.601,-3.6012,-3.6012,-3.6012,-3.6012,-3.6012,-3.6012,-3.6012,-3.6012,-3.6012,-3.6012,-3.6012,-3.6012,-3.6012,-3.6012,-3.6012,-3.6012,-3.6012,-3.6012,-3.601,-3.601,-3.601,-3.6012,-3.6012,-3.6012,-3.6012,-3.6012,-3.6012,-3.6012,-3.6012,-3.6012,-3.6012,-3.6012,-3.6012,-3.6012,-3.6012,-3.5994,-3.595,-3.5917,-3.5898,-3.5893,-3.5896,-3.588,-3.5844,-3.5813,-3.5784,-3.5791,-3.6289,-3.751,-3.8075,-3.8684,-4.0099,-4.0615,-4.0809,-4.0797,-4.0797,-4.0797,-4.0797,-4.0797,-4.0797,-4.0797,-4.0797,-4.0797,-4.0797,-4.0797,-4.0797,-4.0797,-4.0797,-4.0797,-4.0797,-4.0797,-4.0797,-4.079,-4.0752,-4.0707,-4.0694,-4.0635,-4.0633,-5.0712,-5.0721,-5.0702,-5.0721,-5.0693,-5.0721,-5.0683,-5.0462,-5.0596,-5.0567,-5.0279,-4.9683,-4.9317,-4.9067,-4.7528,-4.6394,-4.571,-4.5614,-4.5556,-4.5383,-4.4701,-4.4259,-4.4102,-4.2649,-4.1858,-4.1609,-4.1056,-4.0815,-4.0795,-4.077,-4.0396,-3.9679,-3.8715,-3.791,-3.7301,-3.6402,-3.5938,-3.5985,-3.5988,-3.601,-3.601,-3.601,-3.601,-3.601,-3.6012,-3.6012,-3.6012,-3.6012,-3.6012,-3.6012,-3.6012,-3.6012,-3.6012,-3.6012,-3.601,-3.601,-3.6004,-3.6004,-3.601,-3.601,-3.601,-3.6012,-3.601,-3.6012,-3.6012,-3.6012,-3.6012,-3.6012,-3.6012,-3.6012,-3.6012,-3.6012,-3.6012,-3.6012,-3.6013,-3.5967,-3.5898,-3.5918,-3.5896,-3.588,-3.5889,-3.5869,-3.5813,-3.5804,-3.6188,-3.7026,-3.7783,-3.8625,-3.9508,-4.0291,-4.0653,-4.0784,-4.0797,-4.0797,-4.0797,-4.0797,-4.0797,-4.0797,-4.0797,-4.0797,-4.0797,-4.0797,-4.0797,-4.0797,-4.0797,-4.0797,-4.0797,-4.0797,-4.0797,-4.079,-4.079,-4.0778,-4.0746,-4.0733,-4.0687,-5.0683,-5.0683,-5.0683,-5.0683,-5.0683,-5.0683,-5.0385,-4.9933,-5.0481,-5.0385,-4.9971,-5.0087,-4.9913,-4.9336,-4.8202,-4.7221,-4.6413,-4.5855,-4.5594,-4.5575,-4.5267,-4.4844,-4.4209,-4.3169,-4.2341,-4.1759,-4.11,-4.0746,-4.0751,-4.0776,-4.0655,-4.0155,-3.8956,-3.8167,-3.7737,-3.6498,-3.5837,-3.5912,-3.589,-3.5919,-3.598,-3.6019,-3.6015,-3.6017,-3.6007,-3.6012,-3.6012,-3.6012,-3.6012,-3.6012,-3.6012,-3.6012,-3.601,-3.6007,-3.602,-3.6017,-3.6011,-3.6015,-3.602,-3.6019,-3.602,-3.601,-3.6007,-3.6007,-3.601,-3.6012,-3.6012,-3.6012,-3.6012,-3.6012,-3.6012,-3.6012,-3.6012,-3.6012,-3.6012,-3.5996,-3.5984,-3.5967,-3.5953,-3.5917,-3.5887,-3.5887,-3.5859,-3.5851,-3.6177,-3.6922,-3.7347,-3.811,-3.9222,-3.9874,-4.0164,-4.0659,-4.0802,-4.0796,-4.0797,-4.0797,-4.0797,-4.0797,-4.0797,-4.0797,-4.0797,-4.0797,-4.0797,-4.0797,-4.0797,-4.0797,-4.0797,-4.0797,-4.0797,-4.0797,-4.0797,-4.0797,-4.0797,-4.0771,-4.0739,-5.0683,-5.0683,-5.0683,-5.0683,-5.0683,-5.0683,-5.0366,-4.9913,-5.0462,-5.0366,-5.001,-5.0442,-5.0366,-4.9683,-4.8606,-4.7836,-4.7182,-4.6144,-4.5594,-4.5594,-4.5594,-4.5306,-4.4662,-4.3874,-4.3047,-4.2159,-4.1114,-4.0622,-4.0641,-4.0687,-4.068,-4.0552,-3.9002,-3.8199,-3.7972,-3.6522,-3.5676,-3.5787,-3.5771,-3.5768,-3.5867,-3.5899,-3.5894,-3.5886,-3.5945,-3.6004,-3.6004,-3.6004,-3.6004,-3.6004,-3.6004,-3.6004,-3.6002,-3.5976,-3.5968,-3.5986,-3.5981,-3.5984,-3.6013,-3.6007,-3.6011,-3.6002,-3.6019,-3.6019,-3.6007,-3.6007,-3.6009,-3.601,-3.6012,-3.6012,-3.6012,-3.6012,-3.6012,-3.6012,-3.6012,-3.6012,-3.6012,-3.6012,-3.5982,-3.5953,-3.5937,-3.5934,-3.5908,-3.5887,-3.6145,-3.6684,-3.691,-3.7693,-3.8527,-3.9097,-3.9345,-3.9899,-4.0167,-4.0252,-4.0389,-4.0493,-4.07,-4.0739,-4.0797,-4.0797,-4.0797,-4.0797,-4.0797,-4.0797,-4.0797,-4.0797,-4.0797,-4.0797,-4.0797,-4.0797,-4.0797,-4.0797,-4.0797,-4.0797,-4.0778,-5.0683,-5.0683,-5.0683,-5.0683,-5.0683,-5.0683,-5.0683,-5.0635,-5.0664,-5.0625,-5.0558,-5.0683,-5.0654,-5.0279,-4.8846,-4.8077,-4.7731,-4.6327,-4.5577,-4.5586,-4.5586,-4.5558,-4.5404,-4.4577,-4.3665,-4.2761,-4.1277,-4.0519,-4.0515,-4.0531,-4.0546,-4.0253,-3.8796,-3.804,-3.8199,-3.6468,-3.5541,-3.5592,-3.5611,-3.5597,-3.5621,-3.5741,-3.5745,-3.5653,-3.5846,-3.5977,-3.5977,-3.6003,-3.6007,-3.6007,-3.6007,-3.6005,-3.5986,-3.5938,-3.5934,-3.5979,-3.5936,-3.5936,-3.5984,-3.6003,-3.6001,-3.6007,-3.6005,-3.599,-3.6017,-3.6019,-3.6002,-3.6009,-3.601,-3.6012,-3.601,-3.6012,-3.6012,-3.6012,-3.6012,-3.6012,-3.6012,-3.6012,-3.6012,-3.5995,-3.6,-3.5986,-3.5917,-3.5898,-3.5994,-3.6155,-3.6594,-3.7123,-3.7475,-3.804,-3.8331,-3.8588,-3.9102,-3.9518,-3.983,-4.0138,-4.0435,-4.0681,-4.0758,-4.0797,-4.0797,-4.0797,-4.0797,-4.0797,-4.0797,-4.0797,-4.0797,-4.0797,-4.0797,-4.0797,-4.0797,-4.0797,-4.0797,-4.0797,-4.0797,-5.0653,-5.0683,-5.0683,-5.0683,-5.0683,-5.0683,-5.0683,-5.0683,-5.0683,-5.0683,-5.0683,-5.0683,-5.0683,-5.0298,-4.8885,-4.8087,-4.7953,-4.634,-4.5495,-4.5513,-4.5485,-4.5476,-4.5303,-4.4603,-4.3509,-4.2166,-4.0995,-4.043,-4.0432,-4.0432,-4.0447,-4.0137,-3.8722,-3.797,-3.7882,-3.6301,-3.5418,-3.5518,-3.5531,-3.5541,-3.5611,-3.5636,-3.5645,-3.5616,-3.5721,-3.5772,-3.572,-3.5917,-3.6003,-3.6003,-3.6005,-3.5981,-3.5936,-3.5912,-3.5926,-3.5921,-3.5899,-3.5902,-3.5931,-3.5946,-3.5968,-3.5979,-3.5958,-3.596,-3.6007,-3.6009,-3.6015,-3.6002,-3.6004,-3.6006,-3.601,-3.6012,-3.601,-3.6012,-3.6012,-3.6012,-3.6012,-3.6012,-3.6012,-3.6012,-3.6012,-3.5996,-3.5983,-3.5966,-3.5954,-3.5917,-3.6189,-3.6475,-3.7054,-3.7314,-3.7854,-3.8263,-3.8613,-3.871,-3.8902,-3.9107,-3.9365,-3.9768,-4.006,-4.0236,-4.0346,-4.0623,-4.0661,-4.0797,-4.0797,-4.0797,-4.0797,-4.0797,-4.0797,-4.0797,-4.0797,-4.0797,-4.0797,-4.0797,-4.0797,-5.0593,-5.0614,-5.0633,-5.0663,-5.0673,-5.0673,-5.0673,-5.0683,-5.0682,-5.0653,-5.0653,-5.0653,-5.0643,-5.0287,-4.8865,-4.8116,-4.7866,-4.6205,-4.5438,-4.5438,-4.5419,-4.541,-4.5208,-4.4221,-4.3244,-4.2085,-4.0935,-4.0398,-4.0362,-4.0342,-4.0208,-3.97,-3.8514,-3.7663,-3.7319,-3.6036,-3.5311,-3.5383,-3.5376,-3.5411,-3.5445,-3.5507,-3.552,-3.5463,-3.557,-3.5605,-3.5548,-3.5728,-3.5859,-3.5903,-3.5921,-3.5948,-3.5902,-3.5883,-3.5897,-3.5892,-3.5889,-3.5894,-3.588,-3.5894,-3.5916,-3.5948,-3.5926,-3.5907,-3.5955,-3.596,-3.5984,-3.5994,-3.6013,-3.6017,-3.602,-3.6002,-3.6004,-3.6007,-3.601,-3.601,-3.6012,-3.6012,-3.6012,-3.6012,-3.6012,-3.6012,-3.6012,-3.6012,-3.5979,-3.5952,-3.5934,-3.6015,-3.6597,-3.6689,-3.7112,-3.7487,-3.7688,-3.7773,-3.7868,-3.8066,-3.8278,-3.8708,-3.914,-3.928,-3.9417,-3.9907,-4.0158,-4.0642,-4.0797,-4.0797,-4.0797,-4.0797,-4.0797,-4.0797,-4.0797,-4.0797,-4.0797,-4.0797,-4.0797,-5.05,-5.05,-5.05,-5.0466,-5.0458,-5.0565,-5.0566,-5.0548,-5.0623,-5.0584,-5.0573,-5.0573,-5.0572,-5.0167,-4.8815,-4.8048,-4.7682,-4.6194,-4.5379,-4.5399,-4.538,-4.5381,-4.5189,-4.379,-4.2938,-4.2537,-4.1138,-4.0391,-4.0326,-4.0298,-3.9886,-3.9139,-3.8225,-3.7311,-3.6612,-3.5641,-3.5198,-3.5223,-3.5207,-3.5234,-3.5231,-3.5333,-3.5348,-3.5239,-3.5451,-3.5519,-3.5412,-3.5518,-3.5626,-3.5709,-3.5817,-3.5869,-3.588,-3.5883,-3.5861,-3.5886,-3.5889,-3.5889,-3.5889,-3.5892,-3.5892,-3.5914,-3.5914,-3.5894,-3.5907,-3.5909,-3.5934,-3.5981,-3.5984,-3.6005,-3.6005,-3.6007,-3.6011,-3.6019,-3.6007,-3.601,-3.6012,-3.6012,-3.6012,-3.6012,-3.6012,-3.6012,-3.6012,-3.6012,-3.5994,-3.5995,-3.5996,-3.6047,-3.6053,-3.6152,-3.5994,-3.632,-3.6856,-3.6939,-3.7063,-3.7175,-3.7346,-3.7437,-3.7943,-3.8252,-3.8603,-3.9152,-3.9481,-3.9997,-4.0565,-4.0623,-4.0719,-4.0642,-4.0719,-4.0797,-4.0797,-4.0797,-4.0797,-4.0797,-4.0797,-5.0457,-5.05,-5.05,-5.0127,-4.9726,-5.0214,-5.0148,-4.9728,-5.0282,-5.0521,-5.0521,-5.0521,-5.0492,-5.0308,-4.8735,-4.7947,-4.7467,-4.6113,-4.5328,-4.5328,-4.5338,-4.5329,-4.5004,-4.3646,-4.2814,-4.2575,-4.117,-4.0319,-4.031,-4.031,-3.9851,-3.901,-3.8122,-3.7292,-3.65,-3.5621,-3.522,-3.5182,-3.5182,-3.5182,-3.519,-3.5231,-3.5239,-3.5242,-3.5357,-3.5371,-3.5274,-3.5378,-3.5513,-3.562,-3.5655,-3.5691,-3.5764,-3.5753,-3.5794,-3.5872,-3.5883,-3.5889,-3.5886,-3.5886,-3.5889,-3.5889,-3.5889,-3.5892,-3.5894,-3.5894,-3.5902,-3.5931,-3.5934,-3.5958,-3.6003,-3.6005,-3.6007,-3.6009,-3.6002,-3.601,-3.601,-3.6012,-3.6012,-3.6012,-3.6012,-3.6012,-3.6012,-3.6012,-3.6012,-3.6012,-3.5992,-3.5975,-3.5966,-3.5968,-3.5973,-3.5954,-3.623,-3.6229,-3.6259,-3.6352,-3.6389,-3.6291,-3.6655,-3.7161,-3.7714,-3.8443,-3.8572,-3.8773,-3.9533,-3.981,-4.01,-4.0236,-4.0448,-4.0603,-4.0797,-4.0797,-4.0797,-4.0797,-4.0797,-5.039,-5.0385,-5.0052,-4.9622,-4.9241,-4.9701,-4.9635,-4.9426,-5.0095,-5.0468,-5.0468,-5.0457,-5.0246,-4.9784,-4.8509,-4.7665,-4.7165,-4.591,-4.5345,-4.5297,-4.5307,-4.5307,-4.4887,-4.3596,-4.2794,-4.2603,-4.1094,-4.0396,-4.032,-4.032,-3.9642,-3.8572,-3.796,-3.712,-3.5946,-3.5507,-3.5182,-3.5182,-3.5182,-3.5182,-3.5182,-3.5182,-3.519,-3.5218,-3.5274,-3.5278,-3.5215,-3.5285,-3.5391,-3.5562,-3.5612,-3.5639,-3.567,-3.566,-3.5687,-3.578,-3.578,-3.5791,-3.5824,-3.5827,-3.5843,-3.5883,-3.5889,-3.5889,-3.5889,-3.5889,-3.5894,-3.5899,-3.588,-3.5924,-3.5951,-3.5955,-3.5958,-3.596,-3.5974,-3.6002,-3.6007,-3.601,-3.601,-3.6012,-3.6012,-3.6012,-3.6012,-3.6012,-3.6012,-3.6012,-3.6012,-3.6012,-3.6013,-3.6012,-3.6012,-3.5979,-3.5962,-3.605,-3.6054,-3.6129,-3.6157,-3.5988,-3.603,-3.6443,-3.6962,-3.7713,-3.7887,-3.8075,-3.8611,-3.9011,-3.9249,-3.9559,-3.9946,-4.0178,-4.0507,-4.0739,-4.0739,-4.0797,-4.0797,-5.0302,-5.0225,-4.9442,-4.9037,-4.8966,-4.9062,-4.9094,-4.9184,-5.0002,-5.039,-5.0401,-5.039,-4.9939,-4.9052,-4.8294,-4.7414,-4.6519,-4.5708,-4.5373,-4.5277,-4.5277,-4.525,-4.4838,-4.352,-4.2832,-4.2526,-4.1113,-4.0435,-4.0244,-4.0205,-3.9279,-3.8113,-3.7655,-3.6719,-3.563,-3.5229,-3.5201,-3.5182,-3.5182,-3.5182,-3.5182,-3.5182,-3.5182,-3.519,-3.5198,-3.5215,-3.519,-3.5215,-3.5311,-3.5556,-3.5568,-3.5562,-3.556,-3.559,-3.5607,-3.5609,-3.5649,-3.5655,-3.5687,-3.5704,-3.5753,-3.582,-3.5837,-3.5878,-3.5869,-3.5849,-3.5875,-3.5892,-3.5889,-3.5911,-3.5914,-3.5902,-3.5907,-3.5909,-3.5958,-3.5988,-3.5995,-3.5986,-3.601,-3.601,-3.601,-3.6012,-3.6012,-3.6012,-3.6012,-3.6012,-3.6012,-3.6012,-3.6012,-3.6012,-3.6012,-3.6013,-3.5994,-3.6013,-3.5984,-3.5972,-3.5976,-3.5934,-3.5923,-3.6153,-3.6444,-3.6972,-3.7244,-3.7542,-3.7799,-3.799,-3.8141,-3.8566,-3.9178,-3.9578,-3.9829,-4.0255,-4.0623,-4.0758,-4.0797,-5.0302,-5.0245,-4.9423,-4.8708,-4.825,-4.8796,-4.8731,-4.8272,-4.9694,-5.0325,-5.0325,-5.0325,-4.9798,-4.9014,-4.8116,-4.7352,-4.6424,-4.566,-4.5297,-4.5277,-4.5277,-4.4876,-4.4284,-4.3233,-4.2832,-4.2374,-4.1094,-4.0358,-4.0205,-3.9603,-3.8763,-3.7827,-3.7082,-3.6252,-3.5373,-3.5182,-3.5182,-3.5182,-3.5182,-3.5182,-3.5182,-3.5182,-3.5182,-3.5182,-3.5182,-3.5182,-3.5182,-3.5182,-3.5223,-3.5258,-3.5315,-3.5362,-3.5425,-3.5438,-3.5483,-3.5562,-3.559,-3.5593,-3.562,-3.5625,-3.563,-3.567,-3.5688,-3.5669,-3.5741,-3.5745,-3.5797,-3.5852,-3.5889,-3.5878,-3.5883,-3.5892,-3.5897,-3.5899,-3.5904,-3.5914,-3.5938,-3.5972,-3.6001,-3.6004,-3.6007,-3.601,-3.601,-3.601,-3.601,-3.601,-3.601,-3.601,-3.6012,-3.6012,-3.6012,-3.6012,-3.6012,-3.6012,-3.5995,-3.5964,-3.595,-3.5935,-3.5915,-3.5922,-3.6209,-3.6281,-3.6565,-3.6718,-3.6828,-3.7011,-3.722,-3.784,-3.8515,-3.8822,-3.912,-3.952,-3.9887,-4.0294,-4.0623,-5.0092,-4.9652,-4.8831,-4.822,-4.7922,-4.8296,-4.8449,-4.864,-4.9729,-5.0302,-5.0206,-4.9939,-4.927,-4.843,-4.757,-4.671,-4.6023,-4.5526,-4.5277,-4.5277,-4.5258,-4.4819,-4.3987,-4.3195,-4.2641,-4.2087,-4.0941,-4.0358,-4.0072,-3.9403,-3.8591,-3.7693,-3.6871,-3.6099,-3.5316,-3.5182,-3.5182,-3.5182,-3.5182,-3.5182,-3.5182,-3.5185,-3.5196,-3.5185,-3.5193,-3.5182,-3.5182,-3.5182,-3.5182,-3.5182,-3.5209,-3.5242,-3.5281,-3.5323,-3.5355,-3.5404,-3.5424,-3.5451,-3.5476,-3.5507,-3.5531,-3.5582,-3.5607,-3.562,-3.5641,-3.565,-3.5674,-3.5732,-3.5749,-3.5761,-3.5801,-3.588,-3.5883,-3.5889,-3.5894,-3.5899,-3.5904,-3.596,-3.6013,-3.6013,-3.6017,-3.6019,-3.602,-3.6002,-3.6004,-3.6002,-3.6004,-3.6006,-3.6012,-3.6012,-3.6012,-3.6012,-3.6012,-3.6012,-3.6012,-3.5995,-3.598,-3.5966,-3.5953,-3.5956,-3.6074,-3.6,-3.591,-3.6117,-3.6351,-3.6261,-3.6533,-3.7193,-3.7662,-3.7856,-3.8175,-3.8612,-3.9087,-3.9524,-3.9867,-4.9532,-4.8785,-4.7995,-4.769,-4.7739,-4.7826,-4.8279,-4.897,-4.9801,-4.9993,-4.9938,-4.9289,-4.8552,-4.7597,-4.689,-4.6061,-4.5488,-4.5316,-4.5277,-4.5277,-4.5029,-4.4475,-4.3663,-4.285,-4.2029,-4.1294,-4.0616,-4.0311,-4.0024,-3.927,-3.8298,-3.759,-3.6674,-3.5855,-3.5291,-3.5185,-3.5176,-3.5176,-3.5168,-3.5157,-3.5168,-3.5162,-3.5153,-3.5162,-3.5179,-3.5176,-3.5176,-3.5176,-3.5185,-3.5185,-3.5185,-3.5185,-3.5185,-3.5193,-3.5193,-3.5209,-3.5226,-3.527,-3.534,-3.5376,-3.5417,-3.5525,-3.5544,-3.5562,-3.5554,-3.5566,-3.5588,-3.5618,-3.5644,-3.565,-3.5672,-3.5764,-3.5824,-3.5833,-3.5856,-3.5866,-3.5878,-3.5916,-3.5943,-3.5984,-3.5988,-3.6011,-3.6009,-3.6011,-3.6013,-3.6015,-3.6017,-3.602,-3.6006,-3.601,-3.6009,-3.601,-3.6012,-3.6012,-3.6012,-3.6012,-3.5995,-3.5998,-3.598,-3.5982,-3.5983,-3.5935,-3.5894,-3.5833,-3.5927,-3.5923,-3.6004,-3.6469,-3.6825,-3.6927,-3.7339,-3.7901,-3.8384,-3.8794,-3.9079,-4.8148,-4.7644,-4.7224,-4.7162,-4.744,-4.7857,-4.815,-4.8384,-4.9173,-4.9216,-4.8895,-4.87,-4.7838,-4.6938,-4.6604,-4.6012,-4.5328,-4.5184,-4.5224,-4.5072,-4.4603,-4.3791,-4.2959,-4.2108,-4.1234,-4.0616,-4.0234,-4.0157,-3.9738,-3.8699,-3.7852,-3.7309,-3.6128,-3.5242,-3.5185,-3.51,-3.5127,-3.5136,-3.5127,-3.5117,-3.5108,-3.5119,-3.511,-3.511,-3.5127,-3.5127,-3.5127,-3.5119,-3.5119,-3.5138,-3.5138,-3.5119,-3.5127,-3.5172,-3.5181,-3.5181,-3.5145,-3.5179,-3.5218,-3.5237,-3.5234,-3.5254,-3.53,-3.5348,-3.5391,-3.5451,-3.5457,-3.5531,-3.5579,-3.5588,-3.5609,-3.5636,-3.565,-3.5655,-3.5674,-3.5693,-3.5745,-3.5772,-3.5804,-3.5861,-3.5943,-3.6003,-3.5999,-3.5979,-3.5981,-3.5984,-3.5988,-3.5992,-3.6019,-3.6002,-3.6004,-3.6007,-3.6012,-3.6012,-3.6012,-3.6012,-3.6013,-3.6013,-3.5995,-3.5995,-3.5996,-3.5975,-3.5951,-3.5897,-3.5865,-3.5893,-3.5997,-3.6085,-3.6131,-3.6355,-3.6793,-3.7266,-3.7543,-3.7876,-3.8315,-4.796,-4.774,-4.7582,-4.7592,-4.7735,-4.7976,-4.8333,-4.8667,-4.8698,-4.8547,-4.814,-4.7499,-4.676,-4.6083,-4.5558,-4.5179,-4.4945,-4.4838,-4.4814,-4.46,-4.3918,-4.3061,-4.2198,-4.1331,-4.0613,-4.0089,-3.9903,-3.9711,-3.9385,-3.8271,-3.7424,-3.671,-3.5644,-3.5111,-3.5092,-3.5101,-3.5092,-3.5092,-3.5092,-3.5092,-3.5092,-3.5092,-3.5103,-3.5066,-3.5084,-3.5092,-3.5092,-3.5092,-3.5092,-3.5101,-3.5092,-3.5092,-3.5092,-3.5092,-3.512,-3.5129,-3.512,-3.5101,-3.5138,-3.5147,-3.5145,-3.5134,-3.5143,-3.5176,-3.5203,-3.5235,-3.5281,-3.534,-3.5438,-3.5457,-3.5451,-3.5488,-3.5541,-3.5546,-3.5571,-3.5604,-3.565,-3.5641,-3.5691,-3.5772,-3.5862,-3.5911,-3.5946,-3.5946,-3.5951,-3.5953,-3.5955,-3.5964,-3.5992,-3.5994,-3.5995,-3.6002,-3.6007,-3.601,-3.601,-3.601,-3.6012,-3.6012,-3.6012,-3.6012,-3.6012,-3.5992,-3.5977,-3.5951,-3.5937,-3.5915,-3.5936,-3.6014,-3.5911,-3.5841,-3.6258,-3.6614,-3.6701,-3.6962,-3.7442,-4.7854,-4.7757,-4.7863,-4.7919,-4.7969,-4.8093,-4.8341,-4.8616,-4.8149,-4.7676,-4.7267,-4.6214,-4.5584,-4.5266,-4.481,-4.4402,-4.4388,-4.4383,-4.4243,-4.3835,-4.316,-4.2323,-4.1463,-4.0651,-3.997,-3.9631,-3.9501,-3.9241,-3.8839,-3.7985,-3.711,-3.634,-3.5494,-3.5066,-3.5057,-3.5029,-3.5066,-3.5066,-3.5066,-3.5066,-3.5066,-3.5066,-3.5048,-3.4992,-3.502,-3.5047,-3.5038,-3.5038,-3.5057,-3.5057,-3.5038,-3.5047,-3.5038,-3.5011,-3.5001,-3.5038,-3.5047,-3.5066,-3.5075,-3.5075,-3.5084,-3.511,-3.5101,-3.5101,-3.511,-3.5126,-3.5127,-3.5127,-3.5193,-3.527,-3.5274,-3.5371,-3.5419,-3.5438,-3.5476,-3.5525,-3.5543,-3.556,-3.5582,-3.567,-3.578,-3.5817,-3.583,-3.5849,-3.5849,-3.5921,-3.5924,-3.5931,-3.596,-3.5962,-3.5966,-3.5995,-3.6002,-3.6007,-3.6009,-3.601,-3.601,-3.6012,-3.6012,-3.6012,-3.6012,-3.6012,-3.5996,-3.6,-3.6,-3.5971,-3.5966,-3.5966,-3.5935,-3.5918,-3.5912,-3.6045,-3.6302,-3.6435,-3.6759,-4.6979,-4.6661,-4.7074,-4.7314,-4.7565,-4.7979,-4.7718,-4.7185,-4.7114,-4.6395,-4.5508,-4.515,-4.4805,-4.4487,-4.4358,-4.4275,-4.4227,-4.3986,-4.3629,-4.3058,-4.2197,-4.1395,-4.0602,-3.9693,-3.9364,-3.9115,-3.9048,-3.8976,-3.8461,-3.7702,-3.6917,-3.6063,-3.5315,-3.4917,-3.4908,-3.4936,-3.4927,-3.4927,-3.4946,-3.4936,-3.4936,-3.4936,-3.4927,-3.4927,-3.4927,-3.4945,-3.4945,-3.4964,-3.4964,-3.4955,-3.4936,-3.4927,-3.4927,-3.4917,-3.4917,-3.4927,-3.4927,-3.4945,-3.5001,-3.5011,-3.5029,-3.5066,-3.5084,-3.5092,-3.5084,-3.5075,-3.5075,-3.5092,-3.5127,-3.5136,-3.5134,-3.5204,-3.5229,-3.525,-3.5285,-3.5348,-3.5404,-3.5418,-3.5451,-3.5489,-3.5599,-3.5655,-3.57,-3.5729,-3.5756,-3.5824,-3.5892,-3.5897,-3.5904,-3.5926,-3.5936,-3.5966,-3.6013,-3.6019,-3.602,-3.6004,-3.6007,-3.6009,-3.6009,-3.601,-3.6012,-3.6012,-3.6012,-3.6013,-3.6012,-3.6012,-3.5996,-3.5979,-3.5979,-3.5987,-3.5975,-3.5972,-3.6041,-3.6147,-3.6269,-4.7496,-4.7334,-4.7512,-4.7659,-4.77,-4.7528,-4.7192,-4.6679,-4.5897,-4.5205,-4.4582,-4.4121,-4.3856,-4.373,-4.3677,-4.3677,-4.3584,-4.318,-4.2744,-4.2081,-4.1141,-4.0283,-3.9766,-3.9068,-3.8643,-3.8689,-3.8329,-3.7797,-3.7535,-3.7113,-3.6358,-3.5221,-3.4904,-3.473,-3.4761,-3.4831,-3.4898,-3.4908,-3.4908,-3.4908,-3.4908,-3.4908,-3.4908,-3.4908,-3.4908,-3.4908,-3.4908,-3.4908,-3.4908,-3.4908,-3.4908,-3.4908,-3.4908,-3.4908,-3.4908,-3.4908,-3.4908,-3.4927,-3.4955,-3.4945,-3.4964,-3.4983,-3.4992,-3.4992,-3.4992,-3.4992,-3.4992,-3.4992,-3.4992,-3.4992,-3.5011,-3.5038,-3.5075,-3.5101,-3.5153,-3.5212,-3.5281,-3.5278,-3.5296,-3.5348,-3.5397,-3.5463,-3.5552,-3.56,-3.5641,-3.5724,-3.5768,-3.579,-3.582,-3.5869,-3.5899,-3.5936,-3.5964,-3.6011,-3.6011,-3.6013,-3.6019,-3.602,-3.6004,-3.6006,-3.601,-3.6012,-3.601,-3.601,-3.6012,-3.6012,-3.6012,-3.6013,-3.5995,-3.6013,-3.6012,-3.6012,-3.6012,-3.6034,-3.6127,-4.7348,-4.7367,-4.7607,-4.768,-4.7587,-4.6822,-4.6329,-4.5945,-4.4927,-4.4271,-4.3907,-4.3451,-4.3215,-4.3178,-4.3196,-4.3122,-4.2814,-4.2213,-4.1668,-4.096,-4.0162,-3.9471,-3.9016,-3.8457,-3.8338,-3.8457,-3.7741,-3.7121,-3.6555,-3.6061,-3.5369,-3.4253,-3.4584,-3.455,-3.4594,-3.4761,-3.4908,-3.4908,-3.4908,-3.4908,-3.4908,-3.4908,-3.4908,-3.4908,-3.4908,-3.4908,-3.4908,-3.4908,-3.4908,-3.4908,-3.4908,-3.4908,-3.4908,-3.4908,-3.4908,-3.4908,-3.4908,-3.4908,-3.4917,-3.4917,-3.4908,-3.4908,-3.4908,-3.4927,-3.4917,-3.4908,-3.4908,-3.4927,-3.4917,-3.4917,-3.4917,-3.4964,-3.5011,-3.5066,-3.5101,-3.5155,-3.5189,-3.5212,-3.5215,-3.5262,-3.5281,-3.5281,-3.5364,-3.5438,-3.5513,-3.5588,-3.5645,-3.5654,-3.5725,-3.5774,-3.5794,-3.5824,-3.588,-3.5931,-3.5938,-3.5943,-3.5977,-3.6011,-3.5994,-3.6019,-3.6004,-3.6007,-3.6007,-3.6009,-3.601,-3.6012,-3.6012,-3.6012,-3.6012,-3.6012,-3.6012,-3.6012,-3.6012,-3.6012,-3.6013,-4.5492,-4.5584,-4.6491,-4.6839,-4.6721,-4.5941,-4.5101,-4.4534,-4.4339,-4.3794,-4.3211,-4.3067,-4.3086,-4.3032,-4.2868,-4.2577,-4.1978,-4.1814,-4.0926,-4.0056,-3.9404,-3.8952,-3.8571,-3.8299,-3.8189,-3.8112,-3.7346,-3.6544,-3.5838,-3.5137,-3.4646,-3.4272,-3.4347,-3.4351,-3.442,-3.4596,-3.4772,-3.4802,-3.484,-3.486,-3.486,-3.4841,-3.487,-3.487,-3.4879,-3.4879,-3.4898,-3.4879,-3.484,-3.484,-3.485,-3.4812,-3.4782,-3.4782,-3.4782,-3.485,-3.486,-3.487,-3.4898,-3.4908,-3.4908,-3.4908,-3.4908,-3.4908,-3.4908,-3.4908,-3.4908,-3.4908,-3.4908,-3.4908,-3.4927,-3.4945,-3.4983,-3.5011,-3.5057,-3.5092,-3.5127,-3.5172,-3.5187,-3.5193,-3.519,-3.5207,-3.5223,-3.533,-3.539,-3.5477,-3.5548,-3.5585,-3.563,-3.5679,-3.566,-3.5694,-3.5768,-3.5815,-3.581,-3.5853,-3.5906,-3.5948,-3.5958,-3.5988,-3.6019,-3.602,-3.6022,-3.6004,-3.6004,-3.6009,-3.601,-3.6009,-3.6009,-3.601,-3.6012,-3.6012,-3.6012,-3.6012,-3.6012,-4.5291,-4.5291,-4.5208,-4.5408,-4.5767,-4.497,-4.4424,-4.4061,-4.3646,-4.3283,-4.2919,-4.292,-4.2685,-4.2377,-4.2195,-4.1796,-4.1035,-4.0491,-3.9912,-3.9423,-3.8933,-3.8517,-3.8227,-3.8209,-3.8209,-3.7901,-3.6979,-3.62,-3.5745,-3.457,-3.3956,-3.3808,-3.4011,-3.4036,-3.4105,-3.4286,-3.4446,-3.4553,-3.4607,-3.4668,-3.4513,-3.4628,-3.4628,-3.4469,-3.4469,-3.4469,-3.4498,-3.4639,-3.4596,-3.4556,-3.4639,-3.4607,-3.4524,-3.4483,-3.4567,-3.468,-3.472,-3.4781,-3.4889,-3.4908,-3.4908,-3.4908,-3.4908,-3.4908,-3.4908,-3.4908,-3.4908,-3.4908,-3.4908,-3.4908,-3.4917,-3.4927,-3.4936,-3.4964,-3.4992,-3.5038,-3.5065,-3.511,-3.5155,-3.5151,-3.5151,-3.5151,-3.5168,-3.5201,-3.5262,-3.5345,-3.5431,-3.5495,-3.5538,-3.5562,-3.555,-3.5562,-3.563,-3.5665,-3.5684,-3.5749,-3.585,-3.5872,-3.5889,-3.5924,-3.5953,-3.6009,-3.6011,-3.6015,-3.6019,-3.6019,-3.6022,-3.6004,-3.6006,-3.601,-3.6012,-3.6012,-3.6012,-3.6012,-3.6012,-4.4566,-4.4512,-4.3988,-4.4204,-4.4784,-4.4097,-4.3733,-4.3644,-4.3173,-4.2919,-4.2901,-4.2665,-4.2266,-4.1759,-4.1379,-4.0926,-4.0256,-3.9731,-3.9333,-3.8916,-3.8517,-3.8245,-3.8209,-3.8138,-3.8011,-3.7612,-3.6616,-3.575,-3.5279,-3.4027,-3.3589,-3.3484,-3.3549,-3.3629,-3.3753,-3.3952,-3.4111,-3.4233,-3.4328,-3.4427,-3.4239,-3.4321,-3.4409,-3.4215,-3.4215,-3.4184,-3.422,-3.4314,-3.4284,-3.4244,-3.4255,-3.4255,-3.4191,-3.4154,-3.4281,-3.4409,-3.4528,-3.4626,-3.4801,-3.4898,-3.4908,-3.4908,-3.4908,-3.4908,-3.4908,-3.4908,-3.4908,-3.4908,-3.4908,-3.4908,-3.4908,-3.4917,-3.4917,-3.4946,-3.4936,-3.4973,-3.502,-3.5047,-3.5101,-3.5127,-3.5127,-3.5127,-3.5145,-3.517,-3.5201,-3.5266,-3.5281,-3.5343,-3.5371,-3.5411,-3.5431,-3.5457,-3.5514,-3.5525,-3.5548,-3.5645,-3.5715,-3.5724,-3.5757,-3.5846,-3.5888,-3.5931,-3.5997,-3.6009,-3.6011,-3.6009,-3.6013,-3.6017,-3.6004,-3.601,-3.6012,-3.6012,-3.6012,-3.6012,-3.6012,-4.3028,-4.2955,-4.2992,-4.3407,-4.4005,-4.3281,-4.2992,-4.3028,-4.2865,-4.2774,-4.2665,-4.2067,-4.1632,-4.1343,-4.0745,-4.0111,-3.9532,-3.9278,-3.8971,-3.8427,-3.8266,-3.8192,-3.8175,-3.8086,-3.7798,-3.6997,-3.6168,-3.5395,-3.4702,-3.3819,-3.3409,-3.3307,-3.3334,-3.336,-3.3437,-3.3671,-3.3921,-3.4148,-3.4161,-3.413,-3.4068,-3.4018,-3.4031,-3.3986,-3.3917,-3.386,-3.3891,-3.3975,-3.3949,-3.3847,-3.3899,-3.3911,-3.3834,-3.3839,-3.3968,-3.4203,-3.4239,-3.442,-3.4728,-3.4831,-3.4851,-3.4898,-3.4908,-3.4908,-3.4908,-3.4908,-3.4908,-3.4908,-3.4908,-3.4908,-3.4908,-3.4908,-3.4908,-3.4908,-3.4908,-3.4917,-3.4964,-3.4973,-3.5029,-3.5075,-3.5084,-3.5092,-3.511,-3.5136,-3.517,-3.5193,-3.5182,-3.5215,-3.5251,-3.5274,-3.5311,-3.5333,-3.5383,-3.5397,-3.5418,-3.5525,-3.5593,-3.5599,-3.564,-3.5735,-3.5772,-3.5788,-3.5856,-3.5965,-3.597,-3.5916,-3.5975,-3.6011,-3.6019,-3.6004,-3.601,-3.6012,-3.6012,-3.6012,-3.6012,-4.2919,-4.2919,-4.2919,-4.3064,-4.3244,-4.3046,-4.2919,-4.2792,-4.2375,-4.2103,-4.194,-4.1252,-4.0582,-4.0202,-3.9895,-3.9351,-3.8735,-3.859,-3.8282,-3.8142,-3.807,-3.802,-3.8003,-3.7894,-3.7535,-3.6779,-3.5986,-3.5139,-3.442,-3.3622,-3.3268,-3.3165,-3.3165,-3.318,-3.3193,-3.3309,-3.3412,-3.3494,-3.3588,-3.3671,-3.3522,-3.3584,-3.3625,-3.3536,-3.3476,-3.3443,-3.349,-3.3597,-3.3579,-3.3472,-3.3528,-3.3552,-3.3443,-3.3419,-3.3532,-3.3738,-3.3787,-3.3886,-3.4165,-3.4353,-3.462,-3.4772,-3.4889,-3.4879,-3.4889,-3.4908,-3.4908,-3.4898,-3.4889,-3.4889,-3.4908,-3.4908,-3.4908,-3.4908,-3.4917,-3.4917,-3.4927,-3.4927,-3.4945,-3.4992,-3.5011,-3.502,-3.5048,-3.5084,-3.5127,-3.5153,-3.5151,-3.5185,-3.5215,-3.5215,-3.5239,-3.5239,-3.5243,-3.527,-3.5296,-3.5398,-3.5457,-3.547,-3.5537,-3.5644,-3.5674,-3.5665,-3.572,-3.5802,-3.582,-3.5833,-3.588,-3.5921,-3.5984,-3.6015,-3.6001,-3.6007,-3.6009,-3.601,-3.6012,-4.288,-4.288,-4.2862,-4.2862,-4.2862,-4.29,-4.2774,-4.2429,-4.1904,-4.156,-4.1144,-4.042,-3.9841,-3.9371,-3.8974,-3.8722,-3.8107,-3.8107,-3.809,-3.7967,-3.7985,-3.7951,-3.7862,-3.7522,-3.6945,-3.6282,-3.5473,-3.4647,-3.3854,-3.3371,-3.314,-3.3073,-3.3039,-3.3024,-3.3055,-3.3086,-3.3147,-3.322,-3.3321,-3.3321,-3.325,-3.325,-3.328,-3.3175,-3.3099,-3.3086,-3.3132,-3.3175,-3.3247,-3.3144,-3.316,-3.3232,-3.3086,-3.307,-3.316,-3.3335,-3.3556,-3.3648,-3.3873,-3.4037,-3.4295,-3.4434,-3.4653,-3.4742,-3.4742,-3.4722,-3.4771,-3.4772,-3.4802,-3.484,-3.484,-3.485,-3.4879,-3.487,-3.487,-3.487,-3.4879,-3.4879,-3.4898,-3.4917,-3.4945,-3.4945,-3.4974,-3.5011,-3.5056,-3.5101,-3.5127,-3.5143,-3.5176,-3.5185,-3.5174,-3.5182,-3.5182,-3.5207,-3.5239,-3.5274,-3.5319,-3.5333,-3.5417,-3.5514,-3.5525,-3.5523,-3.5585,-3.5641,-3.5678,-3.5736,-3.5787,-3.584,-3.59,-3.5946,-3.5966,-3.5976,-3.6006,-3.6007,-3.6007,-4.2764,-4.2727,-4.2727,-4.2635,-4.2673,-4.2494,-4.2173,-4.165,-4.1578,-4.1107,-4.0384,-3.9535,-3.9031,-3.8905,-3.8276,-3.7882,-3.7739,-3.7757,-3.7721,-3.7721,-3.7613,-3.765,-3.7381,-3.6951,-3.6235,-3.546,-3.4758,-3.4116,-3.3229,-3.3109,-3.3042,-3.2995,-3.2963,-3.293,-3.2961,-3.3026,-3.3073,-3.3086,-3.3086,-3.3099,-3.3086,-3.3039,-3.307,-3.3024,-3.3008,-3.2995,-3.3011,-3.3042,-3.2993,-3.2945,-3.293,-3.2914,-3.2916,-3.2916,-3.3024,-3.3202,-3.3486,-3.357,-3.362,-3.3742,-3.3795,-3.3918,-3.4267,-3.4363,-3.4409,-3.4435,-3.445,-3.4524,-3.4556,-3.4658,-3.4718,-3.4751,-3.4782,-3.4782,-3.4792,-3.4792,-3.4802,-3.4812,-3.485,-3.4879,-3.4879,-3.4917,-3.4927,-3.4955,-3.4983,-3.502,-3.5047,-3.5101,-3.5117,-3.516,-3.5168,-3.5185,-3.5193,-3.5182,-3.5207,-3.5231,-3.5239,-3.5278,-3.5262,-3.5338,-3.5362,-3.5405,-3.5457,-3.5512,-3.5577,-3.5635,-3.5702,-3.5745,-3.5795,-3.5833,-3.5864,-3.5958,-3.599,-3.5997,-3.602,-4.1927,-4.1542,-4.1032,-4.0824,-4.0736,-4.0288,-4.0279,-4.0598,-4.013,-3.968,-3.9464,-3.8635,-3.8133,-3.7753,-3.7484,-3.7208,-3.702,-3.6904,-3.6845,-3.6847,-3.6874,-3.6631,-3.6335,-3.5986,-3.5332,-3.4741,-3.4163,-3.3681,-3.3142,-3.2979,-3.2979,-3.2916,-3.2916,-3.29,-3.2898,-3.293,-3.2963,-3.2979,-3.2979,-3.2979,-3.2979,-3.2948,-3.2945,-3.2945,-3.2963,-3.2932,-3.2932,-3.2948,-3.2916,-3.2916,-3.29,-3.29,-3.29,-3.29,-3.2945,-3.2961,-3.3083,-3.3129,-3.3157,-3.3302,-3.339,-3.3375,-3.3675,-3.3923,-3.3999,-3.4056,-3.4105,-3.4196,-3.4244,-3.4302,-3.4367,-3.4416,-3.4472,-3.4494,-3.4494,-3.4534,-3.4564,-3.4618,-3.4649,-3.468,-3.4703,-3.4802,-3.484,-3.4879,-3.4889,-3.4927,-3.4964,-3.502,-3.5084,-3.5108,-3.5153,-3.517,-3.5179,-3.516,-3.5193,-3.5198,-3.519,-3.519,-3.5209,-3.5209,-3.5254,-3.5304,-3.5355,-3.5398,-3.547,-3.5537,-3.5629,-3.565,-3.5655,-3.5713,-3.5756,-3.5872,-3.5948,-3.5977,-3.6009,-4.0499,-4.0147,-3.9712,-3.9342,-3.8977,-3.8538,-3.8523,-3.8644,-3.8581,-3.8424,-3.8032,-3.7532,-3.7151,-3.6958,-3.6805,-3.6649,-3.6446,-3.6429,-3.6287,-3.594,-3.5866,-3.5548,-3.5246,-3.4761,-3.432,-3.3846,-3.3522,-3.3147,-3.2907,-3.29,-3.29,-3.29,-3.29,-3.29,-3.2916,-3.2898,-3.2898,-3.2916,-3.2916,-3.29,-3.29,-3.29,-3.29,-3.29,-3.29,-3.29,-3.29,-3.29,-3.29,-3.29,-3.29,-3.29,-3.29,-3.29,-3.29,-3.2914,-3.293,-3.2945,-3.2977,-3.3021,-3.3008,-3.3008,-3.3162,-3.3321,-3.3532,-3.3639,-3.3752,-3.3831,-3.3878,-3.3911,-3.3962,-3.4018,-3.4068,-3.4136,-3.4179,-3.4221,-3.4281,-3.4363,-3.4409,-3.4443,-3.4531,-3.4639,-3.4701,-3.4742,-3.4812,-3.4898,-3.4927,-3.4945,-3.5011,-3.5056,-3.511,-3.5147,-3.5136,-3.5136,-3.5151,-3.5176,-3.5196,-3.5185,-3.5182,-3.5201,-3.5182,-3.5207,-3.5258,-3.5319,-3.5376,-3.5438,-3.5451,-3.5501,-3.5523,-3.5576,-3.5631,-3.5724,-3.5813,-3.5889,-3.5943,-3.8703,-3.8654,-3.8616,-3.81,-3.7469,-3.724,-3.6836,-3.6293,-3.7092,-3.7127,-3.6612,-3.6481,-3.6422,-3.6305,-3.608,-3.5907,-3.5621,-3.551,-3.5116,-3.4977,-3.4816,-3.4486,-3.3864,-3.3287,-3.3215,-3.3053,-3.2827,-3.2579,-3.2792,-3.2786,-3.277,-3.2866,-3.29,-3.29,-3.29,-3.29,-3.29,-3.29,-3.29,-3.29,-3.29,-3.29,-3.29,-3.29,-3.29,-3.29,-3.29,-3.29,-3.29,-3.29,-3.29,-3.29,-3.29,-3.29,-3.29,-3.29,-3.29,-3.29,-3.29,-3.293,-3.2914,-3.2916,-3.2916,-3.2993,-3.3175,-3.3306,-3.3408,-3.3465,-3.3504,-3.3528,-3.357,-3.3652,-3.372,-3.3747,-3.3778,-3.381,-3.385,-3.3992,-3.4166,-3.4227,-3.434,-3.4454,-3.4539,-3.4575,-3.471,-3.4821,-3.4908,-3.4898,-3.4936,-3.5001,-3.5038,-3.5103,-3.5084,-3.5092,-3.5138,-3.5164,-3.5172,-3.5189,-3.5168,-3.5185,-3.5176,-3.5193,-3.5182,-3.5246,-3.5308,-3.5254,-3.5258,-3.5321,-3.5405,-3.5451,-3.5512,-3.5571,-3.5665,-3.5772,-3.5837,-3.7835,-3.7457,-3.6904,-3.6443,-3.6055,-3.566,-3.5638,-3.5722,-3.5582,-3.5863,-3.619,-3.6197,-3.6011,-3.5684,-3.5108,-3.4791,-3.4438,-3.4184,-3.3544,-3.3424,-3.3412,-3.3241,-3.2747,-3.242,-3.2295,-3.2112,-3.1965,-3.2074,-3.2335,-3.2471,-3.2605,-3.2816,-3.285,-3.2834,-3.2793,-3.2811,-3.29,-3.29,-3.29,-3.29,-3.29,-3.29,-3.29,-3.29,-3.29,-3.29,-3.29,-3.29,-3.29,-3.29,-3.29,-3.29,-3.29,-3.29,-3.29,-3.29,-3.29,-3.29,-3.29,-3.29,-3.29,-3.29,-3.29,-3.29,-3.2963,-3.3026,-3.3088,-3.3117,-3.3147,-3.3193,-3.3235,-3.3302,-3.3361,-3.3375,-3.3408,-3.3422,-3.3422,-3.3662,-3.3902,-3.4036,-3.4136,-3.424,-3.4311,-3.4439,-3.4583,-3.472,-3.4831,-3.4879,-3.4898,-3.4927,-3.4964,-3.5011,-3.5039,-3.5048,-3.5075,-3.5111,-3.5129,-3.5138,-3.5127,-3.5153,-3.5189,-3.5187,-3.5176,-3.5174,-3.5198,-3.5182,-3.5182,-3.5207,-3.5274,-3.5336,-3.5391,-3.5445,-3.5525,-3.5626,-3.5687,-3.6367,-3.6059,-3.5678,-3.5431,-3.5268,-3.5001,-3.5031,-3.5128,-3.4652,-3.467,-3.5069,-3.5113,-3.4997,-3.4712,-3.4035,-3.365,-3.3271,-3.2934,-3.2658,-3.2376,-3.2155,-3.1891,-3.1663,-3.1532,-3.1526,-3.1408,-3.1638,-3.1841,-3.1897,-3.2004,-3.2144,-3.2168,-3.2286,-3.2527,-3.2481,-3.2616,-3.285,-3.29,-3.285,-3.2834,-3.2834,-3.2866,-3.29,-3.29,-3.29,-3.29,-3.29,-3.29,-3.29,-3.29,-3.29,-3.29,-3.29,-3.29,-3.29,-3.29,-3.29,-3.29,-3.29,-3.29,-3.29,-3.29,-3.29,-3.29,-3.29,-3.2979,-3.2979,-3.2993,-3.2993,-3.3039,-3.3055,-3.3114,-3.3144,-3.3178,-3.3223,-3.3268,-3.3313,-3.3444,-3.3601,-3.3684,-3.378,-3.3842,-3.3934,-3.4049,-3.4233,-3.4443,-3.4599,-3.4752,-3.4791,-3.4889,-3.4917,-3.4945,-3.4974,-3.4974,-3.4983,-3.502,-3.5066,-3.5066,-3.5075,-3.512,-3.5147,-3.5153,-3.517,-3.5168,-3.5176,-3.5193,-3.5193,-3.5193,-3.519,-3.5258,-3.5296,-3.5326,-3.5405,-3.5483,-3.5529,-3.4973,-3.4899,-3.4916,-3.4923,-3.4923,-3.4899,-3.484,-3.4658,-3.4087,-3.374,-3.3682,-3.3599,-3.3557,-3.3415,-3.2934,-3.2718,-3.2431,-3.2133,-3.1851,-3.1598,-3.1444,-3.1194,-3.0874,-3.0593,-3.0753,-3.0978,-3.1201,-3.1187,-3.1148,-3.1186,-3.1126,-3.1046,-3.1392,-3.1878,-3.1861,-3.2191,-3.2554,-3.2504,-3.2504,-3.2605,-3.2721,-3.2834,-3.2866,-3.29,-3.29,-3.29,-3.29,-3.29,-3.29,-3.29,-3.29,-3.29,-3.29,-3.29,-3.29,-3.29,-3.29,-3.29,-3.29,-3.29,-3.29,-3.29,-3.29,-3.29,-3.29,-3.29,-3.29,-3.29,-3.29,-3.2916,-3.2914,-3.293,-3.2979,-3.3013,-3.3057,-3.3119,-3.3198,-3.3244,-3.3319,-3.3393,-3.3448,-3.3516,-3.3615,-3.3707,-3.3908,-3.413,-3.4351,-3.4506,-3.4666,-3.4811,-3.4917,-3.4927,-3.4927,-3.4927,-3.4917,-3.4945,-3.5001,-3.5001,-3.5011,-3.5057,-3.5111,-3.511,-3.5136,-3.5164,-3.5162,-3.517,-3.5187,-3.5196,-3.5201,-3.5218,-3.5231,-3.527,-3.5285,-3.5348,-3.5376,-3.4899,-3.4899,-3.4899,-3.4883,-3.4866,-3.4866,-3.4568,-3.4038,-3.3839,-3.3475,-3.2839,-3.231,-3.2299,-3.2868,-3.215,-3.1797,-3.167,-3.1378,-3.0993,-3.0669,-3.0764,-3.0582,-3.045,-3.0338,-3.0316,-3.0435,-3.0484,-3.0279,-3.0236,-3.0147,-2.9914,-2.9644,-3.0331,-3.0695,-3.0765,-3.1252,-3.186,-3.1878,-3.186,-3.186,-3.2039,-3.2317,-3.2834,-3.29,-3.29,-3.29,-3.29,-3.29,-3.29,-3.29,-3.29,-3.29,-3.29,-3.29,-3.29,-3.29,-3.29,-3.29,-3.29,-3.29,-3.29,-3.29,-3.29,-3.29,-3.29,-3.29,-3.29,-3.29,-3.29,-3.29,-3.2898,-3.2898,-3.2932,-3.2932,-3.2979,-3.3011,-3.3075,-3.3091,-3.3137,-3.318,-3.3241,-3.3301,-3.3393,-3.3502,-3.368,-3.3928,-3.4269,-3.4409,-3.4473,-3.466,-3.4898,-3.4889,-3.4889,-3.4908,-3.4908,-3.4917,-3.4936,-3.4936,-3.4945,-3.4992,-3.5039,-3.5094,-3.512,-3.5101,-3.511,-3.5119,-3.5136,-3.5162,-3.5198,-3.5196,-3.5201,-3.5198,-3.5198,-3.5223,-3.5258]},{"header":{"parameterUnit":"m.s-1","parameterCategory":1,"la1":31.0,"la2":29.5877,"lo1":-88.7671,"lo2":-86.6584,"dy":0.0162,"dx":0.0185,"nx":115,"ny":88,"refTime":"2023-07-26T06:00:00:Z","depth":0,"parameterNumber":3,"parameterNumberName":"V-component_of_WINDS"},"data":[0.0,0.0,0.0,0.0,0.0,0.0,0.0,0.0,0.0,0.0,0.0,0.0,0.0,0.0,0.0,0.0,0.0,0.0,0.0,0.0,0.0,0.0,0.0,0.0,0.0,0.0,0.0,0.0,0.0,0.0,0.0,0.0,0.0,0.0,0.0,0.0,0.0,0.0,0.0,0.0,0.0,0.0,0.0,0.0,0.0,0.0,0.0,0.0,0.0,0.0,0.0,0.0,0.0,0.0,0.0,0.0,0.0,0.0,0.0,0.0,0.0,0.0,0.0,0.0,0.0,0.0,0.0,0.0,0.0,0.0,0.0,0.0,0.0,0.0,0.0,0.0,0.0,0.0,0.0,0.0,0.0,0.0,0.0,0.0,0.0,0.0,0.0,0.0,0.0,0.0,0.0,0.0,0.0,0.0,0.0,0.0,0.0,0.0,0.0,0.0,0.0,0.0,0.0,0.0,0.0,0.0,0.0,0.0,0.0,0.0,0.0,0.0,0.0,0.0,0.0,0.0,0.0,0.0,0.0,0.0,0.0,0.0,0.0,0.0,0.0,0.0,0.0,0.0,0.0,0.0,0.0,0.0,0.0,0.0,0.0,0.0,0.0,0.0,0.0,0.0,0.0,0.0,0.0,0.0,0.0,0.0,0.0,0.0,0.0,0.0,0.0,0.0,0.0,0.0,0.0,0.0,0.0,0.0,0.0,0.0,0.0,0.0,0.0,0.0,0.0,0.0,0.0,0.0,0.0,0.0,0.0,0.0,0.0,0.0,0.0,0.0,0.0,0.0,0.0,0.0,0.0,0.0,0.0,0.0,0.0,0.0,0.0,0.0,0.0,0.0,0.0,0.0,0.0,0.0,0.0,0.0,0.0,0.0,0.0,0.0,0.0,0.0,0.0,0.0,0.0,0.0,0.0,0.0,0.0,0.0,0.0,0.0,0.0,0.0,0.0,0.0,0.0,0.0,0.0,0.0,0.0,0.0,0.0,0.0,0.0,0.0,0.0,0.0,0.0,0.0,0.0,0.0,0.0,0.0,0.0,0.0,0.0,0.0,0.0,0.0,0.0,0.0,0.0,0.0,0.0,0.0,0.0,0.0,0.0,0.0,0.0,0.0,0.0,0.0,0.0,0.0,0.0,0.0,0.0,0.0,0.0,0.0,0.0,0.0,0.0,0.0,0.0,0.0,0.0,0.0,0.0,0.0,0.0,0.0,0.0,0.0,0.0,0.0,0.0,0.0,0.0,0.0,0.0,0.0,0.0,0.0,0.0,0.0,0.0,0.0,0.0,0.0,0.0,0.0,0.0,0.0,0.0,0.0,0.0,0.0,0.0,0.0,0.0,0.0,0.0,0.0,0.0,0.0,0.0,0.0,0.0,0.0,0.0,0.0,0.0,0.0,0.0,0.0,0.0,0.0,0.0,0.0,0.0,0.0,0.0,0.0,0.0,0.0,0.0,0.0,0.0,0.0,0.0,0.0,0.0,0.0,0.0,0.0,0.0,0.0,0.0,0.0,0.0,0.0,0.0,0.0,0.0,0.0,0.0,0.0,0.0,0.0,0.0,0.0,0.0,0.0,0.0,0.0,0.0,0.0,0.0,0.0,0.0,0.0,0.0,0.0,0.0,0.0,0.0,0.0,0.0,0.0,0.0,0.0,0.0,0.0,0.0,0.0,0.0,0.0,0.0,0.0,0.0,0.0,0.0,0.0,0.0,0.0,0.0,0.0,0.0,0.0,0.0,0.0,0.0,0.0,0.0,0.0,0.0,0.0,0.0,0.0,0.0,0.0,0.0,0.0,0.0,0.0,0.0,0.0,0.0,0.0,0.0,0.0,0.0,0.0,0.0,0.0,0.0,0.0,0.0,0.0,0.0,0.0,0.0,0.0,0.0,0.0,0.0,0.0,0.0,0.0,0.0,0.0,0.0,0.0,0.0,0.0,0.0,0.0,0.0,0.0,0.0,0.0,0.0,0.0,0.0,0.0,0.0,0.0,0.0,0.0,0.0,0.0,0.0,0.0,0.0,0.0,0.0,0.0,0.0,0.0,0.0,0.0,0.0,0.0,0.0,0.0,0.0,0.0,0.0,0.0,0.0,0.0,0.0,0.0,0.0,0.0,0.0,0.0,0.0,0.0,0.0,0.0,0.0,0.0,0.0,0.0,0.0,0.0,0.0,0.0,0.0,0.0,0.0,0.0,0.0,0.0,0.0,0.0,0.0,0.0,0.0,0.0,0.0,0.0,0.0,0.0,0.0,0.0,0.0,0.0,0.0,0.0,0.0,0.0,0.0,0.0,0.0,0.0,0.0,0.0,0.0,0.0,0.0,0.0,0.0,0.0,0.0,0.0,0.0,0.0,0.0,0.0,0.0,0.0,0.0,0.0,0.0,0.0,0.0,0.0,0.0,0.0,0.0,0.0,0.0,0.0,0.0,0.0,0.0,0.0,0.0,0.0,0.0,0.0,0.0,0.0,0.0,0.0,0.0,0.0,0.0,0.0,0.0,0.0,0.0,0.0,0.0,0.0,0.0,0.0,0.0,0.0,0.0,0.0,0.0,0.0,0.0,0.0,0.0,0.0,0.0,0.0,0.0,0.0,0.0,0.0,0.0,0.0,0.0,0.0,0.0,0.0,0.0,0.0,0.0,0.0,0.0,0.0,0.0,0.0,0.0,0.0,0.0,0.0,0.0,0.0,0.0,0.0,0.0,0.0,0.0,0.0,0.0,0.0,0.0,0.0,0.0,0.0,0.0,0.0,0.0,0.0,0.0,0.0,0.0,0.0,0.0,0.0,0.0,0.0,0.0,0.0,0.0,0.0,0.0,0.0,0.0,0.0,0.0,0.0,0.0,0.0,0.0,0.0,0.0,0.0,0.0,0.0,0.0,0.0,0.0,0.0,0.0,0.0,0.0,0.0,0.0,0.0,0.0,0.0,0.0,0.0,0.0,0.0,0.0,0.0,0.0,0.0,0.0,0.0,0.0,0.0,0.0,0.0,0.0,0.0,0.0,0.0,0.0,0.0,0.0,0.0,0.0,0.0,0.0,0.0,0.0,0.0,0.0,0.0,0.0,0.0,0.0,0.0,0.0,0.0,0.0,0.0,0.0,0.0,0.0,0.0,0.0,0.0,0.0,0.0,0.0,0.0,0.0,0.0,0.0,0.0,0.0,0.0,0.0,0.0,0.0,0.0,0.0,0.0,0.0,0.0,0.0,0.0,0.0,0.0,0.0,0.0,0.0,0.0,0.0,0.0,0.0,0.0,0.0,0.0,0.0,0.0,0.0,0.0,0.0,0.0,0.0,0.0,0.0,0.0,0.0,0.0,0.0,0.0,0.0,0.0,0.0,0.0,0.0,0.0,0.0,0.0,0.0,0.0,0.0,0.0,0.0,0.0,0.0,0.0,0.0,0.0,0.0,0.0,0.0,0.0,0.0,0.0,0.0,0.0,0.0,0.0,0.0,0.0,0.0,0.0,0.0,0.0,0.0,0.0,0.0,0.0,0.0,0.0,0.0,0.0,0.0,0.0,0.0,0.0,0.0,0.0,0.0,0.0,0.0,0.0,0.0,0.0,0.0,0.0,0.0,0.0,0.0,0.0,0.0,0.0,0.0,0.0,0.0,0.0,0.0,0.0,0.0,0.0,0.0,0.0,0.0,0.0,0.0,0.0,0.0,0.0,0.0,0.0,0.0,0.0,0.0,0.0,0.0,0.0,0.0,0.0,0.0,0.0,0.0,0.0,0.0,0.0,0.0,0.0,0.0,0.0,0.0,0.0,0.0,0.0,0.0,0.0,0.0,0.0,0.0,0.0,0.0,0.0,0.0,0.0,0.0,0.0,0.0,0.0,0.0,0.0,0.0,0.0,0.0,0.0,0.0,0.0,0.0,0.0,0.0,0.0,0.0,0.0,0.0,0.0,0.0,0.0,0.0,0.0,0.0,0.0,0.0,0.0,0.0,0.0,0.0,0.0,0.0,0.0,0.0,0.0,0.0,0.0,0.0,0.0,0.0,0.0,0.0,0.0,0.0,0.0,0.0,0.0,0.0,0.0,0.0,0.0,0.0,0.0,0.0,0.0,0.0,0.0,0.0,0.0,0.0,0.0,0.0,0.0,0.0,0.0,0.0,0.0,0.0,0.0,0.0,0.0,0.0,0.0,0.0,0.0,0.0,0.0,0.0,0.0,0.0,0.0,0.0,0.0,0.0,0.0,0.0,0.0,0.0,0.0,0.0,0.0,0.0,0.0,0.0,0.0,0.0,0.0,0.0,0.0,0.0,0.0,-0.6753,0.0,0.0,0.0,0.0,0.0,0.0,0.0,0.0,0.0,0.0,0.0,0.0,0.0,0.0,0.0,0.0,0.0,0.0,0.0,0.0,0.0,0.0,0.0,0.0,0.0,0.0,0.0,0.0,0.0,0.0,0.0,0.0,0.0,0.0,0.0,0.0,0.0,0.0,0.0,0.0,0.0,0.0,0.0,0.0,0.0,0.0,0.0,0.0,0.0,0.0,0.0,0.0,0.0,0.0,0.0,0.0,0.0,0.0,0.0,0.0,0.0,0.0,0.0,0.0,0.0,0.0,0.0,0.0,0.0,0.0,0.0,0.0,0.0,0.0,0.0,0.0,0.0,0.0,0.0,0.0,0.0,0.0,0.0,0.0,0.0,0.0,0.0,0.0,0.0,0.0,0.0,0.0,0.0,0.0,0.0,0.0,0.0,0.0,0.0,0.0,0.0,0.0,0.0,0.0,0.0,0.0,0.0,0.0,0.0,0.0,-0.678,-0.6481,-0.6902,-0.6883,-0.6528,0.0,0.0,0.0,0.0,0.0,0.0,0.0,0.0,0.0,0.0,0.0,0.0,0.0,0.0,0.0,0.0,0.0,0.0,0.0,0.0,0.0,0.0,0.0,0.0,0.0,0.0,0.0,0.0,0.0,0.0,0.0,0.0,0.0,0.0,0.0,0.0,0.0,0.0,0.0,0.0,0.0,0.0,0.0,0.0,0.0,0.0,0.0,0.0,0.0,0.0,0.0,0.0,0.0,0.0,0.0,0.0,0.0,0.0,0.0,0.0,0.0,0.0,0.0,0.0,0.0,0.0,0.0,0.0,0.0,0.0,0.0,0.0,0.0,0.0,0.0,0.0,0.0,0.0,0.0,0.0,0.0,0.0,0.0,0.0,0.0,0.0,0.0,0.0,0.0,0.0,0.0,0.0,0.0,0.0,0.0,0.0,0.0,0.0,0.0,0.0,0.0,0.0,0.0,0.0,0.0,0.0,0.0,0.0,0.0,0.0,0.0,0.0,-0.6749,-0.6776,-0.6375,0.0,0.0,0.0,0.0,0.0,0.0,0.0,0.0,0.0,0.0,0.0,0.0,0.0,0.0,0.0,0.0,0.0,0.0,0.0,0.0,0.0,0.0,0.0,0.0,0.0,0.0,0.0,0.0,0.0,0.0,0.0,0.0,0.0,0.0,0.0,0.0,0.0,0.0,0.0,0.0,0.0,0.0,0.0,0.0,0.0,0.0,0.0,0.0,0.0,0.0,0.0,0.0,0.0,0.0,0.0,0.0,0.0,0.0,0.0,0.0,0.0,0.0,0.0,0.0,0.0,0.0,0.0,0.0,0.0,0.0,0.0,0.0,0.0,0.0,0.0,0.0,0.0,0.0,0.0,0.0,0.0,0.0,0.0,0.0,0.0,0.0,0.0,0.0,0.0,0.0,0.0,0.0,0.0,0.0,0.0,0.0,0.0,0.0,0.0,0.0,0.0,0.0,0.0,0.0,0.0,0.0,0.0,0.0,0.0,0.0,-0.6402,-0.6491,-0.6545,0.0,-0.6487,0.0,0.0,0.0,0.0,0.0,0.0,0.0,0.0,0.0,0.0,0.0,0.0,0.0,0.0,0.0,0.0,0.0,0.0,0.0,0.0,0.0,0.0,0.0,0.0,0.0,0.0,0.0,0.0,0.0,0.0,0.0,0.0,0.0,0.0,0.0,0.0,0.0,0.0,0.0,0.0,0.0,0.0,0.0,0.0,0.0,0.0,0.0,0.0,0.0,0.0,0.0,0.0,0.0,0.0,0.0,0.0,0.0,0.0,0.0,0.0,0.0,0.0,0.0,0.0,0.0,0.0,0.0,0.0,0.0,0.0,0.0,0.0,0.0,0.0,0.0,0.0,0.0,0.0,0.0,0.0,0.0,0.0,0.0,0.0,0.0,0.0,0.0,0.0,0.0,0.0,0.0,0.0,0.0,0.0,0.0,0.0,0.0,0.0,0.0,0.0,0.0,0.0,0.0,0.0,0.0,0.0,0.0,0.0,0.0,0.0,-0.6368,-0.6508,-0.6515,-0.647,0.0,0.0,0.0,0.0,0.0,0.0,0.0,0.0,0.0,0.0,0.0,0.0,0.0,0.0,0.0,0.0,0.0,0.0,0.0,0.0,0.0,0.0,0.0,0.0,0.0,0.0,0.0,0.0,0.0,0.0,0.0,0.0,0.0,0.0,0.0,0.0,0.0,0.0,0.0,0.0,0.0,0.0,0.0,0.0,0.0,0.0,0.0,0.0,0.0,0.0,0.0,0.0,0.0,0.0,0.0,0.0,0.0,0.0,0.0,0.0,0.0,0.0,0.0,0.0,0.0,0.0,0.0,0.0,0.0,0.0,0.0,0.0,0.0,0.0,0.0,0.0,0.0,0.0,0.0,0.0,0.0,0.0,0.0,0.0,0.0,0.0,0.0,0.0,0.0,0.0,0.0,0.0,0.0,0.0,0.0,0.0,0.0,0.0,0.0,0.0,0.0,0.0,0.0,0.0,0.0,0.0,0.0,0.0,0.0,0.0,-0.6381,-0.6429,-0.6522,-0.6497,-0.6422,-0.6358,0.0,0.0,0.0,0.0,0.0,0.0,0.0,0.0,0.0,0.0,0.0,0.0,0.0,0.0,0.0,0.0,0.0,0.0,0.0,0.0,0.0,0.0,0.0,0.0,0.0,0.0,0.0,0.0,0.0,0.0,0.0,0.0,0.0,0.0,0.0,0.0,0.0,0.0,0.0,0.0,0.0,0.0,0.0,0.0,0.0,0.0,0.0,0.0,0.0,0.0,0.0,0.0,0.0,0.0,0.0,0.0,0.0,0.0,0.0,0.0,0.0,0.0,0.0,0.0,0.0,0.0,0.0,0.0,0.0,0.0,0.0,0.0,0.0,0.0,0.0,0.0,0.0,0.0,0.0,0.0,0.0,0.0,0.0,0.0,0.0,0.0,0.0,0.0,0.0,0.0,0.0,0.0,0.0,0.0,0.0,0.0,0.0,0.0,0.0,0.0,0.0,0.0,0.0,0.0,0.0,0.0,0.0,0.0,-0.6654,-0.6536,-0.6536,-0.6675,-0.646,-0.6371,0.0,0.0,0.0,0.0,0.0,0.0,0.0,0.0,0.0,0.0,0.0,0.0,0.0,0.0,0.0,0.0,0.0,0.0,0.0,0.0,0.0,0.0,0.0,0.0,0.0,0.0,0.0,0.0,0.0,0.0,0.0,0.0,0.0,0.0,0.0,0.0,0.0,0.0,0.0,0.0,0.0,0.0,0.0,0.0,0.0,0.0,0.0,0.0,0.0,0.0,0.0,0.0,0.0,0.0,0.0,0.0,0.0,0.0,0.0,0.0,0.0,0.0,0.0,0.0,0.0,0.0,0.0,0.0,0.0,0.0,0.0,0.0,0.0,0.0,0.0,0.0,0.0,0.0,0.0,0.0,0.0,0.0,0.0,0.0,0.0,0.0,0.0,0.0,0.0,0.0,0.0,0.0,0.0,0.0,0.0,0.0,0.0,0.0,0.0,0.0,0.0,0.0,0.0,0.0,0.0,0.0,0.0,0.0,0.0,-0.646,-0.6549,-0.6637,-0.6596,-0.6542,-0.6519,0.0,0.0,0.0,0.0,0.0,0.0,0.0,0.0,0.0,0.0,0.0,0.0,0.0,0.0,0.0,0.0,0.0,0.0,0.0,0.0,0.0,0.0,0.0,0.0,0.0,0.0,0.0,0.0,0.0,0.0,0.0,0.0,0.0,0.0,0.0,0.0,0.0,0.0,0.0,0.0,0.0,0.0,0.0,0.0,0.0,0.0,0.0,0.0,0.0,0.0,0.0,0.0,0.0,0.0,0.0,0.0,0.0,0.0,0.0,0.0,0.0,0.0,0.0,0.0,0.0,0.0,0.0,0.0,0.0,0.0,0.0,0.0,0.0,0.0,0.0,0.0,0.0,0.0,0.0,0.0,0.0,0.0,0.0,0.0,0.0,0.0,0.0,0.0,0.0,0.0,0.0,0.0,0.0,0.0,0.0,0.0,0.0,0.0,0.0,0.0,0.0,0.0,0.0,0.0,0.0,0.0,0.0,0.0,0.0,-0.6446,0.0,-0.6725,-0.6627,-0.662,-0.658,0.0,0.0,0.0,0.0,0.0,0.0,0.0,0.0,0.0,0.0,0.0,0.0,0.0,0.0,0.0,0.0,0.0,0.0,0.0,0.0,0.0,0.0,0.0,0.0,0.0,0.0,0.0,0.0,0.0,0.0,0.0,0.0,0.0,0.0,0.0,0.0,0.0,0.0,0.0,0.0,0.0,0.0,0.0,0.0,0.0,0.0,0.0,0.0,0.0,0.0,0.0,0.0,0.0,0.0,0.0,0.0,0.0,0.0,0.0,0.0,0.0,0.0,0.0,0.0,0.0,0.0,0.0,0.0,0.0,0.0,0.0,0.0,0.0,0.0,0.0,0.0,0.0,0.0,0.0,0.0,0.0,0.0,0.0,0.0,0.0,0.0,0.0,0.0,0.0,0.0,0.0,0.0,0.0,0.0,0.0,0.0,0.0,0.0,0.0,0.0,0.0,0.0,0.0,0.0,0.0,0.0,0.0,0.0,-0.6443,-0.6681,-0.6837,-0.6873,-0.6919,-0.6641,-0.6481,0.0,0.0,0.0,0.0,0.0,0.0,0.0,0.0,0.0,0.0,0.0,0.0,0.0,0.0,0.0,0.0,0.0,0.0,0.0,0.0,0.0,0.0,0.0,0.0,0.0,0.0,0.0,0.0,0.0,0.0,0.0,0.0,0.0,0.0,0.0,0.0,0.0,0.0,0.0,0.0,0.0,0.0,0.0,0.0,0.0,0.0,0.0,0.0,0.0,0.0,0.0,0.0,0.0,0.0,0.0,0.0,0.0,0.0,0.0,0.0,0.0,0.0,0.0,0.0,0.0,0.0,0.0,0.0,0.0,0.0,0.0,0.0,0.0,0.0,0.0,0.0,0.0,0.0,0.0,0.0,0.0,0.0,0.0,0.0,0.0,0.0,0.0,0.0,0.0,0.0,0.0,0.0,0.0,0.0,0.0,0.0,0.0,0.0,0.0,0.0,0.0,0.0,0.0,0.0,0.0,0.0,0.0,0.0,0.0,-0.6549,-0.6797,-0.6886,-0.6879,-0.6736,-0.663,0.0,0.0,0.0,0.0,0.0,0.0,0.0,0.0,0.0,0.0,0.0,0.0,0.0,0.0,0.0,0.0,0.0,0.0,0.0,0.0,0.0,0.0,0.0,0.0,0.0,0.0,0.0,0.0,0.0,0.0,0.0,0.0,0.0,0.0,0.0,0.0,0.0,0.0,0.0,0.0,0.0,0.0,0.0,0.0,0.0,0.0,0.0,0.0,0.0,0.0,0.0,0.0,0.0,0.0,0.0,0.0,0.0,0.0,0.0,0.0,0.0,0.0,0.0,0.0,0.0,0.0,0.0,0.0,0.0,0.0,0.0,0.0,0.0,0.0,0.0,0.0,0.0,0.0,0.0,0.0,0.0,0.0,0.0,0.0,0.0,0.0,0.0,0.0,0.0,0.0,0.0,0.0,0.0,0.0,0.0,0.0,0.0,0.0,0.0,0.0,0.0,0.0,0.0,0.0,0.0,0.0,0.0,0.0,0.0,-0.6651,-0.6881,-0.6964,-0.6967,-0.681,-0.6702,-0.6695,0.0,0.0,0.0,0.0,0.0,0.0,0.0,0.0,0.0,0.0,0.0,0.0,0.0,0.0,0.0,0.0,0.0,0.0,0.0,0.0,0.0,0.0,0.0,0.0,0.0,0.0,0.0,0.0,0.0,0.0,0.0,0.0,0.0,0.0,0.0,0.0,0.0,0.0,0.0,0.0,0.0,0.0,0.0,0.0,0.0,0.0,0.0,0.0,0.0,0.0,0.0,0.0,0.0,0.0,0.0,0.0,0.0,0.0,0.0,0.0,0.0,0.0,0.0,0.0,0.0,0.0,0.0,0.0,0.0,0.0,0.0,0.0,0.0,0.0,0.0,0.0,0.0,0.0,0.0,0.0,0.0,0.0,0.0,0.0,0.0,0.0,0.0,0.0,0.0,0.0,0.0,0.0,0.0,0.0,0.0,0.0,0.0,0.0,0.0,0.0,0.0,0.0,0.0,0.0,0.0,0.0,0.0,0.0,-0.6883,-0.7024,-0.7095,-0.7088,-0.6854,-0.6702,0.0,0.0,0.0,0.0,0.0,0.0,0.0,0.0,0.0,0.0,0.0,0.0,0.0,0.0,0.0,0.0,0.0,0.0,0.0,0.0,0.0,0.0,0.0,0.0,0.0,0.0,0.0,0.0,0.0,0.0,0.0,0.0,0.0,0.0,0.0,0.0,0.0,0.0,0.0,0.0,0.0,0.0,0.0,0.0,0.0,0.0,0.0,0.0,0.0,0.0,0.0,0.0,0.0,0.0,0.0,0.0,0.0,0.0,0.0,0.0,0.0,0.0,0.0,0.0,0.0,0.0,0.0,0.0,0.0,0.0,0.0,0.0,0.0,0.0,0.0,0.0,0.0,0.0,0.0,0.0,0.0,0.0,0.0,0.0,0.0,0.0,0.0,0.0,0.0,0.0,0.0,0.0,0.0,0.0,0.0,0.0,0.0,0.0,0.0,0.0,0.0,0.0,0.0,0.0,0.0,0.0,0.0,0.0,0.0,-0.6883,-0.7024,-0.7095,-0.7088,-0.6858,-0.6702,0.0,0.0,0.0,0.0,0.0,0.0,0.0,0.0,0.0,0.0,0.0,0.0,0.0,0.0,0.0,0.0,0.0,0.0,0.0,0.0,0.0,0.0,0.0,0.0,0.0,0.0,0.0,0.0,0.0,0.0,0.0,0.0,0.0,0.0,0.0,0.0,0.0,0.0,0.0,0.0,0.0,0.0,0.0,0.0,0.0,0.0,0.0,0.0,0.0,0.0,0.0,0.0,0.0,0.0,0.0,0.0,0.0,0.0,0.0,0.0,0.0,0.0,0.0,0.0,0.0,0.0,0.0,0.0,0.0,0.0,0.0,0.0,0.0,0.0,0.0,0.0,0.0,0.0,0.0,0.0,0.0,0.0,0.0,0.0,0.0,0.0,0.0,0.0,0.0,0.0,0.0,0.0,0.0,0.0,0.0,0.0,0.0,0.0,0.0,0.0,0.0,0.0,0.0,0.0,0.0,0.0,0.0,0.0,-0.6803,-0.697,-0.7051,-0.7095,-0.7095,-0.6919,-0.6724,0.0,0.0,0.0,0.0,0.0,0.0,0.0,0.0,0.0,0.0,0.0,0.0,0.0,0.0,0.0,0.0,0.0,0.0,0.0,0.0,0.0,0.0,0.0,0.0,0.0,0.0,0.0,0.0,0.0,0.0,0.0,0.0,0.0,0.0,0.0,0.0,0.0,0.0,0.0,0.0,0.0,0.0,0.0,0.0,0.0,0.0,0.0,0.0,0.0,0.0,0.0,0.0,0.0,0.0,0.0,0.0,0.0,0.0,0.0,0.0,0.0,0.0,0.0,0.0,0.0,0.0,0.0,0.0,0.0,0.0,0.0,0.0,0.0,0.0,0.0,0.0,0.0,0.0,0.0,0.0,0.0,0.0,0.0,0.0,0.0,0.0,0.0,0.0,0.0,0.0,0.0,0.0,0.0,0.0,0.0,0.0,0.0,0.0,0.0,0.0,0.0,0.0,0.0,0.0,0.0,0.0,0.0,0.0,-0.6841,-0.7088,-0.7095,-0.7095,-0.7092,-0.696,-0.6854,0.0,0.0,0.0,0.0,0.0,0.0,0.0,0.0,0.0,0.0,0.0,0.0,0.0,0.0,0.0,0.0,0.0,0.0,0.0,0.0,0.0,0.0,0.0,0.0,0.0,0.0,0.0,0.0,0.0,0.0,0.0,0.0,0.0,0.0,0.0,0.0,0.0,0.0,0.0,0.0,0.0,0.0,0.0,0.0,0.0,0.0,0.0,0.0,0.0,0.0,0.0,0.0,0.0,0.0,0.0,0.0,0.0,0.0,0.0,0.0,0.0,0.0,0.0,0.0,0.0,0.0,0.0,0.0,0.0,0.0,0.0,0.0,0.0,0.0,0.0,0.0,0.0,0.0,0.0,0.0,0.0,0.0,0.0,0.0,0.0,0.0,0.0,0.0,0.0,0.0,0.0,0.0,0.0,0.0,0.0,0.0,0.0,0.0,0.0,0.0,0.0,0.0,0.0,0.0,0.0,0.0,0.0,0.0,-0.6841,-0.7085,-0.7095,-0.7095,-0.7095,-0.696,-0.6815,0.0,0.0,0.0,0.0,0.0,0.0,0.0,0.0,0.0,0.0,0.0,0.0,0.0,0.0,0.0,0.0,0.0,0.0,0.0,0.0,0.0,0.0,0.0,0.0,0.0,0.0,0.0,0.0,0.0,0.0,0.0,0.0,0.0,0.0,0.0,0.0,0.0,0.0,0.0,0.0,0.0,0.0,0.0,0.0,0.0,0.0,0.0,0.0,-0.9799,0.0,0.0,0.0,0.0,0.0,0.0,0.0,0.0,0.0,0.0,0.0,0.0,0.0,0.0,0.0,0.0,0.0,0.0,0.0,0.0,0.0,0.0,0.0,0.0,0.0,0.0,0.0,0.0,0.0,0.0,0.0,0.0,0.0,0.0,0.0,0.0,0.0,0.0,0.0,0.0,0.0,0.0,0.0,0.0,0.0,0.0,0.0,0.0,0.0,0.0,0.0,0.0,0.0,0.0,0.0,0.0,0.0,0.0,0.0,-0.6915,-0.7088,-0.7095,-0.7095,-0.7092,-0.7024,-0.6883,0.0,0.0,0.0,0.0,0.0,0.0,0.0,0.0,0.0,0.0,0.0,0.0,0.0,0.0,0.0,0.0,0.0,0.0,0.0,0.0,0.0,0.0,0.0,0.0,0.0,0.0,0.0,0.0,0.0,0.0,0.0,0.0,0.0,0.0,0.0,0.0,0.0,0.0,0.0,0.0,0.0,0.0,0.0,0.0,0.0,0.0,0.0,0.0,0.0,0.0,0.0,0.0,0.0,0.0,0.0,0.0,0.0,0.0,0.0,0.0,0.0,0.0,0.0,0.0,0.0,0.0,0.0,0.0,0.0,0.0,0.0,0.0,0.0,0.0,0.0,0.0,0.0,0.0,0.0,0.0,0.0,0.0,0.0,0.0,0.0,0.0,0.0,0.0,0.0,0.0,0.0,0.0,0.0,0.0,0.0,0.0,0.0,0.0,0.0,0.0,0.0,0.0,0.0,0.0,0.0,0.0,0.0,-0.6785,-0.693,-0.7088,-0.7095,-0.7085,-0.7021,-0.7065,-0.6927,-0.664,0.0,0.0,0.0,0.0,0.0,0.0,0.0,0.0,0.0,0.0,0.0,0.0,0.0,0.0,0.0,0.0,0.0,0.0,0.0,0.0,0.0,0.0,0.0,0.0,0.0,0.0,0.0,0.0,0.0,0.0,0.0,0.0,0.0,0.0,0.0,0.0,0.0,0.0,-0.9624,-0.9823,0.0,0.0,0.0,0.0,0.0,0.0,0.0,0.0,-0.9931,0.0,0.0,0.0,0.0,0.0,0.0,0.0,0.0,0.0,0.0,0.0,0.0,0.0,0.0,0.0,0.0,0.0,0.0,0.0,0.0,0.0,0.0,0.0,0.0,0.0,0.0,0.0,0.0,0.0,0.0,0.0,0.0,0.0,0.0,0.0,0.0,0.0,0.0,0.0,0.0,0.0,0.0,0.0,0.0,0.0,0.0,0.0,0.0,0.0,0.0,0.0,0.0,0.0,0.0,0.0,0.0,-0.6481,-0.6639,-0.6871,-0.7088,-0.7095,-0.6947,-0.6704,-0.6873,-0.6739,-0.6333,0.0,0.0,0.0,0.0,0.0,0.0,0.0,0.0,0.0,0.0,0.0,0.0,0.0,0.0,0.0,0.0,0.0,0.0,0.0,0.0,0.0,0.0,0.0,0.0,0.0,0.0,0.0,0.0,0.0,0.0,0.0,0.0,0.0,0.0,0.0,0.0,0.0,0.0,0.0,-1.0202,-1.0232,0.0,0.0,0.0,0.0,0.0,0.0,0.0,0.0,-0.9979,0.0,0.0,0.0,0.0,0.0,0.0,0.0,0.0,0.0,0.0,0.0,0.0,0.0,0.0,0.0,0.0,0.0,0.0,0.0,0.0,0.0,0.0,0.0,0.0,0.0,0.0,0.0,0.0,0.0,0.0,0.0,0.0,0.0,0.0,0.0,0.0,0.0,0.0,0.0,0.0,0.0,0.0,0.0,0.0,0.0,0.0,0.0,0.0,0.0,0.0,0.0,0.0,0.0,0.0,0.0,-0.6295,-0.6372,-0.6476,-0.6563,-0.657,-0.6495,-0.6343,-0.6431,-0.6341,0.0,0.0,0.0,0.0,0.0,0.0,0.0,0.0,0.0,0.0,0.0,0.0,0.0,0.0,0.0,0.0,0.0,0.0,0.0,0.0,0.0,0.0,0.0,0.0,0.0,0.0,0.0,0.0,0.0,0.0,0.0,0.0,0.0,0.0,0.0,0.0,0.0,0.0,0.0,0.0,-0.9689,-0.9735,-0.9865,0.0,0.0,0.0,0.0,0.0,0.0,-0.9985,-0.9949,0.0,0.0,0.0,0.0,0.0,0.0,0.0,0.0,0.0,0.0,0.0,0.0,0.0,0.0,0.0,0.0,0.0,0.0,0.0,0.0,0.0,0.0,0.0,0.0,0.0,0.0,0.0,0.0,0.0,0.0,0.0,0.0,0.0,0.0,0.0,0.0,0.0,0.0,0.0,0.0,0.0,0.0,0.0,0.0,0.0,0.0,0.0,0.0,0.0,0.0,0.0,0.0,0.0,0.0,0.0,-0.62,-0.6106,-0.6093,-0.6117,-0.6117,-0.6064,-0.5998,-0.5871,-0.5785,0.0,0.0,0.0,0.0,0.0,0.0,0.0,0.0,0.0,0.0,0.0,0.0,0.0,0.0,0.0,0.0,0.0,0.0,0.0,0.0,0.0,0.0,0.0,0.0,0.0,0.0,0.0,0.0,0.0,0.0,0.0,0.0,0.0,0.0,0.0,0.0,0.0,0.0,0.0,0.0,0.0,-0.9461,-0.9633,-0.9496,0.0,0.0,0.0,0.0,-1.0051,-1.0063,0.0,0.0,0.0,0.0,0.0,0.0,0.0,0.0,0.0,0.0,0.0,0.0,0.0,0.0,0.0,0.0,0.0,0.0,0.0,0.0,0.0,0.0,0.0,0.0,0.0,0.0,0.0,0.0,0.0,0.0,0.0,0.0,0.0,0.0,0.0,0.0,0.0,0.0,0.0,0.0,0.0,0.0,0.0,0.0,0.0,0.0,0.0,0.0,0.0,0.0,0.0,0.0,0.0,0.0,0.0,0.0,-0.6187,-0.6012,-0.5956,-0.6111,-0.6117,-0.5938,-0.5583,-0.5044,-0.501,0.0,0.0,0.0,0.0,0.0,0.0,0.0,0.0,0.0,0.0,0.0,0.0,0.0,0.0,0.0,0.0,0.0,0.0,0.0,0.0,0.0,0.0,0.0,0.0,0.0,0.0,0.0,0.0,0.0,0.0,0.0,0.0,0.0,0.0,0.0,0.0,0.0,0.0,0.0,0.0,0.0,-1.042,-1.0224,-1.0206,-1.0176,0.0,0.0,0.0,-1.0557,-1.0593,0.0,0.0,0.0,0.0,0.0,0.0,0.0,0.0,0.0,0.0,0.0,0.0,0.0,0.0,0.0,0.0,0.0,0.0,0.0,0.0,0.0,0.0,0.0,0.0,0.0,0.0,0.0,0.0,0.0,0.0,0.0,0.0,0.0,0.0,0.0,0.0,0.0,0.0,0.0,0.0,0.0,0.0,0.0,0.0,0.0,0.0,0.0,0.0,0.0,0.0,0.0,0.0,0.0,0.0,0.0,-0.4874,-0.4861,-0.4298,-0.3989,-0.4069,-0.4069,-0.3972,-0.3814,-0.3533,-0.3728,0.0,0.0,0.0,0.0,0.0,0.0,0.0,0.0,0.0,0.0,0.0,0.0,0.0,0.0,0.0,0.0,0.0,0.0,0.0,0.0,0.0,0.0,0.0,0.0,0.0,0.0,0.0,0.0,0.0,0.0,0.0,0.0,0.0,0.0,0.0,0.0,0.0,0.0,0.0,0.0,0.0,0.0,-1.0047,-0.996,0.0,0.0,0.0,-1.0538,-1.0466,0.0,0.0,0.0,0.0,0.0,0.0,0.0,0.0,0.0,0.0,0.0,0.0,0.0,0.0,0.0,0.0,0.0,0.0,0.0,0.0,0.0,0.0,0.0,0.0,0.0,0.0,0.0,0.0,0.0,0.0,0.0,0.0,0.0,0.0,0.0,0.0,0.0,0.0,0.0,0.0,0.0,0.0,0.0,0.0,0.0,0.0,0.0,0.0,0.0,0.0,0.0,0.0,0.0,0.0,0.0,0.0,0.0,-0.3883,-0.2974,-0.2503,-0.2503,-0.2503,-0.2503,-0.2503,-0.2309,0.0,0.0,0.0,0.0,0.0,0.0,0.0,0.0,0.0,0.0,0.0,0.0,0.0,0.0,0.0,0.0,0.0,0.0,0.0,0.0,0.0,0.0,0.0,0.0,0.0,0.0,0.0,-0.9156,0.0,0.0,0.0,0.0,0.0,0.0,0.0,0.0,0.0,0.0,0.0,0.0,0.0,0.0,-0.9871,-1.0064,-0.9926,-1.0039,0.0,0.0,-1.0641,-1.0509,-1.0653,-1.0713,0.0,0.0,0.0,0.0,0.0,0.0,0.0,0.0,0.0,0.0,0.0,0.0,0.0,0.0,0.0,0.0,0.0,0.0,0.0,0.0,0.0,0.0,0.0,0.0,0.0,0.0,0.0,0.0,0.0,0.0,0.0,0.0,0.0,0.0,0.0,0.0,0.0,0.0,0.0,0.0,0.0,0.0,0.0,0.0,0.0,0.0,0.0,0.0,0.0,0.0,0.0,0.0,0.0,0.0,0.0,-0.388,-0.2974,-0.2464,-0.2503,-0.2503,-0.2503,-0.2503,-0.1801,-0.2106,0.0,0.0,0.0,0.0,0.0,0.0,0.0,0.0,0.0,0.0,0.0,0.0,0.0,0.0,0.0,0.0,0.0,0.0,0.0,0.0,0.0,0.0,0.0,0.0,0.0,0.0,0.0,0.0,0.0,0.0,0.0,0.0,0.0,0.0,0.0,0.0,0.0,0.0,0.0,0.0,0.0,-1.0617,-1.0671,-1.0623,-1.0731,0.0,0.0,-1.0761,-1.0984,-1.1069,-1.1081,-1.1057,0.0,0.0,0.0,0.0,0.0,0.0,0.0,0.0,0.0,0.0,0.0,0.0,0.0,0.0,0.0,0.0,0.0,0.0,0.0,0.0,0.0,0.0,0.0,0.0,0.0,0.0,0.0,0.0,0.0,0.0,0.0,0.0,0.0,0.0,0.0,0.0,0.0,0.0,0.0,0.0,0.0,0.0,0.0,0.0,0.0,0.0,0.0,0.0,0.0,0.0,0.0,0.0,0.0,-0.2847,-0.2766,-0.1574,-0.098,-0.0941,-0.098,-0.0941,-0.094,-0.0667,-0.1004,0.0,0.0,0.0,0.0,0.0,0.0,0.0,0.0,0.0,0.0,0.0,0.0,0.0,0.0,0.0,0.0,0.0,0.0,0.0,0.0,0.0,0.0,0.0,0.0,0.0,0.0,0.0,0.0,-0.7515,-0.748,-0.6791,0.0,0.0,0.0,0.0,0.0,0.0,0.0,0.0,0.0,0.0,-1.0782,-1.0265,-1.019,0.0,0.0,-0.9948,-1.0224,-1.0351,-1.0775,-1.1117,-1.1117,-1.1117,0.0,0.0,0.0,0.0,0.0,0.0,0.0,0.0,0.0,0.0,0.0,0.0,0.0,0.0,0.0,0.0,0.0,0.0,0.0,0.0,0.0,0.0,0.0,0.0,0.0,0.0,0.0,0.0,0.0,0.0,0.0,0.0,0.0,0.0,0.0,0.0,0.0,0.0,0.0,0.0,0.0,0.0,0.0,0.0,0.0,0.0,0.0,0.0,0.0,0.0,0.0,0.0,-0.2253,-0.2109,-0.0727,0.0,0.0,0.0,0.0,0.0,0.0,-0.0349,0.0,0.0,0.0,0.0,0.0,0.0,0.0,0.0,0.0,0.0,0.0,0.0,0.0,0.0,0.0,0.0,0.0,0.0,0.0,0.0,0.0,0.0,0.0,0.0,0.0,0.0,0.0,0.0,-0.6283,-0.637,-0.6796,0.0,0.0,0.0,0.0,0.0,0.0,0.0,0.0,0.0,0.0,-1.0395,-0.9652,-0.9728,-0.9685,-0.9117,-0.9722,-1.025,-1.025,-1.0738,-1.1117,-1.1117,0.0,0.0,0.0,0.0,0.0,0.0,0.0,0.0,0.0,0.0,0.0,0.0,0.0,0.0,0.0,0.0,0.0,0.0,0.0,0.0,0.0,0.0,0.0,0.0,0.0,0.0,0.0,0.0,0.0,0.0,0.0,0.0,0.0,0.0,0.0,0.0,0.0,0.0,0.0,0.0,0.0,0.0,0.0,0.0,0.0,0.0,0.0,0.0,0.0,0.0,0.0,0.0,0.0,0.0,-0.2074,-0.0727,0.0,0.0,0.0,0.0,0.0,0.0,-0.0349,-0.1095,0.0,0.0,0.0,0.0,0.0,0.0,0.0,0.0,0.0,0.0,0.0,0.0,0.0,0.0,0.0,0.0,0.0,0.0,0.0,0.0,0.0,0.0,0.0,0.0,0.0,0.0,-0.562,-0.496,-0.5186,0.0,0.0,0.0,0.0,0.0,0.0,0.0,0.0,0.0,0.0,-0.9135,-0.941,-0.8818,-0.9387,-0.9814,-0.9814,-1.0481,-1.1043,-1.1005,-1.108,-1.1117,0.0,0.0,0.0,0.0,0.0,0.0,0.0,0.0,0.0,0.0,0.0,0.0,0.0,0.0,0.0,0.0,0.0,0.0,0.0,0.0,0.0,0.0,0.0,0.0,0.0,0.0,0.0,0.0,-0.0392,0.0,0.0,0.0,0.0,0.0,0.0,0.0,0.0,0.0,0.0,0.0,-0.0979,-0.1476,0.0,0.0,0.0,0.0,0.0,0.0,0.0,0.0,0.0,0.0,0.0,0.0,-0.2109,-0.2041,-0.0727,0.0,0.0,0.0,0.0,0.0,0.0,-0.0349,-0.1058,0.0,0.0,0.0,0.0,0.0,0.0,0.0,0.0,0.0,0.0,0.0,0.0,0.0,0.0,0.0,0.0,0.0,0.0,0.0,0.0,0.0,0.0,0.0,0.0,0.0,-0.5291,0.0,0.0,0.0,0.0,0.0,0.0,0.0,0.0,0.0,0.0,0.0,-0.884,-0.8983,-0.8879,-0.8533,-0.7812,-0.8117,-0.8273,0.0,0.0,0.0,0.0,0.0,0.0,0.0,0.0,0.0,0.0,0.0,0.0,0.0,0.0,-1.1167,-1.1173,-1.1781,-1.2069,-1.1318,0.0,0.0,0.0,0.0,0.0,0.0,0.0,0.0,0.0,0.0,0.0,0.0,0.0,0.0,0.0,0.0,0.0,0.0,0.0,0.0,0.0,0.0,0.0,0.0,0.0,0.0,0.0,0.0,-0.0588,-0.0863,0.0,-0.1409,-0.2117,0.0,0.0,0.0,0.0,0.0,0.0,0.0,0.0,-0.2027,-0.1736,-0.0615,0.0,0.0,0.0,0.0,0.0,0.0,-0.0234,-0.0728,-0.0949,-0.1312,0.0,0.0,0.0,0.0,0.0,0.0,0.0,0.0,0.0,0.0,0.0,0.0,0.0,0.0,0.0,0.0,0.0,0.0,0.0,0.0,0.0,0.0,0.0,-0.4803,0.0,0.0,0.0,0.0,0.0,0.0,0.0,0.0,0.0,-0.9042,-0.8449,-0.7889,-0.7884,-0.7812,-0.7535,-0.6939,0.0,0.0,0.0,0.0,0.0,0.0,0.0,-1.1198,-1.1135,-1.133,-1.1429,-1.1248,-1.1262,-1.1226,-1.1129,0.0,0.0,-1.1117,-1.1521,-1.1744,-1.1223,-1.1959,-1.2512,-1.2003,-1.1898,-1.204,0.0,0.0,0.0,0.0,0.0,0.0,0.0,0.0,0.0,0.0,0.0,0.0,0.0,0.0,0.0,0.0,0.0,0.0,0.0,0.0,0.0,0.0,0.0,0.0,0.0,0.0,0.0,-0.0471,-0.129,-0.1913,0.0,0.0,0.0,0.0,0.0,0.0,-0.189,-0.1133,-0.0388,0.0,0.0,0.0,0.0,0.0,0.0,0.0,0.0,-0.0691,-0.106,-0.1132,-0.2374,0.0,0.0,0.0,0.0,0.0,0.0,0.0,0.0,0.0,0.0,0.0,0.0,0.0,0.0,0.0,0.0,0.0,0.0,0.0,0.0,-0.4801,0.0,0.0,0.0,0.0,0.0,0.0,0.0,0.0,0.0,0.0,-0.7302,-0.7421,-0.693,-0.5589,0.0,0.0,0.0,0.0,-0.7448,-0.8733,-0.9404,-1.005,-1.0915,-1.109,-1.1136,-1.1119,0.0,0.0,-1.1507,-1.1507,-1.1423,-1.1152,-1.1166,-1.1141,-1.1148,-1.1135,-1.1149,-1.1111,-1.1149,-1.1155,-1.1117,-1.1186,-1.1186,0.0173,0.0,0.0,0.0,0.0,0.0,0.0,0.0,0.0,0.0,0.0,0.0,0.0,0.0,0.0,0.0,0.0,0.0,0.0,0.0,0.0,0.0,0.0,0.0,0.0,0.0,0.0,-0.0118,-0.0353,-0.0585,-0.1341,-0.258,0.0,0.0,0.0,0.0,-0.1322,-0.1059,-0.0388,0.0,0.0,0.0,0.0,0.0,0.0,0.0,0.0,-0.0078,-0.0347,-0.0869,-0.1079,0.0,0.0,0.0,0.0,0.0,0.0,0.0,0.0,0.0,0.0,0.0,0.0,0.0,0.0,0.0,0.0,0.0,0.0,0.0,-0.4914,-0.4963,-0.4893,0.0,0.0,0.0,0.0,0.0,0.0,0.0,0.0,0.0,-0.6507,-0.6089,-0.586,0.0,0.0,-0.5913,-0.6154,-0.6328,-0.6888,-0.811,0.0,0.0,0.0,-0.9944,-1.0254,-1.0215,-1.0964,-1.1613,-1.1772,-1.1772,-1.1742,-1.1697,-1.1645,-1.1651,-1.1627,-1.1365,-1.1141,-1.1117,-1.1117,-1.1117,-1.1117,-1.1117,-1.114,0.0398,0.0129,0.0043,0.0,0.0,0.0,0.0,0.0,0.013,0.0173,0.0173,0.0171,0.0169,0.0167,0.0041,0.0,0.0,0.0,0.0,0.0,0.0,0.0,0.0,0.0,0.0,0.0,0.0,0.0,0.0,0.0,-0.0468,-0.1382,0.0,0.0,-0.1763,-0.1369,-0.0996,-0.0652,-0.0234,0.0,0.0,0.0079,0.0118,0.0118,0.0196,0.0236,0.0236,0.0354,0.0234,-0.023,-0.0342,-0.06,0.0,0.0,0.0,0.0,0.0,0.0,0.0,0.0,0.0,0.0,0.0,-0.4338,0.0,0.0,0.0,0.0,-0.4866,-0.4936,-0.5012,-0.5018,0.0,0.0,0.0,0.0,0.0,0.0,0.0,-0.5709,-0.5747,-0.5744,-0.5705,-0.5326,-0.5266,-0.594,-0.5664,-0.5549,-0.6021,0.0,-0.6383,-0.7598,-0.7865,-0.8127,-0.8592,-0.9036,-0.9484,-0.9904,-1.0628,-1.138,-1.1874,-1.1996,-1.2,-1.1956,-1.1886,-1.1886,-1.1886,-1.1648,-1.1431,-1.1431,-1.1431,-1.1437,-1.1393,-1.1437,-1.1447,0.0631,0.0405,0.0177,0.0,0.0,0.0,0.0,0.0,0.0269,0.0359,0.0358,0.0352,0.0349,0.0348,0.0083,0.0,0.0,0.0,0.0,0.0,0.0,0.0,0.0,0.0,0.0,0.0,0.0,0.0,0.0,0.0,0.0039,0.0,-0.0745,-0.1176,-0.1215,-0.1175,-0.0784,0.0,0.0039,0.0,0.0039,0.0236,0.0354,0.0314,0.0511,0.0589,0.0629,0.0629,0.0629,0.0628,0.0038,-0.0265,-0.0303,0.0,0.0,0.0,0.0,0.0,0.0,0.0,0.0,0.0,0.0,0.0,0.0,0.0,0.0,0.0,-0.4859,0.0,-0.5018,-0.5018,0.0,0.0,0.0,-0.5018,-0.5018,-0.5018,-0.5018,-0.5018,0.0,0.0,0.0,0.0,-0.5059,-0.517,-0.5238,-0.5366,-0.5858,-0.5726,-0.599,-0.7328,-0.7268,-0.7401,-0.8169,-0.8355,-0.8764,-0.9808,-1.0349,-1.0951,-1.1844,-1.2183,-1.2205,-1.2059,-1.1992,-1.1958,-1.1986,-1.1999,-1.194,-1.1986,-1.1892,-1.1868,-1.1844,-1.1838,-1.1844,0.094,0.0705,0.0655,0.0367,0.0,0.0,0.0,0.0,0.0045,0.009,0.009,0.0089,0.0089,0.0089,0.0043,0.0,0.0,0.0,0.0,0.0,0.0,0.0,0.0,0.0,0.0,0.0,0.0,0.0,0.0,0.0157,0.0236,0.0236,0.0157,0.0,-0.0275,-0.0157,0.0,0.0236,0.0393,0.0471,0.0432,0.0511,0.0511,0.055,0.0589,0.0629,0.0629,0.0746,0.0825,0.0825,0.0859,0.0895,0.0895,-0.0721,0.0,0.0,0.0,0.0,0.0,0.0,0.0,0.0,0.0,-0.4386,-0.41,0.0,-0.4268,0.0,-0.3717,-0.4345,-0.494,-0.5018,0.0,0.0,-0.5018,-0.5018,-0.5018,-0.5018,-0.5018,-0.5018,-0.5018,-0.5018,-0.5018,-0.5018,-0.5061,-0.517,-0.5309,-0.5546,-0.6043,-0.5853,-0.6092,-0.7173,-0.7228,-0.7183,-0.7401,-0.742,-0.7818,-0.8996,-0.9856,-1.0813,-1.2105,-1.2354,-1.2421,-1.2488,-1.2518,-1.2518,-1.2464,-1.2518,-1.247,-1.2487,-1.2204,-1.1886,-1.1886,-1.1892,-1.194,0.1192,0.0954,0.1001,0.075,0.0364,0.0364,0.0272,0.018,0.0404,0.0359,0.018,0.018,0.009,0.0,0.0,0.0,0.0,0.0,0.0,0.0,0.0,0.0,0.0,0.0,0.0039,0.0118,0.0157,0.0196,0.0275,0.0354,0.0432,0.0432,0.055,0.0471,0.0275,0.0393,0.0393,0.0314,0.0511,0.0629,0.0629,0.0668,0.0746,0.0746,0.0864,0.0904,0.0904,0.1022,0.1061,0.1061,0.1218,0.1297,0.1296,0.0232,-0.0386,0.0,0.0,0.0,0.0,0.0,0.0,0.0,0.0,0.0,0.0,0.0,-0.2817,0.0,-0.3012,0.0,-0.4226,-0.4621,-0.4898,-0.4979,-0.5018,-0.5018,-0.5018,-0.5018,-0.5018,-0.5018,-0.5018,-0.5018,-0.5018,-0.5018,-0.5059,-0.5173,-0.5246,-0.5435,-0.5778,-0.5742,-0.5952,-0.6571,-0.6571,-0.6482,-0.6479,-0.6479,-0.7007,-0.8412,-0.9244,-1.0072,-1.1241,-1.1628,-1.1671,-1.1402,-1.1402,-1.1617,-1.1972,-1.21,-1.2186,-1.2583,-1.2475,-1.2294,-1.227,-1.2264,-1.2324,0.1394,0.1249,0.125,0.1093,0.0932,0.1072,0.0873,0.0448,0.0894,0.0893,0.0625,0.0492,0.0404,0.0269,0.0135,0.0089,0.0087,0.0087,0.0086,0.0084,0.0082,0.0123,0.0082,0.0,0.0158,0.0355,0.0355,0.0433,0.0589,0.0629,0.0629,0.0629,0.0668,0.0668,0.0629,0.0668,0.0629,0.0432,0.0589,0.0668,0.0668,0.0864,0.0943,0.0982,0.1179,0.1297,0.1297,0.1297,0.1297,0.1297,0.1297,0.1297,0.1297,0.1178,0.0667,0.0,-0.0431,0.0,0.0,0.0,0.0,0.0,0.0,0.0,0.0,-0.1448,-0.094,-0.2111,-0.266,-0.3091,-0.3478,-0.4226,-0.474,-0.494,-0.494,-0.4979,-0.5018,-0.5018,-0.5018,-0.5018,-0.5018,-0.5018,-0.5018,-0.5018,-0.5059,-0.5143,-0.5205,-0.5303,-0.5485,-0.558,-0.5706,-0.5683,-0.5688,-0.5819,-0.5777,-0.5733,-0.6349,-0.7929,-0.85,-0.9021,-0.9985,-1.0463,-1.0501,-0.984,-0.9879,-1.0188,-1.0977,-1.1106,-1.1456,-1.2266,-1.2413,-1.2444,-1.262,-1.2656,-1.2705,0.155,0.155,0.15,0.1483,0.1506,0.2375,0.1929,0.0672,0.075,0.1137,0.1704,0.0978,0.1031,0.1613,0.0897,0.0577,0.0566,0.0566,0.0559,0.059,0.0587,0.0544,0.0585,0.0583,0.0577,0.0647,0.0606,0.064,0.0629,0.0786,0.0825,0.0864,0.1061,0.1061,0.0864,0.0,0.0,0.0,0.114,0.1179,0.1179,0.1179,0.1218,0.1218,0.1258,0.0,0.1297,0.1297,0.1297,0.1297,0.1297,0.0,0.0,0.0,0.0,0.0,0.0,0.0,0.0,0.0,0.0,0.0,-0.1134,-0.0822,-0.1057,-0.0235,-0.0823,-0.356,-0.2818,-0.2702,-0.4068,-0.4345,-0.4543,-0.474,-0.474,-0.482,-0.4979,-0.5018,-0.5018,-0.5018,-0.5018,-0.5018,-0.5018,-0.5018,-0.5026,-0.5022,-0.5214,-0.5385,-0.5398,-0.5518,-0.558,-0.5664,-0.5688,-0.5688,-0.5688,-0.5688,-0.6086,-0.7095,-0.7401,-0.7929,-0.889,-0.9244,-0.9458,-0.9449,-0.9623,-0.971,-1.0101,-1.0188,-1.0448,-1.1365,-1.1542,-1.1794,-1.2534,-1.2705,-1.2705,0.1652,0.0,0.1639,0.1613,0.0,0.2744,0.2683,0.1937,0.2465,0.2863,0.3179,0.2571,0.2568,0.2903,0.1933,0.1462,0.1346,0.086,0.0685,0.0684,0.072,0.072,0.0685,0.072,0.0754,0.0828,0.0869,0.0859,0.096,0.1039,0.1113,0.11,0.1218,0.1218,0.11,0.1218,0.1297,0.1297,0.1297,0.1297,0.1297,0.1297,0.1297,0.1297,0.0,0.0,0.0,0.0,0.0,0.0,0.0,0.0,0.0,0.0,0.0,0.0471,0.0,-0.0313,-0.0313,-0.0313,-0.0313,-0.0313,0.0196,0.0471,0.0353,0.0314,-0.0196,-0.1448,-0.192,-0.243,-0.2974,-0.3761,-0.4309,-0.4504,-0.4543,-0.4623,-0.482,-0.4859,-0.4898,-0.4979,-0.5018,-0.5018,-0.5018,-0.5018,-0.5018,-0.4987,-0.5165,-0.5344,-0.5416,-0.5526,-0.5623,-0.5677,-0.5688,-0.5688,-0.5688,-0.5688,-0.6041,-0.6833,-0.7095,-0.736,-0.7885,-0.8105,-0.8145,-0.7965,-0.7965,-0.8225,-0.8917,-0.9052,-0.9357,-1.0318,-1.0621,-1.0928,-1.1794,-1.2357,-1.2705,0.169,0.1722,0.1722,0.1693,0.1694,0.2775,0.3422,0.3743,0.0,0.0,0.0,0.4314,0.4139,0.4164,0.3188,0.255,0.2234,0.1423,0.095,0.0831,0.0816,0.0817,0.083,0.0816,0.0893,0.1059,0.1059,0.113,0.1311,0.1305,0.1331,0.1306,0.13,0.1297,0.1297,0.1297,0.1297,0.1297,0.1297,0.1297,0.1297,0.1297,0.1297,0.1297,0.1297,0.1297,0.1297,0.1297,0.1297,0.1297,0.1297,0.1297,0.1297,0.1297,0.1297,0.1297,0.1297,0.1297,0.1297,0.1297,0.1297,0.1297,0.1297,0.1217,0.1099,0.0549,0.0392,0.0825,-0.0941,-0.1959,-0.1803,-0.2979,-0.3958,-0.4307,-0.4345,-0.4426,-0.4621,-0.4662,-0.4701,-0.4859,-0.4898,-0.494,-0.494,-0.4979,-0.5018,-0.5034,-0.5148,-0.5276,-0.542,-0.5605,-0.568,-0.5688,-0.5688,-0.5688,-0.5688,-0.5688,-0.6041,-0.6615,-0.6789,-0.6833,-0.6877,-0.7051,-0.6874,-0.6438,-0.6257,-0.6827,-0.7658,-0.7918,-0.8352,-0.9401,-0.9666,-0.9923,-1.0842,-1.1623,-1.2229,0.1702,0.1699,0.1699,0.1693,0.1788,0.2847,0.4318,0.5822,0.5063,0.5127,0.5785,0.4951,0.5074,0.5811,0.481,0.3867,0.2972,0.2826,0.2216,0.0,0.1292,0.1292,0.1295,0.1291,0.1321,0.1342,0.1341,0.1327,0.13,0.1316,0.1301,0.1293,0.131,0.1297,0.1297,0.1297,0.1297,0.1297,0.1297,0.1297,0.1297,0.1297,0.1297,0.1297,0.1297,0.1297,0.1297,0.1297,0.1297,0.1297,0.1297,0.1297,0.1297,0.1297,0.1297,0.1297,0.1297,0.1297,0.1297,0.1297,0.1297,0.1297,0.1297,0.0982,0.0274,0.0745,0.0549,-0.0705,-0.0627,-0.094,-0.2156,-0.2588,-0.3098,-0.3921,-0.4116,-0.4233,-0.4384,-0.4423,-0.4462,-0.4504,-0.4662,-0.474,-0.4779,-0.4898,-0.5018,-0.5048,-0.5195,-0.5415,-0.5605,-0.5708,-0.5688,-0.5688,-0.5688,-0.5688,-0.5688,-0.5688,-0.5822,-0.5866,-0.5955,-0.5997,-0.5997,-0.6086,-0.6083,-0.6083,-0.6127,-0.6302,-0.6694,-0.683,-0.7401,-0.8229,-0.8532,-0.8973,-0.9884,-1.0313,-1.088,0.2124,0.2644,0.2697,0.2682,0.2766,0.3847,0.5534,0.7437,0.6898,0.6841,0.7065,0.6685,0.6719,0.6983,0.601,0.526,0.4695,0.4144,0.361,0.3089,0.3086,0.3042,0.2907,0.2464,0.2231,0.2164,0.1635,0.1399,0.1371,0.1356,0.1334,0.1303,0.1312,0.1297,0.1297,0.1297,0.1297,0.1297,0.1297,0.1297,0.1297,0.1297,0.1297,0.1297,0.1297,0.1297,0.1297,0.1297,0.1297,0.1297,0.1297,0.1297,0.1297,0.1297,0.1297,0.1297,0.1297,0.1297,0.1297,0.1297,0.1297,0.1297,0.1297,0.1139,0.0745,0.0628,0.0471,0.0118,-0.0314,-0.0783,-0.1135,-0.1567,-0.2037,-0.2507,-0.294,-0.3294,-0.3561,-0.3995,-0.427,-0.4384,-0.4582,-0.4701,-0.4701,-0.4859,-0.5018,-0.5037,-0.5219,-0.5458,-0.565,-0.5688,-0.5688,-0.5688,-0.5688,-0.5688,-0.5688,-0.5688,-0.5688,-0.5688,-0.5688,-0.5688,-0.5688,-0.5688,-0.5733,-0.5866,-0.5908,-0.5994,-0.6213,-0.6346,-0.6653,-0.7003,-0.7401,-0.7929,-0.8707,-0.9401,-1.0226,0.3112,0.3946,0.3946,0.3909,0.3959,0.4758,0.6285,0.8049,0.7998,0.8044,0.8089,0.8022,0.7924,0.7758,0.7017,0.6517,0.6067,0.5377,0.4827,0.4576,0.451,0.4454,0.4228,0.3366,0.3001,0.3044,0.2016,0.1512,0.1708,0.1524,0.1361,0.1306,0.1319,0.1303,0.1297,0.1297,0.1297,0.1297,0.1297,0.1297,0.1297,0.1297,0.1297,0.1297,0.1297,0.1297,0.1297,0.1297,0.1297,0.1297,0.1297,0.1297,0.1297,0.1297,0.1297,0.1297,0.1297,0.1297,0.1297,0.1297,0.1297,0.1297,0.1297,0.1297,0.1257,0.0706,0.0549,0.1021,0.0118,-0.0431,-0.0235,-0.0587,-0.1057,-0.1293,-0.1842,-0.2391,-0.2741,-0.3331,-0.3882,-0.419,-0.4423,-0.4545,-0.4584,-0.4779,-0.4964,-0.5124,-0.5257,-0.5458,-0.5632,-0.5688,-0.5688,-0.5688,-0.5688,-0.5688,-0.5688,-0.5688,-0.5688,-0.5688,-0.5688,-0.5688,-0.5688,-0.5688,-0.5688,-0.5735,-0.5735,-0.5774,-0.5952,-0.6083,-0.6169,-0.6432,-0.6653,-0.701,-0.7658,-0.84,-0.9401,0.5077,0.5238,0.5236,0.5192,0.5226,0.5277,0.6036,0.7065,0.7042,0.7558,0.8401,0.811,0.7988,0.7968,0.7849,0.7309,0.6461,0.6259,0.5711,0.4812,0.4545,0.4505,0.4493,0.3479,0.3357,0.3844,0.2329,0.1925,0.2585,0.1796,0.1361,0.1309,0.1299,0.1324,0.13,0.1297,0.1297,0.1297,0.1297,0.1297,0.1297,0.1297,0.1297,0.1297,0.1297,0.1297,0.1297,0.1297,0.1297,0.1297,0.1297,0.1297,0.1297,0.1297,0.1297,0.1297,0.1297,0.1297,0.1297,0.1297,0.1297,0.1297,0.1297,0.1297,0.1297,0.1218,0.1178,0.1218,0.1139,0.0667,0.0118,-0.0078,-0.0392,-0.0979,-0.1293,-0.1685,-0.2313,-0.2588,-0.2942,-0.3802,-0.3958,-0.4157,-0.4196,-0.4506,-0.4899,-0.5238,-0.533,-0.5455,-0.5637,-0.5688,-0.5688,-0.5688,-0.5688,-0.5688,-0.5688,-0.5688,-0.5688,-0.5688,-0.5688,-0.5688,-0.5688,-0.5688,-0.5688,-0.5688,-0.5688,-0.5733,-0.5777,-0.5911,-0.6083,-0.6124,-0.6257,-0.6473,-0.6605,-0.7003,-0.7837,0.5808,0.6422,0.6424,0.6845,0.7304,0.6691,0.6956,0.7921,0.7971,0.8193,0.8472,0.835,0.8255,0.8174,0.8032,0.7756,0.7356,0.7353,0.7079,0.652,0.6462,0.6359,0.613,0.5163,0.4885,0.4917,0.3178,0.2464,0.2679,0.1887,0.1635,0.2069,0.1609,0.1296,0.1324,0.1305,0.1297,0.1297,0.1297,0.1297,0.1297,0.1297,0.1297,0.1297,0.1297,0.1297,0.1297,0.1297,0.1297,0.1297,0.1297,0.1297,0.1297,0.1297,0.1297,0.1297,0.1297,0.1297,0.1297,0.1297,0.1297,0.1297,0.1297,0.1297,0.1297,0.1297,0.1297,0.1297,0.1297,0.1139,0.0824,0.0745,0.0628,0.0235,-0.0196,-0.0705,-0.094,-0.1488,-0.2116,-0.2901,-0.3212,-0.3565,-0.3999,-0.4348,-0.4713,-0.5103,-0.5202,-0.5336,-0.564,-0.5688,-0.5688,-0.5688,-0.5688,-0.5688,-0.5688,-0.5688,-0.5688,-0.5688,-0.5688,-0.5688,-0.5688,-0.5688,-0.5688,-0.5688,-0.5688,-0.5688,-0.5733,-0.5733,-0.5866,-0.5908,-0.6083,-0.6254,-0.6384,-0.6476,-0.7088,0.6811,0.7543,0.7598,0.81,0.8826,0.7989,0.8045,0.8669,0.8771,0.871,0.8608,0.8564,0.8489,0.8374,0.8191,0.8032,0.7992,0.7988,0.7984,0.7872,0.7834,0.7695,0.7403,0.6377,0.5986,0.5863,0.4214,0.3312,0.3217,0.2603,0.24,0.2677,0.2299,0.1801,0.1381,0.151,0.1532,0.1336,0.1297,0.1297,0.1297,0.1297,0.1297,0.1297,0.1297,0.1297,0.1297,0.1297,0.1297,0.1297,0.1297,0.1297,0.1297,0.1297,0.1297,0.1297,0.1336,0.1336,0.1336,0.1297,0.1297,0.1297,0.1297,0.1297,0.1297,0.1297,0.1297,0.1297,0.1297,0.1297,0.1297,0.1297,0.1297,0.1257,0.0706,0.0313,-0.0039,-0.0627,-0.1254,-0.2037,-0.231,-0.274,-0.3524,-0.3841,-0.4135,-0.4772,-0.497,-0.5136,-0.5457,-0.5573,-0.5599,-0.5688,-0.5688,-0.5688,-0.5688,-0.5688,-0.5688,-0.5688,-0.5688,-0.5688,-0.5688,-0.5688,-0.5688,-0.5688,-0.5688,-0.5688,-0.5688,-0.5688,-0.5688,-0.5733,-0.5863,-0.6038,-0.6127,-0.6254,-0.639,0.8771,0.883,0.8826,0.883,0.8881,0.883,0.8823,0.8841,0.8865,0.8916,0.8866,0.876,0.8696,0.8652,0.8381,0.818,0.8008,0.7992,0.7982,0.7951,0.7882,0.7804,0.7677,0.6517,0.6396,0.6963,0.5223,0.4245,0.4243,0.4105,0.3712,0.2905,0.343,0.2984,0.1792,0.2147,0.2041,0.1492,0.1414,0.1336,0.1336,0.1336,0.1336,0.1336,0.1297,0.1297,0.1297,0.1297,0.1297,0.1297,0.1297,0.1297,0.1297,0.1297,0.1336,0.1336,0.1493,0.1493,0.1336,0.1336,0.1336,0.1297,0.1336,0.1297,0.1297,0.1297,0.1297,0.1297,0.1297,0.1297,0.1297,0.1297,0.1297,0.1297,0.1258,0.0824,0.0117,0.0078,-0.0431,-0.1135,-0.1449,-0.188,-0.274,-0.2857,-0.3405,-0.4219,-0.4639,-0.4828,-0.5158,-0.5349,-0.5442,-0.5641,-0.5688,-0.5688,-0.5688,-0.5688,-0.5688,-0.5688,-0.5688,-0.5688,-0.5688,-0.5688,-0.5688,-0.5688,-0.5688,-0.5688,-0.5688,-0.5688,-0.5688,-0.5733,-0.5733,-0.5822,-0.5908,-0.5997,-0.6171,0.8937,0.8937,0.8937,0.8937,0.8937,0.8937,0.8828,0.8804,0.8844,0.8828,0.8811,0.8832,0.8801,0.8699,0.8499,0.8326,0.8184,0.8085,0.7988,0.7985,0.7931,0.7857,0.7746,0.7224,0.7085,0.7129,0.5913,0.5184,0.5139,0.4601,0.4452,0.4531,0.418,0.3633,0.3177,0.3233,0.2938,0.2157,0.2195,0.204,0.161,0.1612,0.1691,0.1651,0.1415,0.1297,0.1297,0.1297,0.1297,0.1297,0.1297,0.1297,0.1336,0.1415,0.1573,0.1651,0.1769,0.1691,0.1573,0.1612,0.1573,0.1336,0.1415,0.1415,0.1336,0.1297,0.1297,0.1297,0.1297,0.1297,0.1297,0.1297,0.1297,0.1297,0.1297,0.1178,0.0942,0.0824,0.051,-0.0313,-0.0901,-0.1488,-0.1683,-0.184,-0.2292,-0.3311,-0.3596,-0.4006,-0.4772,-0.5073,-0.511,-0.5398,-0.5508,-0.5552,-0.5688,-0.5688,-0.5688,-0.5688,-0.5688,-0.5688,-0.5688,-0.5688,-0.5688,-0.5688,-0.5688,-0.5688,-0.5688,-0.5688,-0.5688,-0.5688,-0.5688,-0.5688,-0.5688,-0.5866,-0.5952,0.8937,0.8937,0.8937,0.8937,0.8937,0.8937,0.8824,0.8801,0.8841,0.8824,0.8818,0.8838,0.8824,0.876,0.857,0.8435,0.8319,0.8136,0.7988,0.7988,0.7988,0.7938,0.7875,0.7736,0.759,0.7339,0.6604,0.6207,0.621,0.5628,0.5536,0.5744,0.5265,0.4775,0.4368,0.4323,0.3986,0.3288,0.3248,0.3051,0.2547,0.2353,0.2431,0.2549,0.1923,0.1493,0.1493,0.1493,0.1493,0.1493,0.1493,0.1493,0.1533,0.1689,0.1846,0.1886,0.1964,0.1925,0.173,0.1848,0.1769,0.1533,0.1612,0.1612,0.1415,0.1415,0.1375,0.1336,0.1297,0.1297,0.1297,0.1297,0.1297,0.1297,0.1297,0.1297,0.1297,0.1297,0.1021,0.051,0.0,-0.047,-0.0823,-0.0901,-0.1381,-0.2324,-0.246,-0.3008,-0.3964,-0.4325,-0.457,-0.5032,-0.5244,-0.5344,-0.5497,-0.5601,-0.5675,-0.568,-0.5688,-0.5688,-0.5688,-0.5688,-0.5688,-0.5688,-0.5688,-0.5688,-0.5688,-0.5688,-0.5688,-0.5688,-0.5688,-0.5688,-0.5688,-0.5688,-0.5822,0.8937,0.8937,0.8937,0.8937,0.8937,0.8937,0.8937,0.8871,0.8933,0.8927,0.8858,0.8937,0.8875,0.8866,0.8668,0.8531,0.847,0.8221,0.8088,0.8038,0.8038,0.8084,0.8057,0.791,0.7798,0.7636,0.7278,0.719,0.7326,0.7238,0.6922,0.642,0.6841,0.628,0.4775,0.5328,0.5193,0.4528,0.4373,0.4331,0.4295,0.356,0.3521,0.4023,0.2821,0.2043,0.2043,0.1926,0.1848,0.1848,0.1848,0.1887,0.1886,0.2041,0.2119,0.2004,0.208,0.208,0.1925,0.1926,0.1965,0.1848,0.1887,0.1807,0.1651,0.1612,0.1533,0.1375,0.1336,0.1297,0.1336,0.1297,0.1297,0.1297,0.1297,0.1297,0.1297,0.1297,0.1297,0.1218,0.1061,0.0864,0.0274,0.0,-0.0393,-0.1105,-0.1398,-0.1824,-0.2785,-0.3077,-0.3564,-0.4311,-0.4628,-0.4765,-0.5111,-0.5463,-0.5593,-0.5672,-0.5683,-0.5688,-0.5688,-0.5688,-0.5688,-0.5688,-0.5688,-0.5688,-0.5688,-0.5688,-0.5688,-0.5688,-0.5688,-0.5688,-0.5688,-0.5688,-0.5688,0.9103,0.8937,0.8937,0.8937,0.8937,0.8937,0.8937,0.8937,0.8937,0.8937,0.8937,0.8937,0.8937,0.8869,0.8785,0.8804,0.8779,0.8589,0.8432,0.8333,0.8482,0.8531,0.8499,0.8418,0.8211,0.7958,0.7737,0.7676,0.7768,0.7768,0.7588,0.7439,0.7352,0.7123,0.6509,0.6482,0.6086,0.5348,0.5389,0.5193,0.4688,0.4494,0.4574,0.4649,0.3754,0.3444,0.3951,0.2669,0.1926,0.1926,0.1887,0.1964,0.208,0.2157,0.2237,0.2315,0.2353,0.2314,0.2158,0.2238,0.22,0.2004,0.2042,0.2003,0.1848,0.1808,0.1691,0.1533,0.1493,0.1454,0.1336,0.1297,0.1336,0.1297,0.1297,0.1297,0.1297,0.1297,0.1297,0.1297,0.1297,0.1178,0.0982,0.0863,0.0471,-0.0235,-0.0434,-0.0836,-0.1618,-0.1915,-0.2067,-0.2718,-0.3251,-0.3898,-0.4132,-0.4585,-0.5051,-0.528,-0.5452,-0.561,-0.567,-0.5664,-0.5669,-0.5688,-0.5688,-0.5688,-0.5688,-0.5688,-0.5688,-0.5688,-0.5688,-0.5688,-0.5688,-0.5688,-0.5688,0.9434,0.921,0.9213,0.9161,0.9106,0.9106,0.8992,0.8937,0.9051,0.9103,0.9103,0.9103,0.9158,0.915,0.9002,0.8972,0.9034,0.8981,0.8832,0.873,0.8726,0.8775,0.8788,0.8546,0.8455,0.8276,0.805,0.7944,0.8028,0.8025,0.7998,0.7852,0.7705,0.7577,0.7508,0.725,0.6784,0.6398,0.6437,0.6244,0.5812,0.5544,0.5586,0.5696,0.4841,0.4727,0.5273,0.3873,0.2901,0.2589,0.2315,0.2199,0.2314,0.2313,0.2392,0.247,0.251,0.2431,0.2352,0.2431,0.2393,0.2199,0.2237,0.2235,0.2081,0.2003,0.1925,0.1729,0.173,0.1651,0.1573,0.1533,0.1493,0.1415,0.1336,0.1336,0.1297,0.1297,0.1297,0.1297,0.1297,0.1297,0.1297,0.1297,0.1099,0.0588,0.047,0.0157,-0.0559,-0.0881,-0.1134,-0.1555,-0.2223,-0.2724,-0.3022,-0.3665,-0.4446,-0.4796,-0.511,-0.5389,-0.554,-0.5564,-0.5599,-0.5667,-0.5688,-0.5688,-0.5688,-0.5688,-0.5688,-0.5688,-0.5688,-0.5688,-0.5688,-0.5688,-0.5688,0.9816,0.9816,0.9816,0.9581,0.9409,0.9372,0.9258,0.9027,0.9268,0.9375,0.943,0.943,0.9544,0.9581,0.9268,0.9122,0.9268,0.9241,0.9232,0.9133,0.9027,0.8924,0.8886,0.8611,0.859,0.8606,0.823,0.808,0.8204,0.8245,0.8115,0.7963,0.7951,0.7931,0.774,0.7616,0.7442,0.7326,0.7403,0.7369,0.7288,0.6668,0.6591,0.7249,0.5893,0.5467,0.6005,0.5348,0.4572,0.3871,0.3173,0.2784,0.2627,0.2588,0.2626,0.2549,0.251,0.251,0.251,0.247,0.247,0.2433,0.2433,0.2431,0.2235,0.2196,0.2119,0.1964,0.1925,0.1887,0.1887,0.1848,0.1769,0.1612,0.1415,0.1336,0.1297,0.1297,0.1297,0.1297,0.1297,0.1297,0.1297,0.1297,0.1257,0.1218,0.1178,0.0747,0.0354,-0.0039,-0.0353,-0.0753,-0.1166,-0.1572,-0.1861,-0.26,-0.3391,-0.4059,-0.4449,-0.4824,-0.5297,-0.5459,-0.5505,-0.5621,-0.5656,-0.5664,-0.5677,-0.5667,-0.5677,-0.5688,-0.5688,-0.5688,-0.5688,-0.5688,-0.5688,1.0036,0.9816,0.9816,0.9687,0.9497,0.9647,0.9578,0.9385,0.9603,0.9706,0.9706,0.9706,0.9757,0.9779,0.9583,0.9537,0.9549,0.9539,0.948,0.948,0.943,0.9377,0.931,0.9029,0.8905,0.8904,0.8563,0.8432,0.8476,0.8476,0.838,0.8203,0.806,0.7927,0.78,0.7612,0.7526,0.7518,0.7518,0.7518,0.748,0.7288,0.7249,0.733,0.6433,0.6356,0.6976,0.6318,0.5506,0.4768,0.4496,0.4027,0.3522,0.3443,0.321,0.2744,0.2588,0.251,0.2549,0.2549,0.251,0.251,0.251,0.247,0.2431,0.2431,0.2314,0.2158,0.2119,0.2042,0.1926,0.1887,0.1848,0.1808,0.1533,0.1336,0.1336,0.1297,0.1297,0.1297,0.1297,0.1297,0.1297,0.1297,0.1297,0.1297,0.1296,0.1217,0.0863,0.0785,0.051,0.0471,0.0158,-0.0316,-0.087,-0.1587,-0.2345,-0.3135,-0.3651,-0.407,-0.4714,-0.5317,-0.5378,-0.5492,-0.5556,-0.5551,-0.5591,-0.561,-0.564,-0.5661,-0.5688,-0.5688,-0.5688,-0.5688,-0.5688,1.0366,1.0194,1.0069,0.9927,0.9739,0.983,0.9761,0.9608,0.9851,0.9981,0.9981,1.0036,0.9995,1.0016,0.9814,0.9752,0.9757,0.9654,0.9587,0.9628,0.9579,0.9579,0.949,0.9267,0.9096,0.9056,0.8735,0.8633,0.8616,0.8616,0.8426,0.8199,0.8069,0.789,0.7682,0.7588,0.7518,0.7518,0.7518,0.7518,0.7518,0.7518,0.748,0.7446,0.6976,0.7057,0.7365,0.7019,0.624,0.5315,0.4965,0.4771,0.438,0.43,0.4066,0.3563,0.3563,0.3446,0.3095,0.3056,0.286,0.2588,0.251,0.251,0.251,0.251,0.2431,0.2353,0.2352,0.2276,0.2159,0.2081,0.2042,0.2003,0.1728,0.1533,0.1415,0.1336,0.1336,0.1297,0.1297,0.1297,0.1297,0.1297,0.1297,0.1297,0.1297,0.1297,0.1258,0.1297,0.1297,0.1099,0.102,0.0551,0.0118,-0.0512,-0.1026,-0.1847,-0.2717,-0.3188,-0.4089,-0.4881,-0.5198,-0.5266,-0.5383,-0.5483,-0.5472,-0.5516,-0.557,-0.5602,-0.5648,-0.568,-0.568,-0.5688,-0.5688,1.0692,1.0676,1.0509,1.0255,1.0018,1.0037,0.9877,0.9728,1.0116,1.0366,1.0312,1.0366,1.033,1.037,0.999,0.9808,0.9888,0.9663,0.9644,0.9624,0.9624,0.9567,0.9531,0.925,0.9104,0.9039,0.8739,0.8641,0.86,0.8592,0.8349,0.8101,0.8004,0.7805,0.7573,0.7488,0.7522,0.7518,0.7518,0.7518,0.7518,0.7518,0.7518,0.748,0.7442,0.7365,0.748,0.7365,0.6784,0.5354,0.5276,0.5315,0.5196,0.5121,0.5004,0.4846,0.4693,0.4496,0.4066,0.391,0.364,0.3134,0.2938,0.2666,0.2784,0.2782,0.2705,0.247,0.251,0.2472,0.2433,0.2314,0.2235,0.2196,0.2042,0.1847,0.169,0.1453,0.1336,0.1336,0.1336,0.1297,0.1297,0.1297,0.1297,0.1297,0.1297,0.1297,0.1297,0.1297,0.1297,0.1258,0.1257,0.1258,0.0942,0.0589,0.0118,-0.051,-0.1568,-0.237,-0.3389,-0.4172,-0.4697,-0.4984,-0.4976,-0.517,-0.536,-0.542,-0.5419,-0.5518,-0.5553,-0.5613,-0.5664,-0.5683,-0.5688,1.0692,1.068,1.0505,1.0298,1.0201,1.0261,1.0191,1.0096,1.045,1.0582,1.0582,1.0582,1.0528,1.0362,1.0173,1.0011,0.9868,0.9705,0.9628,0.9624,0.9624,0.9539,0.9413,0.919,0.9104,0.9007,0.8735,0.8624,0.8592,0.8418,0.8239,0.804,0.7882,0.7747,0.7559,0.7518,0.7518,0.7518,0.7518,0.7518,0.7518,0.7518,0.7518,0.7518,0.7518,0.7518,0.7518,0.7518,0.7326,0.7053,0.6865,0.6514,0.6047,0.597,0.5699,0.5315,0.5121,0.4963,0.4768,0.473,0.4691,0.438,0.4224,0.4222,0.356,0.3521,0.3171,0.2743,0.251,0.2666,0.2588,0.247,0.2392,0.2353,0.2275,0.2118,0.2041,0.1767,0.1572,0.1493,0.1415,0.1336,0.1336,0.1336,0.1336,0.1336,0.1336,0.1336,0.1297,0.1297,0.1297,0.1297,0.1297,0.1297,0.1218,0.0942,0.0706,0.0392,-0.047,-0.1058,-0.2096,-0.3015,-0.336,-0.3981,-0.4563,-0.4667,-0.457,-0.5108,-0.5071,-0.5283,-0.5411,-0.551,-0.5561,-0.5618,-0.5664,1.0647,1.0554,1.0379,1.0249,1.0241,1.0266,1.0298,1.0339,1.057,1.0692,1.0672,1.0615,1.0473,1.0294,1.0111,0.9929,0.9782,0.9677,0.9624,0.9624,0.962,0.9527,0.94,0.9181,0.9064,0.8946,0.8702,0.8624,0.8563,0.842,0.8203,0.8012,0.7837,0.7714,0.7547,0.7518,0.7518,0.7518,0.7518,0.7518,0.7518,0.7599,0.7642,0.7599,0.7561,0.7518,0.7518,0.7518,0.7518,0.7518,0.7484,0.733,0.6938,0.6826,0.6553,0.6282,0.6167,0.5893,0.5738,0.5544,0.5389,0.504,0.5004,0.4768,0.4455,0.4377,0.4183,0.3834,0.3679,0.3561,0.3132,0.2627,0.2588,0.251,0.2431,0.2353,0.2275,0.2003,0.173,0.173,0.1651,0.1612,0.1573,0.1533,0.1493,0.1533,0.1493,0.1454,0.1297,0.1297,0.1297,0.1297,0.1297,0.1297,0.1297,0.1218,0.106,0.0863,0.0549,0.0235,-0.0197,-0.1061,-0.1843,-0.2605,-0.334,-0.3252,-0.3277,-0.395,-0.4499,-0.4522,-0.4645,-0.5083,-0.5363,-0.5335,-0.5426,1.0924,1.0592,1.064,1.0573,1.0529,1.0767,1.098,1.1025,1.1155,1.137,1.09,1.0758,1.0653,1.0171,1.002,0.9791,0.9669,0.9632,0.9624,0.9624,0.9571,0.9453,0.9331,0.9206,0.9029,0.8824,0.8726,0.866,0.8599,0.8482,0.8359,0.8119,0.7921,0.7826,0.7662,0.7599,0.7638,0.7638,0.7676,0.7633,0.7676,0.7795,0.7834,0.7795,0.7718,0.7638,0.7638,0.7638,0.7599,0.7599,0.7599,0.7599,0.7599,0.7561,0.7561,0.7484,0.7407,0.7096,0.663,0.6437,0.6205,0.5428,0.5431,0.5315,0.5234,0.5157,0.5002,0.4927,0.4732,0.4535,0.4025,0.3522,0.3095,0.2978,0.294,0.2823,0.2666,0.2393,0.2277,0.1925,0.1847,0.1769,0.1808,0.1769,0.173,0.1691,0.1651,0.1573,0.1454,0.1336,0.1375,0.1336,0.1297,0.1297,0.1297,0.1297,0.1218,0.1139,0.106,0.1021,0.0982,0.0392,-0.0587,-0.1369,-0.1883,-0.1961,-0.2242,-0.287,-0.3303,-0.3474,-0.3678,-0.3942,-0.4373,-0.4892,-0.4972,1.2508,1.1548,1.2488,1.2417,1.1883,1.2767,1.3184,1.3361,1.3291,1.29,1.2021,1.1917,1.1154,1.0352,0.9959,0.9833,0.9945,0.9965,0.9871,0.9838,0.9786,0.9658,0.9622,0.9576,0.9283,0.8911,0.892,0.8995,0.881,0.8712,0.8565,0.8485,0.8216,0.7974,0.7961,0.7983,0.7949,0.791,0.7949,0.7906,0.7944,0.7987,0.8025,0.8025,0.7949,0.7949,0.7949,0.7987,0.7987,0.7991,0.7991,0.7987,0.7949,0.7838,0.7799,0.7799,0.7872,0.7718,0.7446,0.745,0.7369,0.7173,0.6942,0.6591,0.624,0.6012,0.5854,0.5389,0.5198,0.5002,0.4846,0.4494,0.4535,0.4496,0.4341,0.4185,0.3717,0.3444,0.3093,0.2626,0.2277,0.1926,0.2005,0.2004,0.1964,0.1925,0.1847,0.1768,0.1612,0.1533,0.1493,0.1415,0.1297,0.1297,0.1297,0.1297,0.1258,0.1258,0.1218,0.1218,0.1178,0.1217,0.0628,-0.0274,-0.0978,-0.1332,-0.165,-0.1852,-0.2091,-0.2263,-0.2452,-0.2688,-0.3161,-0.3605,-0.3731,1.3357,1.2904,1.3475,1.3366,1.307,1.3587,1.3973,1.4013,1.3906,1.3577,1.3068,1.2672,1.2256,1.1597,1.1359,1.1264,1.1154,1.1179,1.1277,1.1327,1.1154,1.1036,1.0864,1.0785,1.0362,1.0042,0.9903,0.9534,0.8957,0.8748,0.8683,0.8475,0.8229,0.8106,0.8102,0.8063,0.8102,0.8102,0.8102,0.8102,0.8102,0.8102,0.8144,0.8217,0.814,0.8102,0.8102,0.8102,0.8102,0.8063,0.8102,0.8102,0.8102,0.8102,0.8068,0.803,0.8068,0.8063,0.7991,0.7953,0.7872,0.7829,0.7791,0.7638,0.7322,0.7169,0.6938,0.663,0.6089,0.5973,0.6012,0.5541,0.5193,0.5154,0.5118,0.4885,0.4535,0.4455,0.4027,0.3444,0.2862,0.2472,0.2238,0.2238,0.2159,0.212,0.2081,0.1924,0.1768,0.1729,0.169,0.1533,0.1415,0.1336,0.1336,0.1336,0.1297,0.1297,0.1297,0.1297,0.1297,0.1296,0.1178,0.0667,0.0078,-0.047,-0.0353,-0.0354,-0.0705,-0.1134,-0.1504,-0.1839,-0.2044,-0.2261,-0.2413,1.4289,1.4203,1.4462,1.4479,1.438,1.4646,1.4837,1.4805,1.4663,1.4406,1.4001,1.3634,1.3286,1.298,1.2796,1.2732,1.278,1.2727,1.2791,1.2725,1.2529,1.2537,1.2479,1.2331,1.1745,1.1084,1.1187,1.0514,0.9235,0.8944,0.8738,0.8599,0.8358,0.8217,0.8255,0.8289,0.8217,0.8217,0.8217,0.8217,0.8217,0.8217,0.8293,0.8441,0.8327,0.8212,0.825,0.825,0.8255,0.8255,0.825,0.8212,0.825,0.8365,0.8403,0.825,0.8212,0.8217,0.8178,0.8178,0.814,0.8025,0.8063,0.8063,0.8025,0.7868,0.7949,0.7949,0.7561,0.7096,0.6976,0.6356,0.5967,0.5851,0.5738,0.5428,0.5312,0.5196,0.504,0.438,0.3563,0.3173,0.3017,0.2782,0.2782,0.2315,0.2276,0.2158,0.2003,0.1963,0.1885,0.169,0.1533,0.1415,0.1375,0.1336,0.1336,0.1297,0.1297,0.1297,0.1297,0.1297,0.1178,0.1061,0.1061,0.0628,0.0863,0.0863,0.0392,-0.0157,-0.0666,-0.0826,-0.0673,-0.0875,-0.1163,1.6119,1.5161,1.6324,1.6407,1.5973,1.6873,1.7427,1.7349,1.7032,1.6372,1.5227,1.4943,1.4234,1.3548,1.3298,1.3167,1.3258,1.3448,1.3547,1.3473,1.3153,1.2903,1.2559,1.2325,1.2459,1.2145,1.2359,1.1176,0.9947,0.9444,0.9204,0.9075,0.8846,0.8665,0.8703,0.8589,0.8627,0.8627,0.8632,0.8589,0.8589,0.8589,0.8627,0.8627,0.8627,0.8551,0.8551,0.8556,0.8556,0.8594,0.8589,0.8627,0.8627,0.8665,0.8665,0.8627,0.8627,0.8551,0.8403,0.8365,0.8289,0.8217,0.814,0.8102,0.814,0.8178,0.8178,0.8102,0.7949,0.791,0.7829,0.7603,0.7488,0.7292,0.7019,0.6591,0.6282,0.6086,0.5893,0.5661,0.4924,0.4338,0.3949,0.3677,0.3404,0.2859,0.247,0.2392,0.2275,0.2237,0.208,0.1885,0.173,0.1612,0.1573,0.1493,0.1415,0.1375,0.1375,0.1336,0.1297,0.1297,0.1297,0.1258,0.1297,0.1297,0.1178,0.1099,0.1099,0.0825,0.0314,0.0549,0.0983,0.0631,-0.004,1.7522,1.7053,1.7646,1.7701,1.742,1.7829,1.7997,1.7918,1.7446,1.6902,1.6392,1.6059,1.5584,1.5057,1.5092,1.5092,1.5061,1.4974,1.4979,1.4747,1.4417,1.4265,1.4376,1.4123,1.3922,1.3322,1.3104,1.2418,1.1163,1.073,1.0597,1.01,0.9639,0.9387,0.9273,0.8927,0.8742,0.8703,0.8703,0.8703,0.8703,0.8703,0.8703,0.8703,0.8703,0.8703,0.8703,0.8703,0.8703,0.8703,0.8703,0.8703,0.8703,0.8703,0.8703,0.8703,0.8703,0.8627,0.8594,0.8551,0.8475,0.8479,0.8441,0.8441,0.8441,0.8441,0.8441,0.8441,0.8441,0.8441,0.8365,0.825,0.8178,0.8063,0.7834,0.7565,0.7138,0.7057,0.6861,0.6591,0.6321,0.5696,0.5115,0.4766,0.4455,0.3912,0.3483,0.3249,0.2898,0.2508,0.2353,0.208,0.1924,0.1769,0.1769,0.173,0.1612,0.1573,0.1493,0.1454,0.1336,0.1297,0.1336,0.1336,0.1297,0.1297,0.1297,0.1258,0.1218,0.1258,0.1297,0.1297,0.1297,0.1219,0.067,1.8353,1.836,1.8334,1.8362,1.8386,1.8091,1.7958,1.7867,1.7358,1.7105,1.7019,1.6788,1.6697,1.6683,1.6527,1.6391,1.6488,1.6363,1.6309,1.6135,1.5922,1.5598,1.5369,1.5294,1.4957,1.4426,1.4111,1.3419,1.2855,1.2373,1.192,1.1129,1.0121,1.003,0.9879,0.9273,0.8703,0.8703,0.8703,0.8703,0.8703,0.8703,0.8703,0.8703,0.8703,0.8703,0.8703,0.8703,0.8703,0.8703,0.8703,0.8703,0.8703,0.8703,0.8703,0.8703,0.8703,0.8703,0.8665,0.8665,0.8703,0.8703,0.8703,0.8627,0.8665,0.8703,0.8703,0.8627,0.8665,0.8665,0.8665,0.8475,0.8365,0.8217,0.8063,0.7915,0.7761,0.7565,0.7365,0.7134,0.6938,0.6938,0.6395,0.597,0.5506,0.5002,0.4574,0.4181,0.3715,0.3209,0.321,0.3095,0.2627,0.2473,0.2356,0.2277,0.2043,0.1769,0.1729,0.1612,0.1493,0.1415,0.1415,0.1375,0.1336,0.1297,0.1297,0.1297,0.1297,0.1297,0.1297,0.1297,0.1297,0.1297,0.1258,1.8322,1.8302,1.8079,1.8156,1.8404,1.8039,1.7879,1.7824,1.7522,1.7306,1.724,1.7073,1.6972,1.6951,1.6886,1.6772,1.6535,1.6735,1.6431,1.6082,1.587,1.5688,1.5535,1.5425,1.5333,1.5157,1.4758,1.4395,1.4162,1.3488,1.2567,1.126,1.0706,1.0625,1.04,0.9798,0.9155,0.9041,0.897,0.8894,0.8894,0.8889,0.8856,0.8856,0.8818,0.8737,0.8742,0.8818,0.897,0.897,0.8932,0.9003,0.9117,0.9117,0.9117,0.8932,0.8894,0.8856,0.8742,0.8703,0.8703,0.8703,0.8703,0.8703,0.8703,0.8703,0.8703,0.8703,0.8703,0.8703,0.8627,0.8551,0.8479,0.8365,0.8255,0.8102,0.7949,0.7838,0.768,0.7561,0.748,0.7403,0.7326,0.6788,0.636,0.5857,0.5273,0.4882,0.4691,0.4302,0.4457,0.4343,0.368,0.3409,0.3251,0.2979,0.255,0.2199,0.2042,0.1847,0.1612,0.1573,0.1533,0.1493,0.1493,0.1375,0.1336,0.1375,0.1375,0.1336,0.1297,0.1297,0.1297,0.1297,0.1297,1.8299,1.8299,1.7979,1.8059,1.8317,1.7998,1.7836,1.7746,1.7468,1.7323,1.7286,1.7232,1.7083,1.696,1.6941,1.6781,1.6475,1.6257,1.6126,1.5928,1.5681,1.5513,1.5396,1.5389,1.5389,1.5265,1.494,1.4626,1.4397,1.3967,1.3504,1.2472,1.1669,1.1595,1.1329,1.0769,1.0244,0.9949,0.976,0.9614,1.0019,0.9685,0.9685,1.0169,1.0169,1.0169,1.0137,0.9647,0.9798,0.9868,0.9647,0.976,0.9981,1.0051,0.983,0.9496,0.9425,0.9198,0.878,0.8703,0.8703,0.8703,0.8703,0.8703,0.8703,0.8703,0.8703,0.8703,0.8703,0.8703,0.8665,0.8627,0.8589,0.8556,0.8441,0.825,0.8136,0.8025,0.7915,0.7753,0.7753,0.7753,0.7676,0.7522,0.7134,0.671,0.6128,0.5622,0.547,0.5315,0.5392,0.5315,0.4691,0.4419,0.4263,0.3679,0.3018,0.2744,0.251,0.2276,0.212,0.1808,0.1769,0.1691,0.1612,0.1612,0.1533,0.1493,0.1454,0.1336,0.1297,0.1297,0.1297,0.1297,0.1297,1.8006,1.7984,1.7717,1.786,1.8094,1.776,1.7669,1.7578,1.7388,1.7286,1.7279,1.7238,1.7077,1.6925,1.6771,1.6535,1.6265,1.6052,1.5891,1.5723,1.5513,1.5403,1.5389,1.5409,1.5357,1.5196,1.4794,1.4489,1.4298,1.3748,1.3528,1.3317,1.3046,1.2783,1.2452,1.1898,1.1372,1.0999,1.07,1.0443,1.0919,1.0657,1.0438,1.0993,1.0993,1.1025,1.0913,1.0614,1.0645,1.0838,1.0801,1.0801,1.1068,1.118,1.085,1.0438,1.0105,0.9765,0.9122,0.8742,0.8703,0.8703,0.8703,0.8703,0.8703,0.8703,0.8703,0.8703,0.8703,0.8703,0.8703,0.8665,0.8665,0.8632,0.8589,0.8437,0.8327,0.8212,0.8063,0.7949,0.7949,0.7949,0.7872,0.7757,0.7522,0.7215,0.6938,0.6511,0.6356,0.6244,0.6128,0.5973,0.5625,0.5428,0.5273,0.4574,0.399,0.3912,0.36,0.3057,0.2785,0.2473,0.2044,0.1808,0.1769,0.1808,0.173,0.1651,0.1493,0.1336,0.1297,0.1297,0.1297,0.1297,0.1297,1.733,1.7301,1.7315,1.7538,1.7779,1.7432,1.7315,1.733,1.7264,1.7282,1.7238,1.7049,1.6873,1.6756,1.6514,1.6206,1.5972,1.587,1.5745,1.5526,1.5509,1.5431,1.5472,1.5484,1.5415,1.4948,1.4705,1.448,1.4109,1.3793,1.3711,1.3754,1.3637,1.3521,1.3382,1.2673,1.1929,1.126,1.1223,1.1254,1.144,1.1465,1.1428,1.162,1.1761,1.1866,1.1835,1.1533,1.1607,1.1903,1.1755,1.1718,1.194,1.1983,1.1613,1.1031,1.0919,1.04,0.9468,0.9008,0.8851,0.8742,0.8703,0.8703,0.8703,0.8703,0.8703,0.8703,0.8703,0.8703,0.8703,0.8703,0.8703,0.8703,0.8623,0.8585,0.8475,0.8437,0.8289,0.8178,0.814,0.8102,0.8025,0.791,0.7757,0.7561,0.7518,0.7365,0.7092,0.6976,0.6784,0.6668,0.6398,0.6321,0.6086,0.5428,0.4963,0.4924,0.4613,0.3992,0.3641,0.3485,0.294,0.2239,0.2161,0.2393,0.2082,0.1769,0.1612,0.1493,0.1336,0.1297,0.1297,0.1297,0.1297,1.7286,1.7286,1.7286,1.7344,1.7472,1.7337,1.7286,1.7289,1.7121,1.7011,1.6945,1.6719,1.6396,1.6243,1.6169,1.5899,1.565,1.5592,1.5467,1.5604,1.5575,1.5748,1.579,1.5745,1.5643,1.5375,1.5044,1.469,1.4434,1.4013,1.395,1.3992,1.3992,1.3956,1.3876,1.3542,1.3288,1.3025,1.2725,1.2505,1.2952,1.2682,1.2572,1.2915,1.3018,1.3047,1.2981,1.2645,1.2638,1.2974,1.2828,1.2712,1.3047,1.3164,1.2872,1.2321,1.2131,1.1792,1.1019,1.0421,0.9642,0.9155,0.878,0.8818,0.8699,0.8703,0.8703,0.8742,0.878,0.878,0.8703,0.8703,0.8703,0.8703,0.8665,0.8665,0.8627,0.8627,0.8551,0.8441,0.8365,0.8327,0.8293,0.814,0.7949,0.7834,0.7753,0.7599,0.7365,0.7365,0.7249,0.7249,0.713,0.7096,0.6861,0.6202,0.5854,0.5777,0.5351,0.4732,0.4499,0.4419,0.3951,0.3329,0.3134,0.2978,0.2627,0.2315,0.1925,0.1691,0.1572,0.1415,0.1375,0.1336,0.1297,1.7434,1.7434,1.7426,1.7426,1.7426,1.7333,1.7228,1.7143,1.6983,1.6844,1.6675,1.6433,1.6249,1.6057,1.5945,1.5891,1.5639,1.5639,1.568,1.5824,1.5831,1.5914,1.6023,1.6024,1.5635,1.5447,1.5103,1.4751,1.437,1.4208,1.4152,1.4209,1.4238,1.4274,1.4201,1.4129,1.3985,1.376,1.3462,1.3462,1.3688,1.3688,1.3615,1.3869,1.4049,1.4129,1.4021,1.3869,1.3644,1.3941,1.3905,1.368,1.4129,1.4165,1.3905,1.3426,1.2755,1.2455,1.1829,1.1347,1.0608,1.0078,0.9448,0.9268,0.9268,0.9344,0.9236,0.9155,0.9041,0.897,0.897,0.8932,0.8818,0.8856,0.8856,0.8856,0.8818,0.8818,0.8742,0.8665,0.8551,0.8551,0.8518,0.8365,0.8174,0.8063,0.7949,0.7791,0.7638,0.7599,0.7557,0.7518,0.7518,0.7403,0.7249,0.6976,0.6745,0.6668,0.6205,0.5625,0.5428,0.5309,0.4882,0.4455,0.4144,0.3795,0.3288,0.2899,0.2628,0.2238,0.1885,0.1689,0.1454,0.1415,0.1415,1.7768,1.7807,1.7807,1.7824,1.7785,1.7656,1.7307,1.6934,1.6904,1.6713,1.6419,1.6275,1.6267,1.6264,1.6198,1.6275,1.6409,1.6368,1.6402,1.6402,1.6599,1.6468,1.6254,1.6067,1.5755,1.5235,1.4888,1.4701,1.4191,1.4225,1.4281,1.4389,1.4461,1.4489,1.4418,1.4317,1.4209,1.4129,1.4129,1.4049,1.4129,1.4238,1.4165,1.4274,1.431,1.4389,1.4353,1.4281,1.4346,1.4453,1.4489,1.4525,1.4569,1.4569,1.4274,1.3753,1.2938,1.2718,1.2528,1.2198,1.205,1.1638,1.0763,1.0588,1.0438,1.0282,1.0164,0.9981,0.9868,0.9652,0.9506,0.9311,0.9117,0.9117,0.9079,0.9079,0.9041,0.9003,0.8932,0.8818,0.8737,0.8665,0.8627,0.8513,0.8479,0.8327,0.8212,0.8063,0.7906,0.7714,0.7676,0.7599,0.7561,0.7518,0.7403,0.7288,0.7249,0.7057,0.7134,0.6749,0.6514,0.6163,0.5735,0.5386,0.5079,0.4652,0.4107,0.3717,0.3407,0.2978,0.2586,0.2042,0.1807,0.165,0.1573,1.9384,1.9926,1.9681,1.9527,1.9485,1.9109,1.8197,1.7076,1.6777,1.6588,1.6548,1.6251,1.6581,1.6957,1.6984,1.735,1.7658,1.79,1.802,1.7971,1.7736,1.7521,1.7234,1.6828,1.6195,1.5513,1.5032,1.482,1.454,1.4425,1.4425,1.4569,1.4569,1.4605,1.4561,1.4489,1.4461,1.4425,1.4425,1.4425,1.4425,1.4497,1.4453,1.4453,1.4461,1.4533,1.4533,1.4497,1.4569,1.4569,1.4605,1.4605,1.4605,1.4605,1.4453,1.4418,1.4086,1.3977,1.3861,1.3455,1.3237,1.3273,1.2549,1.1805,1.1583,1.1354,1.1205,1.0987,1.0838,1.0651,1.0507,1.0276,1.0088,1.0013,1.0013,0.9943,0.9911,0.9722,0.9609,0.9496,0.9339,0.9041,0.897,0.8818,0.878,0.8627,0.8475,0.8327,0.814,0.7944,0.7834,0.7757,0.7718,0.7714,0.7561,0.7442,0.748,0.748,0.7484,0.7484,0.7173,0.6822,0.6553,0.6202,0.5777,0.5351,0.4849,0.4535,0.4338,0.3832,0.3404,0.2744,0.2199,0.2043,0.1808,1.9972,2.0456,2.0234,2.01,1.9913,1.9742,1.8945,1.7969,1.7684,1.7511,1.7382,1.7302,1.7472,1.7876,1.8101,1.8372,1.8771,1.8762,1.8739,1.856,1.887,1.8211,1.7814,1.7474,1.6693,1.5963,1.541,1.515,1.478,1.4605,1.4605,1.4605,1.4605,1.4605,1.4569,1.4561,1.4561,1.4569,1.4569,1.4605,1.4605,1.4605,1.4605,1.4605,1.4605,1.4605,1.4605,1.4605,1.4605,1.4605,1.4605,1.4605,1.4605,1.4605,1.4605,1.4525,1.4489,1.4453,1.4382,1.423,1.431,1.431,1.3949,1.3462,1.2872,1.2535,1.2285,1.2063,1.1872,1.1718,1.157,1.1465,1.1316,1.1174,1.1105,1.1037,1.085,1.0588,1.0438,1.0325,1.0024,0.9647,0.942,0.9268,0.9003,0.8742,0.8627,0.8551,0.8365,0.8174,0.8025,0.7953,0.791,0.791,0.7753,0.7638,0.7642,0.7599,0.7518,0.7522,0.7518,0.7403,0.7053,0.6745,0.6437,0.6089,0.5893,0.5583,0.5309,0.4802,0.4375,0.3912,0.3212,0.251,0.2277,2.0147,2.0283,2.0102,1.9993,1.9557,1.9905,1.9792,1.9399,1.9309,1.907,1.8705,1.8789,1.8859,1.9,1.9134,1.9293,1.9492,1.9532,1.9315,1.8794,1.9051,1.8676,1.8101,1.7606,1.7153,1.6524,1.6011,1.5627,1.4987,1.4812,1.4848,1.4633,1.4605,1.4605,1.4605,1.4605,1.4605,1.4605,1.4605,1.4605,1.4605,1.4605,1.4605,1.4605,1.4605,1.4605,1.4605,1.4605,1.4605,1.4605,1.4605,1.4605,1.4605,1.4605,1.4605,1.4605,1.4605,1.4605,1.4605,1.4489,1.4525,1.4569,1.4569,1.4346,1.3869,1.3499,1.3244,1.3098,1.2945,1.2828,1.2718,1.2498,1.2315,1.2241,1.2211,1.2181,1.207,1.1663,1.1143,1.0956,1.0663,1.0288,1.0067,0.9873,0.9463,0.9046,0.8703,0.8661,0.8589,0.8403,0.825,0.8144,0.814,0.8102,0.7991,0.7876,0.7838,0.7761,0.7676,0.7599,0.7638,0.7561,0.7518,0.7211,0.6903,0.7173,0.7053,0.6626,0.6163,0.5774,0.5386,0.5118,0.4419,0.3444,0.2938,2.1734,2.234,2.201,2.1253,2.0399,2.1005,2.0888,2.0313,2.0907,2.0342,1.9344,1.9246,1.9552,1.9984,1.9812,1.9935,2.0387,2.0086,2.0056,1.9836,1.978,1.9143,1.8669,1.8296,1.7718,1.7029,1.6551,1.621,1.5683,1.5444,1.5161,1.4697,1.4669,1.4705,1.4557,1.4565,1.4605,1.4605,1.4605,1.4605,1.4605,1.4605,1.4605,1.4605,1.4605,1.4605,1.4605,1.4605,1.4605,1.4605,1.4605,1.4605,1.4605,1.4605,1.4605,1.4605,1.4605,1.4605,1.4605,1.4605,1.4605,1.4605,1.4605,1.4605,1.4461,1.4317,1.4173,1.4057,1.3985,1.3876,1.3724,1.3455,1.331,1.3273,1.3244,1.3208,1.3208,1.2586,1.1922,1.1595,1.1298,1.1043,1.0818,1.0406,0.9916,0.9425,0.8927,0.8737,0.8742,0.8627,0.8475,0.8365,0.8331,0.8293,0.8178,0.8106,0.803,0.7991,0.7949,0.7834,0.7761,0.768,0.7638,0.7557,0.7442,0.7518,0.7518,0.7403,0.6976,0.6549,0.624,0.5931,0.5428,0.4572,0.4066,2.2068,2.2532,2.2294,2.1765,2.1244,2.1606,2.152,2.1211,2.1391,2.0987,2.0196,2.012,2.0359,2.0651,2.0299,2.0219,2.0689,2.0529,2.016,2.0133,2.0044,1.9543,1.9166,1.8853,1.8247,1.7545,1.7044,1.662,1.6384,1.6219,1.5895,1.5171,1.5012,1.4909,1.4632,1.4522,1.4669,1.4605,1.4669,1.4705,1.4705,1.4633,1.4605,1.4605,1.4605,1.4605,1.4605,1.4605,1.4605,1.4605,1.4605,1.4605,1.4605,1.4605,1.4605,1.4605,1.4605,1.4605,1.4605,1.4605,1.4605,1.4605,1.4605,1.4605,1.4605,1.4425,1.4425,1.4346,1.4346,1.4238,1.4201,1.4013,1.3941,1.3912,1.3804,1.3695,1.3586,1.3258,1.2856,1.2636,1.2378,1.215,1.1892,1.1558,1.0999,1.0325,0.9717,0.9231,0.916,0.878,0.8665,0.8551,0.8518,0.8518,0.8479,0.8327,0.8217,0.8217,0.8178,0.8068,0.7953,0.7834,0.7757,0.7676,0.7638,0.7561,0.7561,0.7561,0.748,0.7053,0.6861,0.6707,0.6163,0.5699,0.527,2.18,2.1807,2.1818,2.1769,2.1769,2.1807,2.1718,2.1604,2.13,2.1083,2.0843,2.0792,2.0969,2.0829,2.0529,2.0395,2.0265,2.0079,1.9903,1.9793,1.9744,1.9445,1.9292,1.9116,1.8707,1.8293,1.7833,1.7421,1.7088,1.6977,1.6594,1.5819,1.5566,1.5462,1.4815,1.4798,1.5223,1.533,1.533,1.5161,1.4955,1.4705,1.4633,1.4605,1.4605,1.4605,1.4605,1.4605,1.4605,1.4605,1.4605,1.4605,1.4605,1.4605,1.4605,1.4605,1.4605,1.4605,1.4605,1.4605,1.4605,1.4605,1.4605,1.4605,1.4605,1.4605,1.4605,1.4605,1.4605,1.4569,1.4525,1.4489,1.4425,1.4397,1.4245,1.4101,1.3964,1.3855,1.3674,1.3492,1.3302,1.3076,1.282,1.2519,1.1966,1.1254,1.0625,1.018,0.9695,0.9084,0.8665,0.8627,0.8627,0.8627,0.8665,0.8551,0.8403,0.8403,0.8365,0.8255,0.8106,0.8025,0.791,0.7876,0.7795,0.7757,0.768,0.7642,0.7522,0.7446,0.7288,0.7096,0.7019,0.6591,0.6437,2.1807,2.1807,2.1807,2.1797,2.1787,2.1787,2.16,2.1269,2.1145,2.0917,2.057,2.0238,2.0182,2.0488,2.0089,1.9917,1.9934,1.9702,1.9508,1.9398,1.9504,1.9389,1.9306,1.9374,1.9407,1.911,1.8772,1.851,1.7899,1.7626,1.7054,1.6011,1.6383,1.6407,1.6358,1.6399,1.6541,1.6507,1.6541,1.6541,1.6193,1.5675,1.4705,1.4605,1.4605,1.4605,1.4605,1.4605,1.4605,1.4605,1.4605,1.4605,1.4605,1.4605,1.4605,1.4605,1.4605,1.4605,1.4605,1.4605,1.4605,1.4605,1.4605,1.4605,1.4605,1.4605,1.4605,1.4605,1.4605,1.4605,1.4561,1.4561,1.4533,1.4533,1.4425,1.4353,1.4253,1.4217,1.4109,1.3956,1.3811,1.3666,1.3492,1.3112,1.2592,1.1848,1.0887,1.0438,1.0293,0.9571,0.8742,0.878,0.878,0.8703,0.8703,0.8665,0.8589,0.8589,0.8551,0.8441,0.8331,0.8183,0.8068,0.8063,0.8025,0.7987,0.791,0.7795,0.7723,0.7642,0.7522,0.7442,0.7442,0.7326,0.7053]}]]